[[[{"header":{"parameterUnit":"kt","parameterCategory":2,"dx":1,"dy":1,"la1":29.285339999999998,"la2":30.599998999999997,"lo1":-89.70041500000002,"lo2":-87.6738589999976,"nx":112,"ny":82,"refTime":"2022-10-28T18:00:00:Z","depth":0,"parameterNumber":1,"parameterNumberName":"U-component_of_WINDS"},"data":[3.4553,3.2111,2.9584,2.9938,2.8155,2.6198,2.5721,2.5213,2.4423,2.2885,2.2238,2.1617,2.0596,2.0403,2.0099,1.9123,1.9051,1.8892,0.0,1.7557,1.7295,1.7853,1.9493,2.0793,2.1425,2.2272,2.2208,2.0766,2.1597,2.1662,2.0476,2.0877,2.1354,2.1749,2.1759,2.1425,2.071,2.0384,1.9858,1.9156,1.9617,1.98,1.9832,2.052,2.0784,2.0784,2.0784,2.0784,2.0784,2.0784,2.0784,2.0784,2.0784,2.0784,2.0784,2.0784,2.0784,2.0784,2.0784,2.0784,2.0784,2.0784,2.0784,2.0784,2.0784,2.0784,2.0784,2.0784,2.0784,2.0784,2.0784,2.0784,2.0784,2.0784,2.0784,2.1103,2.216,2.6915,3.1412,3.2765,3.3022,3.3279,3.4074,3.4228,3.4228,3.4228,3.4228,3.4228,3.4228,3.4228,3.4228,3.4228,3.4228,3.4228,3.4228,3.4228,3.4228,3.4228,3.4228,3.4828,3.6176,3.6921,3.8634,4.1375,4.2937,4.4423,4.5868,4.6641,4.7044,4.7044,4.7044,4.7044,3.4212,3.1724,2.9057,2.9078,2.7532,2.5885,2.5267,2.4946,2.428,2.256,2.1899,2.1337,2.0555,2.0402,2.0093,1.9078,1.9086,1.8955,0.0,1.8015,1.8536,1.9704,2.1357,2.2728,2.3653,2.3915,2.3647,2.272,2.281,2.2301,2.0857,2.1152,2.1492,2.1749,2.1759,2.1521,2.0996,2.048,1.9954,1.9435,1.9717,1.98,1.9832,2.052,2.0784,2.0784,2.0784,2.0784,2.0784,2.0784,2.0784,2.0784,2.0784,2.0784,2.0784,2.0784,2.0784,2.0784,2.0784,2.0784,2.0784,2.0784,2.0784,2.0784,2.0784,2.0784,2.0784,2.0784,2.0784,2.0784,2.0784,2.0784,2.0784,2.0784,2.0784,2.1628,2.4708,2.9991,3.4228,3.4228,3.4228,3.4228,3.4228,3.4228,3.4228,3.4228,3.4228,3.4228,3.4228,3.4228,3.4228,3.4228,3.4228,3.4228,3.4228,3.4228,3.4228,3.4228,3.4879,3.5871,3.7275,3.8734,4.083,4.369,4.4472,4.5559,4.7044,4.7044,4.7044,4.7044,4.7044,4.7044,3.134,3.0358,2.8832,2.7732,2.6912,2.6052,2.479,2.4493,2.4029,2.2347,2.1976,2.1649,2.0651,2.0443,1.9984,1.8599,1.8924,0.0,0.0,1.8554,2.0249,2.275,2.36,2.437,2.5284,2.5955,2.5802,2.4385,2.4731,2.3852,2.1319,2.1547,2.1759,2.1759,2.1759,2.1521,2.1053,2.0519,2.0002,1.9483,1.9717,1.9859,1.9875,2.052,2.0784,2.0784,2.0784,2.0784,2.0784,2.0784,2.0784,2.0784,2.0784,2.0784,2.0784,2.0784,2.0784,2.0784,2.0784,2.0784,2.0784,2.0784,2.0784,2.0784,2.0784,2.0784,2.0784,2.0784,2.0784,2.0784,2.0784,2.0784,2.0784,2.0784,2.0997,2.3618,3.2341,3.4228,3.4228,3.4228,3.4228,3.4228,3.4228,3.4228,3.4228,3.4228,3.4228,3.4228,3.4228,3.4228,3.4228,3.4228,3.4228,3.4228,3.4228,3.4228,3.4228,3.4228,3.6176,3.7426,3.7578,4.1573,4.3788,4.3837,4.5964,4.7044,4.7044,4.7044,4.7044,4.7044,4.7044,4.7044,3.3545,3.0735,2.7849,2.8161,2.6634,2.4931,2.4569,2.4652,2.4425,2.3209,2.2439,0.0,0.0,0.0,2.0996,2.0584,0.0,2.1372,2.1001,2.129,2.2419,2.4891,2.5514,2.6209,2.7394,2.8387,2.7654,2.4531,2.5562,2.478,2.1347,2.1547,2.1759,2.1759,2.1759,2.1711,2.1568,2.1044,2.0719,2.0584,2.0455,2.0408,2.0432,2.0678,2.0784,2.0784,2.0784,2.0784,2.0784,2.0784,2.0784,2.0784,2.0784,2.0784,2.0784,2.0784,2.0784,2.0784,2.0784,2.0784,2.0784,2.0784,2.0784,2.0784,2.0784,2.0784,2.0784,2.0784,2.0784,2.0784,2.0784,2.0784,2.0784,2.0784,2.5813,3.1194,3.3702,3.4228,3.4228,3.4228,3.4228,3.4228,3.4228,3.4228,3.4228,3.4228,3.4228,3.4228,3.4228,3.4228,3.4228,3.4228,3.4228,3.4228,3.4228,3.4228,3.4228,3.4228,3.6176,3.8905,4.2413,4.3672,4.5022,4.6509,4.7153,4.7315,4.7044,4.7044,4.7044,4.7044,4.7044,4.7044,3.2133,2.9887,2.7489,2.7624,2.6472,2.5298,2.5309,2.5099,2.4594,2.354,0.0,0.0,0.0,0.0,0.0,0.0,2.2329,2.2762,2.2762,2.3052,2.4307,2.7193,2.7515,2.7945,2.9098,2.9159,2.8059,2.5545,2.5521,2.4382,2.1597,2.1639,2.1759,2.1759,2.1759,2.1759,2.1759,2.1235,2.0996,2.1005,2.0951,2.0914,2.0939,2.1089,2.1157,2.1103,2.089,2.0784,2.0784,2.0784,2.0784,2.0784,2.0784,2.0784,2.0784,2.0784,2.0784,2.0784,2.0784,2.0784,2.0784,2.0784,2.0784,2.0784,2.0784,2.0784,2.0784,2.0784,2.0784,2.0784,2.0784,2.0784,2.1726,2.5541,3.0406,3.4228,3.4228,3.4228,3.4228,3.4228,3.4228,3.4228,3.4228,3.4228,3.4228,3.4228,3.4228,3.4228,3.4228,3.4228,3.4228,3.4228,3.4228,3.4228,3.4228,3.4228,3.4228,3.4228,3.6176,3.9105,4.3019,4.4891,4.6395,4.7603,4.7459,4.7267,4.7044,4.7044,4.7044,4.7044,4.7237,4.7188,2.888,2.8347,2.7438,2.6634,2.6453,2.645,2.6411,0.0,2.4739,2.3767,0.0,2.2876,2.1931,0.0,0.0,2.2805,2.3379,2.3829,2.3906,2.4707,2.6471,2.9639,2.9716,2.9794,3.0578,2.9392,2.8206,2.7251,2.5427,2.3682,2.2159,2.1901,2.1759,2.1759,2.1759,2.1759,2.1759,2.1282,2.1118,2.1124,2.1365,2.1486,2.1555,2.1534,2.1575,2.1575,2.105,2.0784,2.0784,2.0784,2.0784,2.0784,2.0784,2.0784,2.0784,2.0784,2.0784,2.0784,2.0784,2.0784,2.0784,2.0784,2.0784,2.0784,2.0784,2.0784,2.0784,2.0784,2.0784,2.0784,2.0784,2.1575,2.4349,3.229,3.4228,3.4228,3.4228,3.4228,3.4228,3.4228,3.4228,3.4228,3.4228,3.4228,3.4228,3.4228,3.4228,3.4228,3.4228,3.4432,3.4484,3.4228,3.4228,3.4228,3.4228,3.4484,3.4624,3.4573,3.6871,3.9255,4.1672,4.5653,4.7776,4.7746,4.7315,4.7092,4.7044,4.7044,4.7092,4.7188,4.7507,4.7459,2.8032,2.7378,2.6654,2.647,2.6453,2.6378,0.0,0.0,0.0,2.5159,2.4756,2.4471,2.4249,2.4583,2.5047,2.5572,2.6205,2.6805,2.7327,2.898,3.0807,3.2623,3.2759,3.2702,3.2672,3.2421,3.1397,2.9341,2.7852,2.6187,2.4231,2.2643,2.1759,2.1759,2.1759,2.1759,2.1759,2.1663,2.1789,2.2078,2.2044,2.2191,2.2465,2.1861,2.1575,2.1575,2.105,2.0784,2.0784,2.0784,2.0784,2.0784,2.0784,2.0784,2.0784,2.0784,2.0784,2.0784,2.0784,2.0784,2.0784,2.0784,2.0784,2.0784,2.0784,2.0784,2.0784,2.0784,2.0784,2.0784,2.0784,2.6181,3.2083,3.3805,3.4228,3.4228,3.4228,3.4228,3.4228,3.4228,3.4228,3.4228,3.4228,3.4228,3.4228,3.4228,3.4228,3.4228,3.4228,3.5773,3.618,3.4381,3.4228,3.4228,3.4228,3.6111,3.716,3.6784,4.1164,4.3786,4.39,4.7135,4.8672,4.8272,4.7746,4.7363,4.7044,4.7044,4.7429,4.8129,4.7776,4.7585,2.6453,2.6111,2.5868,2.6309,2.6795,0.0,0.0,2.7215,2.725,2.6353,2.647,2.6512,2.5788,2.637,2.7145,2.7892,2.8243,2.9185,3.1224,3.2382,3.3318,3.4029,3.4107,3.4033,3.3744,3.3717,3.2746,3.041,2.7767,2.5772,2.4739,2.2832,2.1759,2.1759,2.1759,2.1759,2.1759,2.1759,2.197,2.2343,2.2488,2.2785,2.3097,2.2685,2.2327,2.2,2.1423,2.105,2.0784,2.0784,2.1157,2.1689,2.1689,2.1689,2.1689,2.1689,2.1476,2.121,2.121,2.0997,2.0784,2.0784,2.0784,2.0784,2.0784,2.0784,2.0784,2.0784,2.4032,2.7533,2.7533,3.082,3.4228,3.4228,3.4228,3.4228,3.4228,3.4228,3.4228,3.4228,3.4228,3.4228,3.4228,3.4228,3.4228,3.4228,3.4228,3.4228,3.4228,3.6129,3.7107,3.5976,3.4893,3.4228,3.4228,3.7614,3.967,3.937,4.3117,4.5262,4.5262,4.7806,4.891,4.8416,4.7698,4.7315,4.7315,4.7603,4.7938,4.8416,4.8416,4.8129,2.5088,2.5084,2.5325,2.6433,2.7257,0.0,2.7799,2.8379,2.8559,2.7216,2.7908,2.8423,2.7239,2.8027,2.9088,2.9973,3.0096,3.1231,3.4354,3.4787,3.4833,3.4973,3.4988,3.4817,3.4444,3.44,3.3525,3.1418,2.8281,2.6276,2.5913,2.3627,2.232,2.232,2.1949,2.1759,2.1759,2.1759,2.2016,2.2453,2.2774,2.3177,2.362,2.3405,2.3071,2.2646,2.2062,2.153,2.1157,2.1157,2.1689,2.254,2.254,2.254,2.254,2.254,2.2221,2.1787,2.1787,2.1787,2.1787,2.1787,2.2098,2.2612,2.345,2.2355,2.1157,2.293,2.8628,3.4228,3.4228,3.4228,3.4228,3.4228,3.4228,3.4228,3.4228,3.4228,3.4228,3.4228,3.4228,3.4228,3.4228,3.4228,3.4228,3.4228,3.4228,3.4228,3.4228,3.6129,3.7526,3.7526,3.5518,3.4535,3.5376,3.952,4.2052,4.2002,4.4648,4.636,4.6649,4.8302,4.891,4.8416,4.7669,4.7477,4.7776,4.832,4.8606,4.872,4.9006,4.872,2.5037,2.5084,2.5486,2.7217,2.7719,0.0,2.781,2.8317,2.8527,2.7547,2.8461,2.9384,2.9241,2.9793,3.0668,3.1941,3.2118,3.2913,3.5146,3.5455,3.5686,3.626,3.6321,3.5995,3.5174,3.5054,3.4572,3.3391,3.289,3.1871,3.0144,2.6417,2.4372,2.4372,2.269,2.1759,2.1759,2.1759,2.2144,2.2857,2.2902,2.3324,2.4014,2.353,2.3274,2.3221,2.2646,2.2434,2.2381,2.2381,2.2434,2.254,2.254,2.254,2.254,2.254,2.2487,2.2434,2.2434,2.3689,2.5307,2.5307,2.6653,2.8971,3.2882,2.7877,2.2461,3.0458,3.3433,3.4228,3.4228,3.4228,3.4228,3.4228,3.4228,3.4228,3.4228,3.4228,3.4228,3.4228,3.4228,3.4228,3.4228,3.4228,3.4228,3.4228,3.4228,3.4228,3.4228,3.6129,3.7526,3.7526,3.5518,3.5783,3.96,4.261,4.4273,4.421,4.75,4.9243,4.8844,4.9053,4.891,4.8416,4.832,4.8272,4.832,4.8815,4.9338,4.9783,4.9404,4.9101,2.4834,2.4683,2.4927,2.7241,0.0,0.0,2.9486,3.0886,3.1666,3.0023,3.1175,3.2231,3.1385,3.2135,3.3071,3.3602,3.4034,3.4702,3.5951,3.6121,3.6229,3.6522,3.6344,3.5939,3.5248,3.4886,3.4433,3.3678,3.3633,3.2753,3.0802,2.8048,2.596,2.4739,2.3911,2.2927,2.1806,2.2007,2.2411,2.2921,2.3168,2.3581,2.413,2.3866,2.3601,2.3336,2.3071,2.2806,2.2797,2.6086,2.6673,2.5642,2.6925,2.7439,2.7439,2.7439,2.7177,2.6853,2.6853,2.7271,2.7794,2.7794,3.0641,3.4227,3.544,3.2419,2.942,3.3176,3.4228,3.4228,3.4228,3.4228,3.4228,3.4228,3.4228,3.4228,3.4228,3.4228,3.4228,3.4228,3.4228,3.4228,3.4228,3.4228,3.4228,3.4228,3.4228,3.4228,3.4228,3.6129,3.7526,3.7526,4.0015,4.1425,4.0696,4.4696,4.6697,4.5507,4.8254,4.9849,4.9641,4.9641,4.9404,4.8863,4.8863,4.872,4.8416,4.9262,4.9736,4.9944,4.9736,4.9452,2.4819,0.0,0.0,0.0,0.0,0.0,3.1739,3.3117,3.3862,3.2353,3.3234,3.4024,3.2975,3.3772,3.471,3.5096,3.5532,3.5982,3.6491,3.6553,3.6553,3.6553,3.6314,3.5864,3.5248,3.4841,3.4343,3.3678,3.3633,3.2995,3.1596,3.019,2.8478,2.6417,2.5819,2.4843,2.3448,2.3894,2.433,2.4706,2.516,2.5243,2.5072,2.5695,2.5422,2.4544,2.5158,2.5211,2.5149,2.9212,2.9951,2.8672,3.0262,3.0884,3.0884,3.0884,3.0613,3.0187,3.0187,3.0383,3.0538,3.0538,3.3702,3.736,3.6485,3.5722,3.5148,3.5148,3.5148,3.4995,3.4381,3.4228,3.4381,3.4995,3.5148,3.5148,3.5148,3.5148,3.4957,3.433,3.4228,3.4228,3.4228,3.4228,3.4228,3.4228,3.4739,3.5148,3.5148,3.6535,3.7259,3.6637,4.0746,4.3199,4.2478,4.5539,4.7357,4.6894,4.8815,4.9944,4.9944,4.9831,4.9594,4.9196,4.9196,4.9006,4.8606,4.9499,4.9944,4.9944,4.9944,4.9736,0.0,0.0,0.0,2.9995,3.1151,3.2378,3.4396,3.413,3.3551,3.3893,3.3767,3.3638,3.3597,3.4138,3.5019,3.6275,3.6506,3.6522,3.6553,3.6553,3.6553,3.6553,3.6508,3.6194,3.5248,3.5157,3.4736,3.3692,3.3633,3.3587,3.3542,3.3496,3.257,3.0617,2.871,2.7688,2.7641,2.8251,2.8779,2.9171,2.9673,2.9074,2.7585,2.9702,2.9546,2.7596,2.9743,3.0676,3.0676,3.0832,3.0884,3.0832,3.0884,3.0884,3.0884,3.0884,3.0884,3.0884,3.0884,3.229,3.4074,3.4074,3.562,3.7526,3.7475,3.7411,3.7425,3.7425,3.7425,3.6955,3.479,3.4228,3.4739,3.6904,3.7425,3.7425,3.7425,3.7425,3.6803,3.4637,3.4228,3.4228,3.4228,3.4228,3.4228,3.4228,3.6027,3.7425,3.7425,3.7475,3.6701,3.4535,3.4484,3.7916,4.614,4.5022,4.5328,4.8683,4.9575,4.9944,4.9944,4.948,4.9214,4.9196,4.9196,4.9196,4.9148,4.9689,4.9944,4.9944,4.9944,4.9944,2.734,2.8167,2.9196,3.0969,3.2943,3.4659,3.5451,3.5445,3.5265,3.5324,3.4743,3.4401,3.4822,3.5455,3.6057,3.6476,3.6553,3.6553,3.6553,3.6553,3.6553,3.6553,3.6299,3.5909,3.5248,3.4886,3.4388,3.3678,3.3633,3.3633,3.3633,3.3633,3.336,3.2662,3.0756,2.9127,2.7828,2.8699,2.9228,2.9368,3.0225,3.0358,2.9806,3.0573,3.0521,2.9858,3.0573,3.1762,3.3228,3.4726,3.4419,3.3228,3.4713,3.5287,3.5287,3.5287,3.5287,3.5287,3.5287,3.5759,3.6383,3.6383,3.6904,3.7526,3.7526,3.7526,3.7526,3.7526,3.7526,3.736,3.66,3.5314,3.479,3.7006,3.7526,3.7526,3.7526,3.7526,3.7309,3.6549,3.5212,3.4228,3.4228,3.5416,3.6383,3.6383,3.7006,3.7526,3.7526,3.7526,3.6637,3.4432,3.4228,3.6,4.0329,4.5119,4.7614,4.6973,4.8844,4.9944,4.9944,4.9783,4.9689,4.9689,4.9689,4.9689,4.9689,4.9878,4.9944,4.9944,4.9944,4.9944,2.8891,2.9928,3.1075,3.2425,3.4534,3.6532,3.7533,3.7105,3.6558,3.6831,3.5863,3.5053,3.5486,3.609,3.6553,3.6553,3.6553,3.6553,3.6553,3.6553,3.6553,3.6553,3.6344,3.5999,3.5488,3.4991,3.4493,3.3934,3.3738,3.3633,3.3633,3.3633,3.3633,3.3633,3.2433,3.1169,2.9913,3.0992,3.156,3.1573,3.2735,3.2856,3.2135,3.2907,3.2856,3.2135,3.2907,3.4099,3.5518,3.6955,3.6701,3.5518,3.6955,3.7526,3.7526,3.7526,3.7526,3.7526,3.7526,3.7526,3.7526,3.7526,3.7526,3.7526,3.7526,3.7526,3.7526,3.7526,3.7526,3.7526,3.7526,3.6485,3.5773,3.7208,3.7526,3.7526,3.7526,3.7526,3.7259,3.6498,3.5199,3.4228,3.4228,3.6078,3.7526,3.7526,3.7526,3.7526,3.7526,3.7526,3.6637,3.4432,3.7599,4.0436,4.1837,4.6894,4.9196,4.7471,4.9006,4.9944,4.9944,4.9944,4.9944,4.9944,4.9944,4.9944,4.9944,4.9944,4.9944,4.9944,4.9944,4.9944,2.9842,3.1595,3.3849,3.4393,3.5952,3.7977,4.0459,3.9035,3.7444,3.8359,3.6947,3.5578,3.5609,3.6121,3.6553,3.6553,3.6553,3.6553,3.6553,3.6553,3.6553,3.6553,3.6553,3.6389,3.6014,3.5488,3.4977,3.4448,3.392,3.3633,3.3633,3.3633,3.3633,3.3633,3.3633,3.3633,3.3633,3.4873,3.5513,3.5598,3.6914,3.6383,3.4484,3.6535,3.6383,3.4484,3.66,3.7526,3.7526,3.7526,3.7526,3.7526,3.7526,3.7526,3.7526,3.7526,3.7526,3.7526,3.7526,3.7526,3.7526,3.7526,3.7526,3.7526,3.7526,3.7526,3.7526,3.7526,3.7526,3.7526,3.7526,3.7526,3.7526,3.7526,3.7526,3.7526,3.7526,3.7526,3.6904,3.479,3.4381,3.4381,3.4381,3.6129,3.7526,3.7526,3.7526,3.7526,3.7526,3.7526,3.689,3.5185,4.3981,4.9944,4.9944,4.9944,4.9944,4.9944,4.9944,4.9944,4.9944,4.9944,4.9944,4.9944,4.9944,4.9944,4.9944,4.9944,4.9944,4.9944,4.9944,4.9944,3.2074,3.3857,3.5399,3.6236,3.8246,4.0217,4.0846,3.9506,3.8337,3.9054,3.7251,3.5733,3.6198,3.6429,3.6553,3.6553,3.6553,3.6553,3.6553,3.6553,3.6553,3.6553,3.6553,3.6389,3.6014,3.5488,3.4977,3.4448,3.392,3.3633,3.3633,3.3633,3.3633,3.3633,3.3633,3.3633,3.3633,3.3959,3.4645,3.5598,3.6914,3.7208,3.6701,3.7259,3.7208,3.6701,3.7259,3.7526,3.7526,3.7526,3.7526,3.7526,3.7526,3.7526,3.7526,3.7526,3.7526,3.7526,3.7526,3.7526,3.7526,3.7526,3.7526,3.7526,3.7526,3.7526,3.7526,3.7526,3.7526,3.7526,3.7526,3.7526,3.7526,3.7526,3.7526,3.7526,3.7526,3.7526,3.736,3.6803,3.6701,3.6701,3.6701,3.7158,3.7526,3.7526,3.7526,3.7526,3.7526,3.7526,3.968,4.5328,4.8349,4.9944,4.9944,4.9944,4.9944,4.9944,4.9944,4.9944,4.9944,4.9944,4.9944,4.9944,4.9944,4.9944,4.9944,4.9944,4.9944,4.9944,4.9944,4.9944,3.2703,3.4613,3.6215,3.7422,3.9407,4.1207,4.2048,4.1121,4.012,4.0075,3.9226,3.8328,3.7914,3.7817,3.755,3.6687,3.6553,3.6553,3.6553,3.6553,3.6553,3.6553,3.6553,3.6478,3.6209,3.5579,3.5067,3.4765,3.4056,3.3633,3.3633,3.3633,3.3633,3.3633,3.3633,3.3633,3.3633,3.3633,3.413,3.5171,3.6451,3.7255,3.7526,3.7526,3.7526,3.7526,3.7526,3.7526,3.7526,3.7526,3.7526,3.7526,3.7526,3.7526,3.7526,3.7526,3.7526,3.7526,3.7526,3.7526,3.7526,3.7526,3.7526,3.7526,3.7526,3.7526,3.7526,3.7526,3.7526,3.7411,3.7107,3.7259,3.736,3.6904,3.7158,3.7526,3.7526,3.7526,3.7526,3.7526,3.7526,3.7526,3.7526,3.7526,3.7526,3.7526,3.7526,3.8843,4.2527,4.297,4.4779,4.9433,4.9944,4.9944,4.9944,4.9944,4.9944,4.9944,4.9944,4.9944,4.9944,4.9944,4.9944,4.9944,5.0352,5.0541,5.0541,5.0162,4.9944,4.9944,4.9944,4.9944,3.2322,3.4306,3.6338,3.8231,3.9985,4.1626,4.3195,4.2842,4.1955,4.1174,4.1755,4.1856,4.0134,3.9817,3.9201,3.7253,3.694,3.6851,3.6598,3.6553,3.6553,3.6553,3.6553,3.6553,3.6553,3.5789,3.5248,3.5203,3.4283,3.3692,3.3633,3.3633,3.3633,3.3633,3.3633,3.3633,3.3633,3.3633,3.3959,3.4598,3.574,3.67,3.7398,3.7398,3.7441,3.7526,3.7526,3.7526,3.7526,3.7526,3.7526,3.7526,3.7526,3.7526,3.7526,3.7526,3.7526,3.7526,3.7526,3.7526,3.7526,3.7526,3.7526,3.7526,3.7526,3.7526,3.7526,3.7526,3.7526,3.736,3.6687,3.7006,3.7259,3.6231,3.6803,3.7526,3.7526,3.7526,3.7526,3.7526,3.7526,3.7526,3.7526,3.7526,3.7526,3.7526,3.8456,4.1787,4.9053,4.9944,4.9944,4.9944,4.9944,4.9944,4.9944,4.9944,4.9944,4.9944,4.9944,5.0048,5.02,5.0228,5.0314,5.0314,5.1083,5.1462,5.1462,5.056,5.0143,5.0143,4.9982,4.9944,3.1337,3.2969,3.5271,3.901,4.1034,4.2229,4.2551,4.2414,4.2167,4.1995,4.267,4.2973,4.1917,4.1738,4.1129,3.9245,3.8936,3.8378,3.6777,3.6553,3.6553,3.6553,3.6553,3.6553,3.6553,3.6134,3.5639,3.5203,3.4615,3.407,3.3647,3.3633,3.3633,3.3633,3.3633,3.3633,3.3633,3.3633,3.3959,3.4584,3.4859,3.5555,3.6743,3.6743,3.7028,3.7526,3.7526,3.7526,3.7526,3.7526,3.7526,3.7526,3.7526,3.7526,3.7526,3.7526,3.7526,3.7526,3.7526,3.7526,3.7526,3.7526,3.7526,3.7526,3.7526,3.7526,3.7526,3.7526,3.7526,3.7475,3.736,3.7425,3.7461,3.7259,3.736,3.7526,3.7526,3.7526,3.7526,3.7526,3.7526,3.7526,3.7526,3.7526,3.7526,3.7526,4.3412,4.832,4.9736,4.9944,4.9944,4.9944,4.9944,4.9944,4.9944,4.9944,4.9944,4.9944,4.9944,5.039,5.1378,5.1823,5.204,5.204,5.2241,5.2298,5.2298,5.1481,5.1083,5.1064,5.0314,4.9944,3.2704,3.3551,3.4852,3.8357,4.0618,4.2147,4.291,4.3048,4.3214,4.3862,4.4568,4.4773,4.3767,4.3616,4.2714,3.9888,3.9449,3.876,3.6806,3.6553,3.6553,3.6553,3.6553,3.6553,3.6553,3.6179,3.5879,3.5594,3.4856,3.4312,3.407,3.3783,3.3633,3.3633,3.3633,3.3633,3.3633,3.3633,3.3789,3.4087,3.4428,3.4944,3.5541,3.5541,3.6067,3.7042,3.7369,3.7526,3.7526,3.7526,3.7526,3.7526,3.7526,3.7526,3.7526,3.7526,3.7526,3.7526,3.7526,3.7526,3.7526,3.7526,3.7526,3.7526,3.7526,3.7526,3.7526,3.7526,3.7526,3.7475,3.7186,3.7324,3.7425,3.7172,3.7324,3.7526,3.7526,3.7526,3.7966,3.9365,3.8491,3.8204,4.0398,4.0746,4.149,4.3706,4.7375,4.9944,4.9944,4.9944,4.9944,4.9944,4.9944,4.9944,4.9944,5.1565,5.221,5.1338,5.1528,5.1793,5.2089,5.319,5.3816,5.3816,5.3399,5.3171,5.3171,5.2336,5.1918,5.1918,5.1083,5.0636,3.4042,3.4347,3.4868,3.7699,4.0026,4.1979,4.3348,4.3701,4.402,4.5127,4.5924,4.6151,4.5395,4.5475,4.4408,4.0676,4.002,3.9245,3.6851,3.6553,3.6553,3.6553,3.6553,3.6553,3.6553,3.6269,3.6059,3.5969,3.5187,3.4629,3.4417,3.4025,3.3738,3.3633,3.3633,3.3633,3.3633,3.3633,3.3633,3.3647,3.4144,3.4442,3.4584,3.4584,3.5243,3.6366,3.7184,3.7526,3.7526,3.7526,3.7526,3.7526,3.7526,3.7526,3.7526,3.7526,3.7526,3.7526,3.7526,3.7526,3.7526,3.7526,3.7526,3.7526,3.7526,3.7526,3.7526,3.7526,3.7526,3.7425,3.7034,3.7222,3.7425,3.7034,3.7562,3.8154,3.8154,3.8556,3.9515,4.1641,4.0582,4.0364,4.3623,4.4696,4.6184,4.948,4.9944,4.9944,4.9944,4.9944,4.9944,4.9944,4.9944,5.0228,5.0997,5.3494,5.4443,5.3083,5.3437,5.3475,5.3057,5.4291,5.4993,5.4993,5.4418,5.4095,5.4095,5.319,5.2791,5.2772,5.1937,5.1462,3.3399,3.4133,3.5372,3.8141,4.0221,4.1931,4.3252,4.3561,4.3718,4.4304,4.5415,4.6278,4.6313,4.7303,4.6745,4.2585,4.1955,4.0649,3.703,3.6553,3.6553,3.6553,3.6553,3.6553,3.6553,3.6508,3.6344,3.5969,3.5879,3.5383,3.4448,3.4357,3.4116,3.3647,3.3633,3.3633,3.3633,3.3633,3.3633,3.3633,3.3689,3.403,3.4584,3.4584,3.5015,3.5726,3.6985,3.7526,3.7526,3.7526,3.7526,3.7526,3.7526,3.7526,3.7526,3.7526,3.7526,3.7526,3.7526,3.7526,3.7526,3.7526,3.7526,3.7526,3.7526,3.7526,3.7526,3.7526,3.7526,3.7512,3.7475,3.7475,3.7512,3.7475,3.8944,4.0348,4.0348,4.1821,4.3232,4.346,4.4404,4.5248,4.5653,4.7758,4.9499,4.9878,4.9944,4.9944,4.9944,4.9944,4.9944,4.9944,4.9944,5.1205,5.4291,5.4822,5.4936,5.4784,5.4822,5.4822,5.4765,5.4917,5.4993,5.4993,5.4917,5.4879,5.4879,5.4114,5.3715,5.3696,5.2791,5.2013,3.5146,3.5621,3.6612,3.9725,4.1734,4.298,4.3342,4.4011,4.4658,4.4959,4.507,4.5336,4.6179,4.6838,4.6385,4.3782,4.3624,4.2542,3.8804,3.8289,3.8289,3.8289,3.7237,3.703,3.82,3.7253,3.6463,3.6344,3.6089,3.5789,3.5368,3.478,3.4312,3.4116,3.3783,3.3633,3.3633,3.3633,3.3633,3.3633,3.3633,3.3775,3.4016,3.4016,3.4357,3.501,3.5939,3.6551,3.6971,3.7369,3.7526,3.7526,3.7526,3.7526,3.7526,3.7526,3.7526,3.7526,3.7526,3.7526,3.7526,3.7526,3.7526,3.7526,3.7526,3.7526,3.7526,3.7526,3.7526,3.7526,3.7526,3.7526,3.8154,4.0647,4.1903,4.2495,4.2495,4.3183,4.4095,4.5359,4.6053,4.6859,4.8111,4.9243,4.9944,4.9944,4.9944,4.9944,4.9944,4.9944,4.9944,4.9944,5.1774,5.3569,5.4879,5.4993,5.4993,5.4993,5.4993,5.4993,5.4993,5.4993,5.4993,5.4993,5.4993,5.4993,5.4993,5.4671,5.457,5.4551,5.3664,5.3164,3.6024,3.6409,3.7239,3.9944,4.2071,4.342,4.3075,4.4286,4.5524,4.5452,4.5099,4.5025,4.5588,4.608,4.5891,4.4364,4.4324,4.3491,4.0685,4.0283,4.0283,4.0283,3.9041,3.8776,4.0168,3.9025,3.7994,3.746,3.7135,3.6703,3.6014,3.5277,3.478,3.4629,3.4116,3.3874,3.3874,3.3692,3.3633,3.3633,3.3633,3.3633,3.3633,3.3633,3.3988,3.4659,3.5299,3.5939,3.6615,3.7255,3.7526,3.7526,3.7526,3.7526,3.7526,3.7526,3.7526,3.7526,3.7526,3.7526,3.7526,3.7526,3.7966,3.8441,3.8441,3.8893,3.938,3.938,3.938,3.938,3.938,3.938,4.0114,4.3035,4.4193,4.4631,4.4631,4.5134,4.6022,4.7482,4.7769,4.8236,4.9689,4.9944,4.9944,4.9944,4.9944,4.9944,4.9944,5.02,5.0541,5.1034,5.3247,5.4779,5.4974,5.4993,5.4993,5.4993,5.4993,5.4993,5.4993,5.4993,5.4993,5.4993,5.4993,5.4993,5.4993,5.4993,5.4993,5.4974,5.4456,5.4057,3.5337,3.5925,3.6998,3.8071,4.0656,4.2814,4.2321,4.4197,4.5896,4.5425,4.5719,4.5722,4.4554,4.539,4.5781,4.435,4.3787,4.3219,4.228,4.2171,4.2171,4.2171,4.2128,4.2128,4.2171,4.2128,4.139,3.9581,3.9405,3.8422,3.6104,3.5969,3.5729,3.5203,3.4674,3.4402,3.4402,3.3874,3.3633,3.3633,3.3633,3.3633,3.3633,3.3633,3.3988,3.4659,3.5299,3.5939,3.6615,3.7255,3.7526,3.7526,3.7526,3.7526,3.7526,3.7526,3.7526,3.7526,3.7526,3.7526,3.7526,3.7526,3.8944,4.0597,4.0597,4.2068,4.3672,4.3672,4.3672,4.3672,4.3672,4.3672,4.3656,4.3705,4.531,4.6823,4.6823,4.8426,4.9878,4.9925,4.9925,4.9944,4.9944,4.9944,4.9944,4.9944,4.9944,4.9944,4.9944,5.076,5.1967,5.362,5.3829,5.4171,5.4936,5.4993,5.4993,5.4993,5.4993,5.4993,5.4993,5.4993,5.4993,5.4993,5.4993,5.4993,5.4993,5.4993,5.4993,5.4993,5.4993,5.4608,3.5311,3.5947,3.7203,3.9145,4.2031,4.4106,4.2959,4.3279,4.4177,4.5409,4.5135,4.4636,4.4585,4.4551,4.4452,4.4268,4.4991,4.4947,4.3335,4.3647,4.4043,4.4043,4.2948,4.2689,4.3915,4.293,4.1955,4.139,4.0151,3.9113,3.8378,3.6837,3.6478,3.7534,3.5864,3.5983,3.8241,3.5534,3.4645,3.5638,3.5638,3.5638,3.5638,3.5638,3.5714,3.6061,3.8608,3.98,4.0007,3.974,3.9615,3.948,3.8067,3.7526,3.7526,3.7526,3.8405,3.9615,3.9615,4.0597,4.1771,4.1771,4.2199,4.2741,4.2741,4.3215,4.3705,4.3705,4.3705,4.4404,4.7261,4.7997,4.7997,4.7997,4.8493,4.8968,4.8968,4.948,4.9944,4.9944,4.9944,4.9944,4.9944,4.9944,4.9944,4.9944,4.9944,5.02,5.0817,5.114,5.1937,5.3658,5.4323,5.4708,5.4974,5.4993,5.4993,5.4993,5.4993,5.4993,5.4993,5.4993,5.4993,5.4993,5.4993,5.4993,5.4993,5.4993,5.4993,5.4993,5.4993,5.486,3.5138,3.5546,3.6604,3.8457,4.1128,4.3154,4.2621,4.2398,4.2902,4.4983,4.4272,4.3455,4.4104,4.3618,4.3623,4.5105,4.5823,4.579,4.4791,4.5404,4.5947,4.5947,4.4932,4.4677,4.5821,4.489,4.3934,4.3273,4.2135,4.1225,4.0545,3.9085,3.882,3.9976,3.839,3.8506,4.0537,3.7902,3.7324,3.8904,3.818,3.7753,3.7575,3.7575,3.7575,3.7744,4.0451,4.1587,4.1611,4.1767,4.1326,4.0547,4.0049,3.9865,3.9865,3.9865,4.0696,4.1821,4.1821,4.2643,4.3705,4.3705,4.4241,4.4939,4.4939,4.5473,4.607,4.607,4.607,4.6666,4.9291,4.9944,4.9944,4.9944,4.9944,4.9944,4.9944,4.9944,4.9944,4.9944,4.9944,4.9944,4.9944,4.9944,4.9944,4.9944,5.0257,5.0703,5.1235,5.1891,5.267,5.3715,5.457,5.4993,5.4993,5.4993,5.4993,5.4993,5.4993,5.4993,5.4993,5.4993,5.4993,5.4993,5.4993,5.4993,5.4993,5.4993,5.4993,5.4993,5.4993,5.4993,3.485,3.4909,3.5439,3.648,3.8358,4.0289,4.1535,4.164,4.206,4.4187,4.3316,4.2406,4.3241,4.2717,4.3126,4.6135,4.6138,4.5898,4.6313,4.7058,4.76,4.7618,4.7618,4.7618,4.7618,4.7618,4.691,4.5252,4.4979,4.4171,4.2474,4.2258,4.2258,4.2387,4.1772,4.1563,4.1823,4.0712,4.1121,4.3058,4.1164,3.9986,3.9503,3.9459,3.9459,3.9587,4.1303,4.2051,4.2106,4.3443,4.2839,4.1227,4.3035,4.3705,4.3705,4.3705,4.3819,4.3949,4.3949,4.4063,4.421,4.421,4.5473,4.7081,4.7081,4.8426,4.9944,4.9944,4.9944,4.9944,4.9944,4.9944,4.9944,4.9944,4.9944,4.9944,4.9944,4.9944,4.9944,4.9944,4.9944,4.9944,4.9944,5.0029,5.0067,5.0067,5.0855,5.1454,5.1511,5.2879,5.3848,5.3905,5.4589,5.4993,5.4993,5.4993,5.4993,5.4993,5.4993,5.4993,5.4993,5.4993,5.4993,5.4993,5.4993,5.4993,5.4993,5.4993,5.4993,5.4993,5.4993,5.4993,3.485,3.4909,3.5439,3.648,3.7141,3.8284,4.1154,4.0992,4.0932,4.3308,4.2686,4.2199,4.368,4.2708,4.1897,4.2368,4.4843,4.6404,4.5523,4.6434,4.7285,4.7579,4.7618,4.7618,4.7618,4.7618,4.7451,4.7014,4.5694,4.4725,4.4299,4.2948,4.28,4.4214,4.28,4.3187,4.5713,4.2635,4.2721,4.6005,4.3402,4.2049,4.1901,4.1633,4.1503,4.1678,4.4725,4.6069,4.6062,4.6087,4.586,4.5262,4.4144,4.3705,4.3705,4.3705,4.4728,4.6149,4.6149,4.7147,4.8493,4.8493,4.8844,4.9224,4.9224,4.9575,4.9944,4.9944,4.9944,4.9944,4.9944,4.9944,4.9944,4.9944,4.9944,4.9944,4.9944,4.9944,4.9944,4.9944,4.9944,4.9944,4.9944,5.0522,5.1007,5.1007,5.169,5.2468,5.3164,5.3582,5.4076,5.4703,5.4879,5.4993,5.4993,5.4993,5.4993,5.4993,5.4993,5.4993,5.4993,5.4993,5.4993,5.4993,5.4993,5.4993,5.4993,5.4993,5.4993,5.4993,5.4993,5.4993,3.5352,3.4816,3.488,3.7014,3.7524,3.8157,4.0544,4.0528,4.055,4.2372,4.1783,4.1325,4.2494,4.2979,4.3018,4.2461,4.4984,4.6734,4.5837,4.6302,4.6839,4.7058,4.7419,4.7618,4.7618,4.7618,4.7618,4.7618,4.6701,4.6158,4.6158,4.5229,4.5144,4.6135,4.5187,4.5544,4.7284,4.5295,4.521,4.7011,4.5248,4.4294,4.4081,4.3653,4.3439,4.3573,4.6275,4.7412,4.7455,4.8046,4.7674,4.6823,4.6649,4.6022,4.5279,4.6215,4.7309,4.8283,4.8283,4.9016,4.9944,4.9944,4.9944,4.9944,4.9944,4.9944,4.9944,4.9944,4.9944,4.9944,4.9944,4.9944,4.9944,4.9944,4.9944,4.9944,4.9944,4.9944,4.9944,4.9944,5.0295,5.056,5.056,5.1311,5.1861,5.1861,5.2563,5.3266,5.3772,5.4152,5.457,5.4955,5.4993,5.4993,5.4993,5.4993,5.4993,5.4993,5.4993,5.4993,5.4993,5.4993,5.4993,5.4993,5.4993,5.4993,5.4993,5.4993,5.4993,5.4993,5.4993,5.5493,3.6262,3.5208,3.4865,3.7773,3.8487,3.8741,3.9729,3.9957,4.0161,4.0875,4.0442,4.0099,4.0555,4.2626,4.4215,4.4118,4.546,4.6492,4.6455,4.6377,4.6374,4.6434,4.7137,4.7618,4.7618,4.7618,4.7618,4.7618,4.7618,4.7618,4.7618,4.7618,4.7618,4.7618,4.7618,4.7618,4.7618,4.7618,4.7451,4.7137,4.6614,4.6174,4.5771,4.5244,4.5046,4.5212,4.6748,4.7488,4.778,4.9328,4.8921,4.753,4.9291,4.8873,4.753,4.9338,4.9944,4.9944,4.9944,4.9944,4.9944,4.9944,4.9944,4.9944,4.9944,4.9944,4.9944,4.9944,4.9944,4.9944,4.9944,4.9944,4.9944,4.9944,4.9944,5.001,5.0143,5.0181,5.0219,5.0352,5.0988,5.1481,5.1481,5.2165,5.2715,5.2715,5.3487,5.4019,5.4019,5.4608,5.4993,5.4993,5.4993,5.4993,5.4993,5.4993,5.4993,5.4993,5.4993,5.4993,5.4993,5.4993,5.4993,5.4993,5.4993,5.4993,5.4993,5.4993,5.5149,5.5493,5.5493,5.664,3.7533,3.7407,3.7707,3.8339,3.8487,3.8538,3.8716,3.8766,3.8512,3.7699,3.8182,3.8772,3.8863,3.9673,4.1323,4.4419,4.4368,4.4531,4.6236,4.6087,4.5946,4.6394,4.7137,4.7618,4.7618,4.7618,4.7618,4.7618,4.7618,4.7618,4.7618,4.7618,4.7618,4.7618,4.7618,4.7618,4.7618,4.7618,4.7577,4.7535,4.7137,4.6656,4.6174,4.5771,4.573,4.6109,4.6995,4.7875,4.8661,4.9574,4.9783,4.9528,4.9831,4.9783,4.9528,4.9831,4.9944,4.9944,4.9944,4.9944,4.9944,4.9944,4.9944,4.9944,4.9944,4.9944,4.9944,4.9944,4.9944,4.9944,4.9944,4.9944,4.9944,4.9944,4.9944,5.0181,5.095,5.1102,5.1311,5.1994,5.2191,5.2317,5.2317,5.3019,5.3639,5.3639,5.4342,5.4855,5.4855,5.4917,5.4993,5.4993,5.4993,5.4993,5.4993,5.4993,5.4993,5.4993,5.4993,5.4993,5.4993,5.4993,5.4993,5.4993,5.4993,5.4993,5.4993,5.4993,5.5939,5.7675,5.7675,5.8822,3.8662,3.9671,4.0702,4.0372,3.9833,3.9449,3.9449,3.8942,3.8335,3.7801,3.7166,3.7064,3.8284,3.8749,4.0301,4.4423,4.5711,4.6574,4.7661,4.7268,4.6556,4.5828,4.6836,4.7618,4.7618,4.7618,4.7618,4.7618,4.7618,4.7618,4.7618,4.7618,4.7618,4.7618,4.7618,4.7618,4.7618,4.7618,4.7618,4.7618,4.7221,4.6908,4.6656,4.5983,4.6021,4.6629,4.7185,4.7951,4.8832,4.9631,4.9944,4.9944,4.9944,4.9944,4.9944,4.9944,4.9944,4.9944,4.9944,4.9944,4.9944,4.9944,4.9944,4.9944,4.9944,4.9944,4.9944,4.9944,4.9944,4.9944,4.9944,4.9944,5.0086,5.056,5.0722,5.095,5.1785,5.1956,5.207,5.2381,5.2886,5.3209,5.3209,5.3943,5.4494,5.4494,5.4746,5.4993,5.4993,5.4993,5.4993,5.4993,5.4993,5.4993,5.4993,5.4993,5.4993,5.4993,5.4993,5.4993,5.4993,5.4993,5.4993,5.4993,5.4993,5.5596,5.6672,5.6672,5.7827,5.9909,5.9909,6.1057,4.1012,0.0,4.3214,4.2423,4.1383,4.0542,0.0,3.9348,3.8337,3.7826,3.6785,3.6302,3.7496,3.8383,4.0087,4.3719,4.6517,4.8227,4.8467,4.8414,4.7841,4.6369,4.7385,4.8242,4.8242,4.7848,4.7618,4.7618,4.7618,4.7618,4.7618,4.7618,4.7618,4.7618,4.7618,4.7618,4.7618,4.7618,4.7618,4.7618,4.7326,4.7137,4.7011,4.6408,4.6524,4.7179,4.7579,4.8254,4.909,4.9707,4.9944,4.9944,4.9944,4.9944,4.9944,4.9944,4.9944,4.9944,4.9944,4.9944,4.9944,4.9944,4.9944,4.9944,4.9944,4.9944,4.9944,4.9944,4.9944,4.9944,4.9944,5.0124,5.0447,5.114,5.1443,5.1804,5.2639,5.281,5.2867,5.3057,5.3677,5.4114,5.4114,5.4646,5.4993,5.4993,5.4993,5.4993,5.4993,5.4993,5.4993,5.4993,5.4993,5.4993,5.4993,5.4993,5.4993,5.4993,5.4993,5.4993,5.4993,5.4993,5.4993,5.4993,5.4993,5.5784,5.7369,5.7858,5.9528,6.2168,6.2168,6.3249,0.0,4.5479,4.4556,4.3628,4.2552,4.1434,4.0466,3.9348,0.0,3.5845,3.6937,3.7674,3.5769,3.7999,4.0518,4.1815,4.4811,4.6977,4.6996,4.872,4.9846,4.9459,4.9735,4.9965,4.9965,4.8553,4.7618,4.7618,4.7618,4.7618,4.7618,4.7618,4.7618,4.7618,4.7618,4.7618,4.7618,4.7618,4.7618,4.7618,4.7618,4.7368,4.7073,4.7374,4.7718,4.8109,4.8501,4.9128,4.9897,4.9953,4.9944,4.9944,4.9944,4.9944,4.9944,4.9944,4.9944,4.9944,4.9944,4.9944,4.9944,4.9944,4.9944,4.9944,4.9944,4.9944,4.9944,4.9944,4.9944,4.9944,4.9944,5.056,5.1216,5.1292,5.188,5.2658,5.3563,5.3734,5.3962,5.4671,5.486,5.4917,5.4917,5.4955,5.4993,5.4993,5.4993,5.4993,5.4993,5.4993,5.4993,5.4993,5.4993,5.4993,5.4993,5.4993,5.4993,5.4993,5.4993,5.4993,5.4993,5.4993,5.4993,5.4993,5.4993,5.5097,5.5253,5.7164,6.0259,6.4343,6.4343,6.5428,4.743,4.6283,4.5029,4.5465,4.423,4.2577,4.1459,4.034,3.912,3.7547,3.7318,3.7347,3.7268,3.8307,3.9985,4.2475,4.5115,4.7256,4.8389,4.9474,5.01,5.0016,4.9163,4.8594,4.8594,4.8014,4.7618,4.7618,4.7618,4.7618,4.7618,4.7618,4.7618,4.7618,4.7618,4.7618,4.7618,4.7618,4.7618,4.7618,4.7618,4.7535,4.7408,4.7923,4.8296,4.8587,4.9052,4.952,0.0,4.9944,4.9944,4.9944,4.9944,4.9944,4.9944,4.9944,4.9944,4.9944,4.9944,4.9944,4.9944,4.9944,4.9944,4.9944,4.9944,4.9944,4.9944,4.9944,4.9944,4.9944,4.9944,5.0617,5.1424,5.1937,5.2696,5.3532,5.4418,5.4589,5.4684,5.4936,5.4993,5.4993,5.4993,5.4993,5.4993,5.4993,5.4993,5.4993,5.4993,5.4993,5.4993,5.4993,5.4993,5.4993,5.4993,5.4993,5.4993,5.4993,5.4993,5.5596,5.6877,5.6928,5.7573,5.8994,5.8994,5.8994,5.8994,6.1107,6.364,6.648,6.648,6.6862,4.9333,4.8309,4.72,4.7384,4.5984,4.4206,4.2679,4.1484,4.029,3.8792,3.8131,3.7977,3.8411,3.9048,4.0419,4.311,4.5727,4.7864,4.9255,5.0541,5.1207,5.0801,5.0492,4.9831,4.8532,4.7931,4.7618,4.7618,4.7618,4.7618,4.7618,4.7618,4.7889,4.8408,4.8429,4.818,4.7618,4.7618,4.7618,4.7618,4.7618,4.7779,4.808,4.8535,4.9016,4.9508,4.9777,5.0029,5.0209,5.002,4.9944,4.9944,4.9944,4.9944,4.9944,4.9944,4.9944,4.9944,4.9944,4.9944,4.9944,4.9944,4.9944,4.9944,4.9944,4.9944,4.9944,4.9944,4.9944,4.9944,4.9944,5.0807,5.1823,5.2324,5.3361,5.438,5.4879,5.4993,5.4993,5.4993,5.4993,5.4993,5.4993,5.4993,5.4993,5.4993,5.4993,5.4993,5.4993,5.4993,5.4993,5.4993,5.4993,5.5305,5.5939,5.5408,5.5596,5.6948,5.6383,5.6928,5.9074,5.9175,5.9858,6.1376,6.1426,6.1426,6.1426,6.3515,6.5284,6.6671,6.736,6.748,5.1919,5.1978,5.1516,4.9184,4.7763,4.6258,4.4078,4.2654,4.118,3.8971,3.9449,3.988,3.8716,4.0317,4.217,4.3364,4.639,4.8725,4.9135,5.2007,5.353,5.2259,5.4478,5.4558,5.0548,4.8635,4.766,4.7618,4.7618,4.7618,4.766,4.766,4.8449,5.0128,5.0147,4.9333,4.766,4.7618,4.7618,4.7618,4.7618,4.81,4.8984,4.9387,5.0083,5.093,5.0788,5.0735,5.0669,5.0209,4.9972,4.9972,4.9991,4.9944,4.9944,4.9944,4.9944,4.9944,4.9944,4.9944,4.9944,4.9944,4.9944,4.9944,4.9944,4.9944,4.9944,4.9944,4.9944,4.9944,4.9944,5.1205,5.2457,5.2457,5.3797,5.4993,5.4993,5.4993,5.4993,5.4993,5.4993,5.4993,5.4993,5.4993,5.4993,5.4993,5.4993,5.4993,5.4993,5.4993,5.4993,5.4993,5.5045,5.5887,5.796,5.6229,5.6896,6.1128,5.9356,5.9175,6.1376,6.1475,6.1475,6.1475,6.1475,6.1475,6.1497,6.3542,6.4585,6.4634,6.6719,6.7107,5.1681,5.1339,5.0734,5.0911,4.9466,4.7687,4.621,4.4408,4.2603,4.1129,4.0518,4.0135,3.9804,4.0874,4.2424,4.4328,4.6617,4.8669,5.0064,5.2299,5.3361,5.2223,5.3439,5.3276,5.0405,4.968,4.8903,4.7743,4.7618,4.8159,4.9333,5.0534,5.142,5.1919,5.0755,4.9925,4.9415,4.8242,4.7618,4.7618,4.7618,4.81,4.8984,4.976,5.042,5.0975,5.157,5.1598,5.1271,5.113,5.1056,5.0989,5.0661,5.05,5.0472,5.0114,4.9944,4.9944,4.9944,4.9944,4.9944,4.9944,4.9944,4.9944,4.9944,4.9944,4.9944,4.9944,4.9944,4.9944,4.9944,5.1205,5.2457,5.2457,5.3797,5.4993,5.4993,5.4993,5.4993,5.4993,5.4993,5.4993,5.4993,5.4993,5.4993,5.4993,5.4993,5.4993,5.4993,5.4993,5.4993,5.4993,5.7695,5.9779,6.038,5.99,6.008,6.1327,6.0829,6.1426,6.3515,6.3613,6.4294,6.5765,6.5813,6.5813,6.5813,6.641,6.6719,6.6719,6.736,6.7107,5.2946,5.2743,5.23,5.2459,5.0833,4.8776,4.7197,4.5448,4.3848,4.2729,4.1993,4.156,4.156,4.2781,4.4173,4.5353,4.768,4.974,5.1042,5.2965,5.3879,5.2832,5.4284,5.4258,5.1435,5.1839,5.1519,4.9763,4.964,5.0393,5.2158,5.3211,5.3762,5.3762,5.2754,5.1919,5.1158,5.0149,4.9272,4.8656,4.9005,4.9282,4.9529,5.0438,5.1208,5.1791,5.2145,5.2104,5.1804,5.1598,5.1505,5.1458,5.1157,5.0923,5.0669,5.0378,5.0114,4.9944,4.9944,4.9944,4.9944,4.9944,4.9944,4.9944,4.9944,4.9944,4.9944,4.9944,4.9944,4.9944,4.9944,5.0731,5.1641,5.2305,5.3532,5.4646,5.4936,5.4993,5.4993,5.4993,5.4993,5.4993,5.4993,5.4993,5.4993,5.4993,5.4993,5.5286,5.6145,5.6229,5.6589,5.7491,5.99,6.1773,6.2562,6.1921,6.2119,6.3808,6.3102,6.3591,6.5669,6.5765,6.6362,6.7596,6.7644,6.7644,6.7644,6.7644,6.7644,6.7644,6.7247,6.6663,5.4769,5.5119,5.4922,5.3759,5.1837,4.9762,4.7629,4.6182,4.4963,4.3897,4.3594,4.3571,4.3646,4.5397,4.6779,4.6612,4.9216,5.1453,5.1993,5.3831,5.4852,5.3993,5.6281,5.6625,5.3251,5.4411,5.4644,5.2816,5.2697,5.3526,5.5543,5.5658,5.5658,5.5658,5.5481,5.4605,5.2935,5.2776,5.1879,5.0412,5.133,5.1444,5.0887,5.1782,5.2697,5.3572,5.3085,5.2874,5.2808,5.237,5.2091,5.1905,5.1878,5.1438,5.0876,5.0829,5.0519,5.0114,5.0114,5.0067,5.002,5.002,5.0067,5.0114,5.0114,5.0067,5.002,5.002,4.9991,4.9944,4.9944,4.9944,5.0371,5.2013,5.3095,5.4057,5.4822,5.4993,5.4993,5.4993,5.4993,5.4993,5.4993,5.4993,5.4993,5.4993,5.5149,5.599,5.7858,5.8315,5.9377,6.1723,6.197,6.2759,6.4634,6.3053,6.3613,6.7407,6.5883,6.5669,6.7549,6.7644,6.7644,6.7644,6.7644,6.762,6.7527,6.7527,6.7457,6.7363,6.6429,6.5893,5.3299,5.3841,5.3824,5.3533,5.2485,5.1169,4.9762,4.7908,4.6156,4.4989,4.4103,4.3799,4.4609,4.5903,4.7285,4.8623,4.9978,5.1437,5.3055,5.4114,5.4959,5.5568,5.6979,5.7106,5.4993,5.5148,5.4644,5.2816,5.2697,5.4059,5.722,5.7371,5.7371,5.7371,5.6081,5.521,5.48,5.3408,5.2499,5.2141,5.3277,5.4083,5.4671,5.5678,5.662,5.7495,5.7361,5.7317,5.7317,5.7228,5.6243,5.4838,5.4407,5.3301,5.1898,5.1505,5.1271,5.1196,5.1196,5.0895,5.0547,5.0547,5.0849,5.1196,5.1196,5.0895,5.0547,5.0547,5.0284,4.9944,4.9944,4.9944,5.0238,5.1311,5.2746,5.4057,5.4822,5.4993,5.4993,5.4993,5.4993,5.4993,5.4993,5.4993,5.4993,5.4993,5.6383,5.7624,5.8062,5.9608,6.2168,6.5931,6.6314,6.6528,6.6957,6.6576,6.6719,6.7596,6.7217,6.7194,6.7596,6.7644,6.7644,6.7644,6.7644,6.7247,6.6406,6.6406,6.6055,6.5354,6.512,6.4582,5.3011,5.3436,5.3595,5.4128,5.3101,5.1728,5.1113,4.9284,4.7505,4.6924,4.6342,4.6139,4.6695,4.8141,4.9459,5.0046,5.1374,5.2746,5.3938,5.4844,5.5775,5.6873,5.7569,5.7584,5.6702,5.6625,5.6219,5.5249,5.5172,5.5989,5.7835,5.791,5.791,5.791,5.7068,5.6625,5.6625,5.5658,5.4823,5.3981,5.555,5.6098,5.587,5.7324,5.8242,5.869,5.869,5.869,5.869,5.869,5.8116,5.7049,5.5838,5.4635,5.344,5.2297,5.1738,5.1505,5.1505,5.1317,5.1157,5.1411,5.1505,5.1505,5.1505,5.1317,5.1111,5.1111,5.0755,5.0331,5.0331,5.0161,5.0086,5.0541,5.1652,5.286,5.3626,5.4424,5.4993,5.4993,5.4993,5.4993,5.4993,5.5835,5.6537,5.6537,5.8315,6.0059,6.1057,6.3102,6.5236,6.7407,6.7644,6.7644,6.7644,6.7644,6.7644,6.7644,6.7644,6.7644,6.7644,6.7177,6.692,6.692,6.6453,6.5962,6.5425,6.5425,6.5213,6.4699,6.4208,6.3694,5.3062,5.3309,5.3443,5.4626,5.3533,5.211,5.1932,5.0488,4.9114,4.8907,4.8886,4.8907,4.914,5.0605,5.1648,5.1246,5.2813,5.4233,5.4671,5.5615,5.6678,5.7788,5.791,5.791,5.791,5.791,5.791,5.791,5.791,5.791,5.791,5.791,5.791,5.791,5.791,5.791,5.791,5.791,5.722,5.5874,5.783,5.8062,5.6767,5.8788,5.9653,5.9653,5.9653,5.9653,5.9653,5.9653,5.9479,5.8997,5.7428,5.6333,5.541,5.3552,5.2622,5.2184,5.1925,5.1738,5.1738,5.2244,5.2131,5.1785,5.1785,5.1738,5.1664,5.1664,5.1271,5.0876,5.0763,5.0425,5.0067,4.9972,5.0684,5.1481,5.2165,5.3494,5.4665,5.4902,5.5054,5.5305,5.5732,5.7266,5.8498,5.8751,6.0659,6.271,6.4343,6.641,6.7738,6.7644,6.7644,6.7644,6.7644,6.7644,6.7574,6.7387,6.7387,6.7293,6.713,6.6312,6.5869,6.5869,6.512,6.4606,6.4442,6.4442,6.4349,6.4183,6.3297,6.2899,5.2656,5.2815,5.2364,5.3418,5.3468,5.3011,5.211,5.1683,5.1169,5.0142,4.9939,5.0244,5.1271,5.1421,5.1672,5.2596,5.3569,5.442,5.5048,5.6011,5.6984,5.7826,5.791,5.791,5.791,5.791,5.791,5.791,5.791,5.791,5.791,5.791,5.791,5.791,5.791,5.791,5.791,5.791,5.7835,5.7609,5.9696,6.0572,6.0421,6.2594,6.3585,6.3585,6.3585,6.3585,6.3585,6.3585,6.2588,6.102,6.0761,5.9653,5.7983,5.6039,5.5292,5.4974,5.3434,5.2549,5.227,5.2808,5.29,5.2854,5.2854,5.2549,5.2197,5.2197,5.1804,5.1317,5.0876,5.0688,5.05,5.0067,5.0684,5.133,5.1424,5.2184,5.3207,5.4418,5.5219,5.6422,5.868,5.9315,5.9967,6.1454,6.3422,6.4708,6.4537,6.6743,6.8139,6.7691,6.7644,6.7644,6.7644,6.7644,6.727,6.6382,6.6336,6.5939,6.5143,6.498,6.491,6.491,6.4769,6.4255,6.339,6.339,6.2943,6.2008,6.1867,6.1821,5.1386,5.2174,5.2739,5.2612,5.3011,5.3341,5.2859,5.2338,5.1728,5.1214,5.1138,5.1322,5.1779,5.2231,5.2581,5.2726,5.4002,5.4987,5.491,5.6323,5.7535,5.7875,5.791,5.791,5.791,5.791,5.791,5.791,5.791,5.791,5.791,5.791,5.791,5.791,5.791,5.791,5.791,5.791,5.791,5.7935,5.9448,6.0473,6.1098,6.2645,6.3735,6.4346,6.4346,6.4346,6.4346,6.4346,6.3861,6.297,6.1883,6.0957,6.0025,5.8116,5.6713,5.5654,5.4859,5.5177,5.5904,5.6174,5.5519,5.4585,5.4585,5.3756,5.2735,5.2735,5.2363,5.1898,5.1664,5.1411,5.113,5.0915,5.1157,5.1563,5.1978,5.2364,5.2914,5.4061,5.4985,5.631,5.8625,6.0408,6.2202,6.4104,6.6196,6.6989,6.557,6.6375,6.7017,6.6765,6.6765,6.6765,6.6765,6.6765,6.6576,6.6126,6.6103,6.5914,6.5509,6.4917,6.461,6.461,6.3778,6.3086,6.2639,6.2399,6.2054,6.163,6.163,6.163,5.0666,5.159,5.2504,5.2008,5.2485,5.3138,5.3385,5.3094,5.2853,5.3133,5.3177,5.3177,5.3177,5.3447,5.3532,5.3095,5.443,5.5333,5.4853,5.6666,5.8061,5.7948,5.791,5.791,5.791,5.791,5.791,5.791,5.791,5.791,5.791,5.791,5.791,5.791,5.791,5.791,5.791,5.791,5.791,5.7935,5.897,5.9872,6.0692,6.201,6.3084,6.3931,6.4224,6.4346,6.4346,6.4346,6.4346,6.4196,6.2758,6.2181,6.1968,6.0112,5.8469,5.725,5.725,5.785,5.869,5.869,5.7717,5.6444,5.5971,5.5156,5.4332,5.3342,5.348,5.3802,5.3157,5.3091,5.3097,5.2979,5.2958,5.2954,5.3052,5.3049,5.3231,5.3606,5.436,5.5494,5.726,6.0361,6.3302,6.5253,6.7246,6.7992,6.6412,6.6265,6.622,6.6111,6.6111,6.6111,6.6111,6.6111,6.5991,6.5728,6.5704,6.5585,6.5322,6.4558,6.4151,6.4151,6.3021,6.2404,6.2404,6.2124,6.1996,6.1996,6.1996,6.1996,5.1161,5.1087,5.0574,5.1627,5.1932,5.2237,5.324,5.4288,5.5338,5.6456,5.6685,5.6685,5.6685,5.5304,5.4253,5.4489,5.4902,5.5217,5.516,5.7068,5.8336,5.7948,5.791,5.791,5.791,5.791,5.791,5.791,5.791,5.791,5.791,5.791,5.791,5.791,5.791,5.791,5.791,5.791,5.791,5.7935,5.897,5.9507,5.9629,6.1653,6.2604,6.2767,6.3857,6.4346,6.4346,6.4346,6.4346,6.4321,6.4238,6.4196,6.3945,6.2011,6.1216,6.113,6.113,6.0068,5.869,5.869,5.8645,5.8204,5.6354,5.7026,5.7673,5.4103,5.5654,5.7828,5.5455,5.6245,5.7452,5.6984,5.685,5.6358,5.4569,5.4158,5.3868,5.2925,5.3285,5.3985,5.4839,5.8722,6.2234,6.3791,6.5622,6.676,6.664,6.664,6.6507,6.6155,6.6111,6.6111,6.6111,6.6111,6.5681,6.4677,6.4605,6.4175,6.3172,6.3076,6.3052,6.3052,6.3005,6.2938,6.2938,6.2914,6.2872,6.2872,6.2872,6.2872,4.811,4.8817,4.9263,4.9644,5.0279,5.1087,5.218,5.2771,5.3381,5.4491,5.5304,5.5821,5.5821,5.5289,5.4481,5.3403,5.4479,5.5298,5.4888,5.6739,5.8098,5.7948,5.791,5.791,5.791,5.791,5.791,5.791,5.791,5.791,5.791,5.791,5.791,5.791,5.791,5.791,5.791,5.791,5.791,5.791,5.8301,5.8838,5.9507,6.0238,6.0985,6.1644,6.2742,6.3206,6.3279,6.4028,6.4346,6.4346,6.4346,6.4346,6.4262,6.3543,6.2479,6.1602,6.2843,6.2885,6.2309,6.2309,6.1474,6.0329,5.9632,5.9085,5.8425,5.7049,5.7673,5.8513,5.7606,5.7917,5.8381,5.8226,5.8138,5.7939,5.7273,5.7095,5.7025,5.6604,5.6735,5.7126,5.793,6.0541,6.3316,6.5807,6.5632,6.5171,6.5171,6.5171,6.5129,6.4982,6.4982,6.4982,6.4982,6.4982,6.4812,6.4449,6.44,6.4231,6.3843,6.3843,6.3843,6.3843,6.3525,6.3356,6.3356,6.3084,6.2981,6.2981,6.2981,6.2981,4.6124,4.6882,4.7377,4.7847,4.8198,4.8949,5.0859,5.1601,5.2313,5.3755,5.4974,5.5795,5.5795,5.5567,5.5001,5.3793,5.4556,5.5087,5.4676,5.6202,5.7495,5.7899,5.791,5.791,5.791,5.791,5.791,5.791,5.791,5.791,5.791,5.791,5.791,5.791,5.791,5.791,5.791,5.791,5.791,5.791,5.791,5.8276,5.8984,5.9312,5.9848,6.057,6.162,6.2083,6.2132,6.293,6.3247,6.3271,6.3638,6.376,6.3809,6.4199,6.3042,6.1476,6.2811,6.3467,6.376,6.376,6.3145,6.2267,6.1602,6.102,6.0306,5.9041,5.961,6.0459,5.9784,6.0089,6.0632,6.0632,6.0632,6.0392,5.9741,5.961,5.9435,5.8821,5.869,5.8846,5.9382,6.0651,6.2403,6.5043,6.4222,6.3585,6.4262,6.4346,6.4346,6.4346,6.4346,6.4346,6.4346,6.4346,6.4346,6.4346,6.4346,6.4346,6.4346,6.4346,6.4346,6.4346,6.3987,6.3819,6.3819,6.3591,6.3422,6.3422,6.3422,6.3422,4.5527,4.5238,4.4871,4.6154,4.5723,4.5854,4.9207,5.0864,5.2325,5.4532,5.5948,5.6787,5.6761,5.6191,5.5753,5.5669,5.5062,5.4591,5.464,5.5531,5.6604,5.7715,5.7886,5.791,5.791,5.791,5.791,5.791,5.791,5.791,5.791,5.791,5.791,5.791,5.791,5.791,5.791,5.791,5.791,5.791,5.791,5.791,5.7959,5.8984,5.9433,5.9482,6.0522,6.1,6.1,6.101,6.1049,6.1107,6.2157,6.2571,6.2693,6.3833,6.2881,6.1049,6.1049,6.1693,6.2571,6.2571,6.3304,6.389,6.2002,6.2771,6.3536,5.9869,6.1493,6.3903,6.2011,6.2928,6.4346,6.4346,6.4346,6.3819,6.1925,6.1516,6.1,5.9216,5.8865,5.8865,5.8865,5.8865,5.9479,6.1259,6.1516,6.2181,6.4071,6.4346,6.4346,6.4346,6.4346,6.4346,6.4346,6.4346,6.4346,6.4346,6.4346,6.4346,6.4346,6.4346,6.4321,6.4297,6.4297,6.4273,6.4248,6.4248,6.4248,6.4248,6.4248,6.4248,4.1325,4.1162,4.1352,4.2559,4.2627,4.3107,4.5624,4.6454,4.7141,4.8817,5.1372,5.3025,5.2205,5.364,5.4596,5.3585,5.3691,5.4075,5.4578,5.5531,5.6312,5.6629,5.7398,5.791,5.791,5.791,5.791,5.791,5.791,5.791,5.791,5.791,5.791,5.791,5.791,5.791,5.791,5.791,5.791,5.791,5.791,5.791,5.7935,5.8203,5.835,5.8398,5.9472,5.9936,5.9985,6.0717,6.1049,6.1034,6.1327,6.1473,6.1498,6.1855,6.1586,6.1049,6.1049,6.1205,6.1473,6.1473,6.1668,6.1832,6.1323,6.2043,6.2879,6.1815,6.2873,6.422,6.3669,6.3945,6.4346,6.4346,6.4346,6.4196,6.3669,6.3543,6.3374,6.2885,6.28,6.28,6.28,6.28,6.297,6.3458,6.3543,6.3735,6.4262,6.4346,6.4346,6.4346,6.4346,6.4346,6.4346,6.4346,6.4346,6.4346,6.4346,6.4346,6.4346,6.4346,6.3955,6.3108,6.3084,6.2693,6.1953,6.1953,6.1953,6.1953,6.1953,6.1953,3.9082,3.9113,3.9543,4.0785,4.0819,4.1003,4.29,4.3326,4.3754,4.5179,4.7378,4.9284,5.0015,5.1427,5.2641,5.3145,5.3422,5.3688,5.3954,5.4884,5.5702,5.6105,5.6775,5.7203,5.7203,5.7642,5.791,5.791,5.791,5.791,5.791,5.791,5.791,5.791,5.791,5.791,5.791,5.791,5.791,5.791,5.791,5.791,5.791,5.791,5.791,5.7959,5.8569,5.8838,5.8886,5.9472,5.9716,5.9765,6.0204,6.0399,6.0326,5.9887,5.9716,5.9716,5.9716,6.0009,6.0399,6.0399,6.0668,6.1049,6.1049,6.1449,6.1937,6.1937,6.2425,6.2954,6.2954,6.3296,6.3596,6.3596,6.4004,6.4346,6.4346,6.4346,6.4346,6.4346,6.4346,6.4346,6.4346,6.4346,6.4346,6.4346,6.4346,6.4346,6.4346,6.4346,6.4346,6.4346,6.4346,6.4151,6.3645,6.3596,6.3442,6.2978,6.2954,6.2954,6.2954,6.2954,6.262,6.1961,6.1937,6.1644,6.1049,6.1049,6.1049,6.1049,6.1049,6.0889,3.7855,3.795,3.8341,3.9513,3.9197,3.8981,0.0,4.0898,4.1326,4.2757,4.3984,4.5693,4.8639,4.9155,5.0132,5.3045,5.3174,5.2907,5.2913,5.3821,5.4811,5.5727,5.5848,5.5861,5.5958,5.7056,5.7715,5.7715,5.7837,5.791,5.791,5.791,5.791,5.791,5.791,5.791,5.791,5.791,5.791,5.791,5.791,5.791,5.791,5.791,5.791,5.791,5.791,5.791,5.791,5.791,5.791,5.8008,5.8921,5.9287,5.919,5.8276,5.791,5.791,5.791,5.8545,5.9287,5.9287,5.9936,6.0668,6.0668,6.0741,6.0839,6.0839,6.0936,6.1049,6.1049,6.1717,6.2409,6.2409,6.3206,6.398,6.398,6.4077,6.4151,6.4151,6.4248,6.4346,6.4346,6.4346,6.4248,6.4004,6.398,6.398,6.398,6.398,6.398,6.398,6.398,6.3523,6.2523,6.2409,6.2035,6.1083,6.1049,6.1049,6.1049,6.1049,6.0961,6.0839,6.0839,6.079,6.0668,6.0668,6.0668,6.0668,6.0668,6.0406,0.0,0.0,0.0,0.0,0.0,0.0,0.0,3.7793,3.8228,3.9764,4.167,4.3066,4.3096,4.5026,4.7179,4.8925,4.9404,5.0146,5.1893,5.2869,5.3455,5.3674,5.3664,5.3981,5.4824,5.5873,5.6507,5.6507,5.7398,5.791,5.791,5.791,5.791,5.791,5.791,5.791,5.791,5.791,5.791,5.791,5.791,5.791,5.791,5.791,5.791,5.791,5.791,5.791,5.791,5.791,5.791,5.7935,5.813,5.8228,5.8203,5.7984,5.791,5.791,5.791,5.8057,5.8228,5.8228,5.835,5.852,5.852,5.913,5.9814,5.9814,6.0399,6.1049,6.1049,6.118,6.1367,6.1367,6.1498,6.1684,6.1684,6.2327,6.2937,6.2937,6.3711,6.4346,6.4346,6.4346,6.3735,6.1953,6.1684,6.1684,6.1684,6.1684,6.1684,6.1684,6.1684,6.1571,6.1351,6.1367,6.1229,6.1074,6.1049,6.1049,6.1049,6.1049,6.0644,5.9775,5.9814,5.9375,5.852,5.852,5.852,5.852,5.852,5.8623,0.0,0.0,0.0,0.0,0.0,0.0,0.0,0.0,0.0,0.0,0.0,3.9689,4.1627,0.0,4.4328,4.6416,4.7621,4.8716,4.9903,5.1432,5.2207,5.1477,5.1941,5.2673,5.3737,5.4811,5.5629,5.6141,5.6726,5.7325,5.7886,5.791,5.791,5.791,5.791,5.791,5.791,5.791,5.791,5.791,5.791,5.791,5.791,5.791,5.791,5.791,5.791,5.791,5.791,5.791,5.791,5.791,5.791,5.791,5.791,5.791,5.791,5.791,5.791,5.791,5.791,5.791,5.791,5.791,5.791,5.8276,5.8716,5.8716,5.9082,5.9472,5.9472,5.9863,6.0253,6.0253,6.0644,6.1049,6.1049,6.1424,6.1815,6.1815,6.2279,6.2685,6.2685,6.2685,6.2319,6.122,6.1049,6.1049,6.1049,6.1049,6.1049,6.1049,6.1049,6.1049,6.1049,6.0546,6.0253,6.0253,5.9765,5.9472,5.9472,5.9472,5.9228,5.874,5.8117,5.758,5.7043,5.6519,5.6275,5.6287,5.5795,5.644,0.0,0.0,0.0,0.0,0.0,0.0,0.0,0.0,0.0,0.0,0.0,0.0,0.0,0.0,0.0,4.4223,4.5796,4.6939,4.7663,4.9286,5.0112,4.9326,5.0215,5.1257,5.2331,5.3371,5.4445,5.5483,5.5775,5.6361,5.752,5.7593,5.7691,5.791,5.791,5.791,5.791,5.791,5.791,5.791,5.791,0.0,5.791,5.791,5.791,5.791,5.791,5.791,5.791,5.791,5.791,5.791,5.791,5.791,5.791,5.791,5.791,5.791,5.791,5.791,5.791,5.791,5.791,5.791,5.791,5.791,0.0,5.791,5.791,5.791,5.791,5.8545,5.9165,5.9165,5.9838,6.0463,6.0463,6.057,6.0741,6.0741,6.0888,6.1049,6.1049,6.0692,6.0463,6.0463,6.0463,6.0463,6.0463,6.0463,6.0463,6.0463,6.0463,6.0463,6.0463,5.9667,5.9165,5.9165,5.8398,5.791,5.791,5.791,5.7813,5.7593,5.6653,5.6056,5.5861,5.4835,5.4323,5.4285,5.29,5.371,0.0,0.0,0.0,0.0,0.0,0.0,0.0,0.0,0.0,0.0,0.0,0.0,0.0,0.0,0.0,0.0,4.194,4.2954,4.574,4.5488,4.5571,4.7152,4.8054,4.8971,5.0028,5.1159,5.2292,5.3357,5.4274,5.5263,5.6336,5.6385,0.0,0.0,0.0,5.791,5.791,5.791,5.791,5.791,5.791,5.791,5.791,5.791,5.791,5.791,5.791,5.791,5.791,5.791,5.791,5.791,5.791,5.791,5.791,5.791,5.791,5.791,5.791,0.0,0.0,5.791,5.791,5.791,5.791,5.791,5.791,5.791,5.791,5.791,5.791,5.8008,5.8081,5.8081,5.8217,5.8252,5.8252,5.9008,5.9653,5.9653,6.0399,6.1049,6.1049,5.9472,5.8252,5.8252,5.8252,5.8252,5.8252,5.8252,5.8252,5.8252,5.8252,0.0,5.8252,5.8154,5.8081,5.8081,5.7984,5.791,5.791,5.791,5.7447,5.6409,5.6226,5.5727,5.4811,5.3737,5.3235,5.3172,5.0035,5.0035,0.0,0.0,0.0,0.0,0.0,0.0,0.0,0.0,0.0,0.0,0.0,0.0,0.0,0.0,0.0,0.0,3.9211,4.0909,4.268,4.2114,4.272,4.5971,4.6463,4.7185,4.8931,4.9392,5.0003,5.1086,5.2185,5.3284,5.4323,5.4946,5.5483,5.5982,5.658,5.6897,5.6897,5.7593,5.791,5.791,5.791,5.791,5.791,5.791,5.791,5.791,5.791,5.791,5.791,5.791,5.791,5.791,0.0,0.0,0.0,0.0,5.791,5.791,5.791,5.791,5.791,5.791,5.791,5.791,5.791,5.791,5.791,5.791,5.791,5.791,5.791,5.791,5.791,5.791,5.791,5.791,5.791,5.8276,5.8594,5.8594,5.8935,0.0,5.9228,5.8534,5.791,5.791,5.791,5.791,5.791,5.791,5.791,5.791,5.791,5.791,5.791,5.791,0.0,0.0,0.0,5.791,5.791,5.791,0.0,0.0,0.0,5.2931,5.181,5.0691,0.0,0.0,4.4923,4.5181,0.0,0.0,0.0,0.0,0.0,0.0,0.0,0.0,0.0,0.0,0.0,0.0,0.0,0.0,0.0,0.0,3.6855,3.847,3.9265,3.9211,4.0522,4.4455,4.4336,4.4978,4.7534,4.7239,4.7343,4.8494,4.9587,5.0622,5.1663,5.2712,5.3566,5.4177,5.4922,5.5458,5.5751,5.6592,5.7007,5.7007,5.7007,5.7178,5.7447,5.7447,5.7617,5.791,5.791,5.791,5.791,5.791,5.791,5.7861,5.7251,5.7007,5.7007,5.7007,5.7007,5.7007,5.7007,5.7007,5.7007,5.7007,5.7007,5.7007,5.7007,5.7007,5.7007,5.7007,5.7227,5.7447,5.7447,5.7691,5.791,5.791,5.791,5.791,5.791,5.791,5.791,5.791,5.7666,5.7373,5.7056,5.7251,5.7447,5.7447,5.7715,5.791,5.791,5.791,5.791,5.791,5.791,5.791,5.791,5.791,5.791,5.791,5.791,5.7788,5.7471,5.7447,5.6422,5.4225,5.155,4.9567,0.0,0.0,0.0,0.0,0.0,0.0,0.0,0.0,0.0,0.0,0.0,0.0,0.0,0.0,0.0,0.0,0.0,0.0,0.0,0.0,0.0,0.0,0.0,0.0,3.5625,3.6817,3.8797,4.2113,4.1355,4.1943,4.5422,4.4386,4.409,4.5507,4.6376,4.727,4.8313,4.9345,5.0882,5.304,5.3137,5.3674,5.4665,5.4713,5.4738,5.4738,5.4738,5.5275,5.6239,5.6239,5.6848,5.791,5.791,5.791,5.791,5.791,5.791,5.7691,5.5568,5.4738,5.4738,5.4738,5.4738,5.4738,5.4738,5.4738,5.4738,5.4738,5.4738,5.4738,5.4738,5.4738,5.4738,5.4738,5.5458,5.6239,5.6239,5.7043,5.791,5.791,5.791,5.791,5.791,5.791,5.791,5.791,5.6995,5.5922,5.4909,5.5556,5.6239,5.6239,5.7203,0.0,5.791,5.791,5.791,5.791,5.791,5.791,5.791,5.791,5.791,5.791,5.791,5.7422,5.6251,5.6239,5.5239,5.3162,4.8986,4.6153,4.4855,0.0,0.0,0.0,0.0,0.0,0.0,0.0,0.0,0.0,0.0,0.0,0.0,0.0,0.0,0.0,0.0,0.0,0.0,0.0,0.0,0.0,0.0,0.0,0.0,3.5895,3.6907,4.0885,4.0354,4.0645,4.3128,4.2016,4.1431,4.2092,4.2941,4.367,4.4175,4.5694,4.7239,4.8759,4.9627,5.0509,5.1394,5.304,5.3775,5.3566,5.4299,5.4775,5.5141,5.5141,5.5336,5.5738,5.5738,5.5738,5.5738,5.5738,5.5051,5.383,5.2888,5.2585,5.2585,5.2585,5.2585,5.2585,5.2585,5.2688,5.2833,5.2833,5.2833,5.2799,5.2619,5.2585,5.2585,5.2585,5.3333,5.4103,5.4103,5.5446,5.6751,5.6751,5.7373,5.791,5.791,5.791,5.7691,5.6897,5.4904,5.3216,5.2848,5.3534,5.4174,5.4349,5.5138,5.6007,5.6678,5.6751,5.7043,5.7837,5.791,5.791,5.791,5.791,5.791,5.791,5.7203,5.6604,5.6214,5.4849,5.3078,5.0939,4.7313,4.4842,4.3546,0.0,0.0,0.0,0.0,0.0,0.0,0.0,0.0,0.0,0.0,0.0,0.0,0.0,0.0,0.0,0.0,0.0,0.0,0.0,0.0,0.0,0.0,0.0,0.0,0.0,0.0,3.9433,3.8483,0.0,4.1362,4.0325,3.959,3.9844,4.0693,4.1105,4.1027,4.238,4.3759,4.5024,4.5857,4.6944,4.8207,5.0285,5.1196,5.0925,5.1978,5.2688,5.3114,5.3114,5.3368,5.3781,5.3781,5.3781,5.3658,5.2136,5.0826,4.9729,4.9571,4.9532,4.9532,4.9532,4.9468,4.9373,4.9373,4.9443,4.9602,4.9602,4.9666,4.9729,4.9539,4.9532,4.95,4.9404,5.0394,5.1455,5.1355,5.32,5.5068,5.5068,5.5934,5.6739,5.6739,5.6556,5.5725,5.3702,5.1528,4.9942,4.9676,5.0672,5.153,5.1696,5.3158,5.4404,5.5006,5.5727,5.6483,5.7251,5.7666,5.791,5.791,5.791,5.7739,5.7349,5.6604,5.5678,5.4567,5.2844,5.0524,4.7539,4.506,4.2562,0.0,0.0,0.0,0.0,0.0,0.0,0.0,0.0,0.0,0.0,0.0,0.0,0.0,0.0,0.0,0.0,0.0,0.0,0.0,0.0,0.0,0.0,0.0,0.0,0.0,0.0,0.0,3.7525,3.5735,0.0,0.0,0.0,0.0,3.8563,3.9354,3.947,3.8728,3.9486,4.0578,4.1968,4.2046,4.3084,4.5249,4.6571,4.7111,4.6886,4.7957,4.9067,5.0184,5.0184,5.0905,5.215,5.21,5.2018,5.1728,4.7365,4.5552,4.5552,4.5524,4.5549,4.5549,4.5549,4.5377,4.5171,4.5146,4.5146,4.5175,4.5175,4.5348,4.5524,4.5577,4.5524,0.0,0.0,4.6665,4.8246,4.7991,5.0378,5.282,5.282,5.3664,5.4469,5.4469,5.3859,5.2194,4.8627,4.7032,4.6053,4.5315,0.0,4.8296,4.8284,5.1065,5.3113,5.2927,5.4738,5.6056,5.6153,5.7251,5.7886,5.7837,5.7813,5.7349,5.619,5.6019,5.4591,5.1535,5.0158,4.7465,4.3292,4.2032,0.0,0.0,0.0,0.0,0.0,0.0,0.0,0.0,0.0,0.0,0.0,0.0,0.0,0.0,0.0,0.0,0.0,0.0,0.0,0.0,0.0,0.0,0.0,0.0,0.0,0.0,2.9741,3.1054,3.364,3.3694,3.4158,0.0,0.0,0.0,0.0,0.0,0.0,3.6143,3.7893,3.9147,3.9704,3.9921,4.0649,4.2006,4.3394,4.4366,4.4885,4.603,4.7146,4.8183,4.8183,4.884,4.9933,4.9019,4.8672,4.8274,4.3327,4.1255,4.1229,4.1022,4.0944,4.0944,4.0944,4.0917,4.0814,4.0634,4.0687,4.0868,4.0868,4.0894,4.0997,4.1178,0.0,0.0,0.0,0.0,4.4054,4.3801,4.6712,4.9667,4.9499,5.0906,5.2316,5.2316,5.147,4.9365,4.4908,4.2632,4.1399,4.1176,4.2787,0.0,4.4391,4.6829,4.9212,5.0737,5.2619,5.4469,5.6019,5.7251,5.7569,5.6702,5.6629,5.6165,5.5068,5.3577,5.1941,5.028,4.6855,4.3788,4.1209,0.0,0.0,0.0,0.0,0.0,0.0,0.0,0.0,0.0,0.0,0.0,0.0,0.0,0.0,0.0,0.0,0.0,0.0,0.0,0.0,0.0,0.0,0.0,0.0,0.0,0.0,0.0,2.6772,2.8594,3.0585,3.0855,3.1361,0.0,0.0,0.0,0.0,0.0,0.0,0.0,0.0,0.0,3.7243,3.747,3.8312,3.9956,4.0991,4.1661,4.1992,4.2786,4.3723,4.4796,4.4796,4.5481,4.6633,4.5468,4.4608,4.3745,3.9968,3.8616,3.8919,0.0,0.0,0.0,0.0,3.8337,3.8502,3.7957,3.8123,3.8472,3.7594,0.0,0.0,0.0,0.0,0.0,0.0,0.0,4.0398,4.0269,4.2604,4.5125,4.5641,4.7042,4.8425,4.8924,4.7175,4.4719,4.1992,4.0216,3.9192,3.9285,4.0304,0.0,0.0,0.0,4.5967,4.7871,5.0263,5.2546,5.4616,5.5812,5.6397,5.6214,5.5336,5.4372,5.3333,5.1257,4.9101,4.7051,4.3756,4.0721,0.0,0.0,0.0,0.0,0.0,0.0,0.0,0.0,0.0,0.0,0.0,0.0,0.0,0.0,0.0,0.0,0.0,0.0,0.0,0.0,0.0,0.0,0.0,0.0,0.0,0.0,0.0,0.0,0.0,2.5733,2.7753,0.0,0.0,0.0,0.0,0.0,0.0,0.0,0.0,0.0,0.0,0.0,0.0,0.0,3.5837,3.7929,3.8717,3.9084,3.9021,3.9401,4.0215,4.1333,4.1333,4.2018,4.3166,4.1632,0.0,3.8811,3.6926,0.0,0.0,0.0,0.0,0.0,0.0,0.0,0.0,0.0,0.0,0.0,0.0,0.0,0.0,0.0,0.0,0.0,0.0,0.0,0.0,0.0,0.0,4.037,4.1771,4.2868,4.3895,4.4794,4.2079,3.9468,3.9468,3.8468,3.7761,0.0,0.0,0.0,0.0,0.0,0.0,4.5037,4.7976,5.0705,5.2659,5.3908,5.4922,5.5702,5.3981,5.2331,5.1168,4.8856,4.6166,4.3097,4.0634,0.0,0.0,0.0,0.0,0.0,0.0,0.0,0.0,0.0,0.0,0.0,0.0,0.0,0.0,0.0,0.0,0.0,0.0,0.0,0.0,0.0,0.0,0.0,0.0,0.0,0.0,0.0,0.0,0.0,0.0,0.0,0.0,0.0,0.0,0.0,0.0,0.0,0.0,0.0,0.0,0.0,0.0,0.0,0.0,0.0,0.0,0.0,0.0,0.0,0.0,3.8798,3.9891,4.0929,4.0929,4.1228,4.1583,3.8117,3.6169,3.5192,3.3545,0.0,0.0,0.0,0.0,0.0,0.0,0.0,0.0,0.0,0.0,0.0,0.0,0.0,0.0,0.0,0.0,0.0,0.0,0.0,0.0,0.0,0.0,3.8129,3.928,4.0332,4.0956,4.0499,0.0,0.0,0.0,0.0,0.0,0.0,0.0,0.0,0.0,0.0,0.0,4.3775,4.6881,4.9608,5.1568,5.3504,5.4347,5.3664,5.2478,5.0915,4.8898,4.5874,4.317,0.0,0.0,0.0,0.0,0.0,0.0,0.0,0.0,0.0,0.0,0.0,0.0,0.0,0.0,0.0,0.0,0.0,0.0,0.0,0.0,0.0,0.0,0.0,0.0,0.0,0.0,0.0,0.0,0.0,0.0,0.0,0.0,0.0,0.0,0.0,0.0,0.0,0.0,0.0,0.0,0.0,0.0,0.0,0.0,0.0,0.0,0.0,0.0,0.0,0.0,0.0,0.0,0.0,0.0,0.0,0.0,0.0,0.0,3.5953,3.377,0.0,0.0,0.0,0.0,0.0,0.0,0.0,0.0,0.0,0.0,0.0,0.0,0.0,0.0,0.0,0.0,0.0,0.0,0.0,0.0,0.0,0.0,0.0,0.0,0.0,0.0,0.0,0.0,0.0,0.0,0.0,0.0,0.0,0.0,0.0,0.0,0.0,0.0,0.0,0.0,4.2805,4.5618,4.827,5.0655,5.2275,5.2942,5.2316,5.0231,4.8027,4.5825,4.2606,0.0,0.0,0.0,0.0,0.0,0.0,0.0,0.0,0.0,0.0,0.0,0.0,0.0,0.0,0.0,0.0,0.0,0.0,0.0,0.0,0.0,0.0,0.0,0.0,0.0,0.0,0.0,0.0,0.0,0.0,0.0,0.0,0.0,0.0,0.0,0.0,0.0,0.0,0.0,0.0,0.0,0.0,0.0,0.0,0.0,0.0,0.0,0.0,0.0,0.0,0.0,0.0,0.0,0.0,0.0,0.0,0.0,0.0,0.0,3.3541,3.1612,0.0,0.0,0.0,0.0,0.0,0.0,0.0,0.0,0.0,0.0,0.0,0.0,0.0,0.0,0.0,0.0,0.0,0.0,0.0,0.0,0.0,0.0,0.0,0.0,0.0,0.0,0.0,0.0,0.0,0.0,0.0,0.0,0.0,0.0,0.0,0.0,0.0,0.0,0.0,0.0,4.1716,4.4133,4.6652,4.9446,5.0596,5.1229,5.1252,4.8211,4.5367,4.3226,4.0051,0.0,0.0,0.0,0.0,0.0,0.0,0.0,0.0,0.0,0.0,0.0,0.0,0.0,0.0,0.0,0.0,0.0,0.0,0.0,0.0,0.0,0.0,0.0,0.0,0.0,0.0,0.0,0.0,0.0,0.0,0.0,0.0,0.0,0.0,0.0,0.0,0.0,0.0,0.0,0.0,0.0,0.0,0.0,0.0,0.0,0.0,0.0,0.0,0.0,0.0,0.0,0.0,0.0,0.0,0.0,0.0,0.0,0.0,0.0,0.0,0.0,0.0,0.0,0.0,0.0,0.0,0.0,0.0,0.0,0.0,0.0,0.0,0.0,0.0,0.0,0.0,0.0,0.0,0.0,0.0,0.0,0.0,0.0,0.0,0.0,0.0,0.0,0.0,0.0,0.0,0.0,0.0,0.0,0.0,0.0,0.0,0.0,0.0,0.0,0.0,0.0,4.0204,4.219,4.4405,4.738,4.8414,4.9317,5.0366,4.713,4.4277,4.2421,0.0,0.0,0.0,0.0,0.0,0.0,0.0,0.0,0.0,0.0,0.0,0.0,0.0,0.0,0.0,0.0,0.0,0.0,0.0,0.0,0.0,0.0,0.0,0.0,0.0,0.0,0.0,0.0,0.0,0.0,0.0,0.0,0.0,0.0,0.0,0.0,0.0,0.0,0.0,0.0,0.0,0.0,0.0,0.0,0.0,0.0,0.0,0.0,0.0,0.0,0.0,0.0,0.0,0.0,0.0,0.0,0.0,0.0,0.0,0.0,0.0,0.0,0.0,0.0,0.0,0.0,0.0,0.0,0.0,0.0,0.0,0.0,0.0,0.0,0.0,0.0,0.0,0.0,0.0,0.0,0.0,0.0,0.0,0.0,0.0,0.0,0.0,0.0,0.0,0.0,0.0,0.0,0.0,0.0,0.0,0.0,0.0,0.0,0.0,0.0,0.0,0.0,4.0233,4.2228,4.4431,4.7487,4.8636,4.897,4.8414,4.5228,4.2316,4.0102,0.0,0.0,0.0,0.0,0.0,0.0,0.0,0.0,0.0,0.0,0.0,0.0,0.0,0.0,0.0,0.0,0.0,0.0,0.0,0.0,0.0,0.0,0.0,0.0,0.0,0.0,0.0,0.0,0.0,0.0,0.0,0.0,0.0,0.0,0.0,0.0,0.0,0.0,0.0,0.0,0.0,0.0,0.0,0.0,0.0,0.0,0.0,0.0,0.0,0.0,0.0,0.0,0.0,0.0,0.0,0.0,0.0,0.0,0.0,0.0,0.0,0.0,0.0,0.0,0.0,0.0,0.0,0.0,0.0,0.0,0.0,0.0,0.0,0.0,0.0,0.0,0.0,0.0,0.0,0.0,0.0,0.0,0.0,0.0,0.0,0.0,0.0,0.0,0.0,0.0,0.0,0.0,0.0,0.0,0.0,0.0,0.0,0.0,0.0,0.0,0.0,0.0,3.986,4.1666,4.3716,4.6828,4.8049,4.8167,4.6953,4.3707,4.0849,3.8845,0.0,0.0,0.0,0.0,0.0,0.0,0.0,0.0,0.0,0.0,0.0,0.0,0.0,0.0,0.0,0.0,0.0,0.0,0.0,0.0,0.0,0.0,0.0,0.0,0.0,0.0,0.0,0.0,0.0,0.0,0.0,0.0,0.0,0.0,0.0,0.0,0.0,0.0,0.0,0.0,0.0,0.0,0.0,0.0,0.0,0.0,0.0,0.0,0.0,0.0,0.0,0.0,0.0,0.0,0.0,0.0,0.0,0.0,0.0,0.0,0.0,0.0,0.0,0.0,0.0,0.0,0.0,0.0,0.0,0.0,0.0,0.0,0.0,0.0,0.0,0.0,0.0,0.0,0.0,0.0,0.0,0.0,0.0,0.0,0.0,0.0,0.0,0.0,0.0,0.0,0.0,0.0,0.0,0.0,0.0,0.0,0.0,0.0,0.0,0.0,0.0,0.0,3.8657,3.9877,4.1509,4.4785,4.5954,4.6465,4.6465,4.2889,4.0227,0.0,0.0,0.0,0.0,0.0,0.0,0.0,0.0,0.0,0.0,0.0,0.0,0.0,0.0,0.0,0.0,0.0,0.0,0.0,0.0,0.0,0.0,0.0,0.0,0.0,0.0,0.0,0.0,0.0,0.0,0.0,0.0,0.0,0.0,0.0,0.0,0.0,0.0,0.0,0.0,0.0,0.0,0.0,0.0,0.0,0.0,0.0,0.0,0.0,0.0,0.0,0.0,0.0,0.0,0.0,0.0,0.0,0.0,0.0,0.0,0.0,0.0,0.0,0.0,0.0,0.0,0.0,0.0,0.0,0.0,0.0,0.0,0.0,0.0,0.0,0.0,0.0,0.0,0.0,0.0,0.0,0.0,0.0,0.0,0.0,0.0,0.0,0.0,0.0,0.0,0.0,0.0,0.0,0.0,0.0,0.0,0.0,0.0,0.0,0.0,0.0,0.0,0.0,3.9592,3.9986,4.1441,4.5679,4.5777,4.548,4.5285,4.2084,3.9801,3.9057,0.0,0.0,0.0,0.0,0.0,0.0,0.0,0.0,0.0,0.0,0.0,0.0,0.0,0.0,0.0,0.0,0.0,0.0,0.0,0.0,0.0,0.0,0.0,0.0,0.0,0.0,0.0,0.0,0.0,0.0,0.0,0.0,0.0,0.0,0.0,0.0,0.0,0.0,0.0,0.0,0.0,0.0,0.0,0.0,0.0,0.0,0.0,0.0,0.0,0.0,0.0,0.0,0.0,0.0,0.0,0.0,0.0,0.0,0.0,0.0,0.0,0.0,0.0,0.0,0.0,0.0,0.0,0.0,0.0,0.0,0.0,0.0,0.0,0.0,0.0,0.0,0.0,0.0,0.0,0.0,0.0,0.0,0.0,0.0,0.0,0.0,0.0,0.0,0.0,0.0,0.0,0.0,0.0,0.0,0.0,0.0,0.0,0.0,0.0,0.0,0.0,0.0,0.0,4.0101,4.1718,4.5501,4.5394,4.4992,4.4859,4.1358,3.9157,3.9027,0.0,0.0,0.0,0.0,0.0,0.0,0.0,0.0,0.0,0.0,0.0,0.0,0.0,0.0,0.0,0.0,0.0,0.0,0.0,0.0,0.0,0.0,0.0,0.0,0.0,0.0,0.0,0.0,0.0,0.0,0.0,0.0,0.0,0.0,0.0,0.0,0.0,0.0,0.0,0.0,0.0,0.0,0.0,0.0,0.0,0.0,0.0,0.0,0.0,0.0,0.0,0.0,0.0,0.0,0.0,0.0,0.0,0.0,0.0,0.0,0.0,0.0,0.0,0.0,0.0,0.0,0.0,0.0,0.0,0.0,0.0,0.0,0.0,0.0,0.0,0.0,0.0,0.0,0.0,0.0,0.0,0.0,0.0,0.0,0.0,0.0,0.0,0.0,0.0,0.0,0.0,0.0,0.0,0.0,0.0,0.0,0.0,0.0,0.0,0.0,0.0,0.0,0.0,4.0111,4.2063,4.4434,4.4823,4.4887,4.4932,4.082,3.8515,3.92,3.4506,0.0,0.0,0.0,0.0,0.0,0.0,0.0,0.0,0.0,0.0,0.0,0.0,0.0,0.0,0.0,0.0,0.0,0.0,0.0,0.0,0.0,0.0,0.0,0.0,0.0,0.0,0.0,0.0,0.0,0.0,0.0,0.0,0.0,0.0,0.0,0.0,0.0,0.0,0.0,0.0,0.0,0.0,0.0,0.0,0.0,0.0,0.0,0.0,0.0,0.0,0.0,0.0,0.0,0.0,0.0,0.0,0.0,0.0,0.0,0.0,0.0,0.0,0.0,0.0,0.0,0.0,0.0,0.0,0.0,0.0,0.0,0.0,0.0,0.0,0.0,0.0,0.0,0.0,0.0,0.0,0.0,0.0,0.0,0.0,0.0,0.0,0.0,0.0,0.0,0.0,0.0,0.0,0.0,0.0,0.0,0.0,0.0,0.0,0.0,0.0,0.0,0.0,3.9775,4.17,4.4127,4.4609,4.4371,4.3406,4.0937,3.9255,3.8857,3.4529,0.0,0.0,0.0,0.0,0.0,0.0,0.0,0.0,0.0,0.0,0.0,0.0,0.0,0.0,0.0,0.0,0.0,0.0,0.0,0.0,0.0,0.0,0.0,0.0,0.0,0.0,0.0,0.0,0.0,0.0,0.0,0.0,0.0,0.0,0.0,0.0,0.0,0.0,0.0,0.0,0.0,0.0,0.0,0.0,0.0,0.0,0.0,0.0,0.0,0.0,0.0,0.0,0.0,0.0,0.0,0.0,0.0,0.0,0.0,0.0,0.0,0.0,0.0,0.0,0.0,0.0,0.0,0.0,0.0,0.0,0.0,0.0,0.0,0.0,0.0,0.0,0.0,0.0,0.0,0.0,0.0,0.0,0.0,0.0,0.0,0.0,0.0,0.0,0.0,0.0,0.0,0.0,0.0,0.0,0.0,0.0,0.0,0.0,0.0,0.0,0.0,0.0,3.7605,4.0171,4.3828,4.3934,4.3692,4.3581,4.1189,3.9391,3.8714,3.4864,0.0,0.0,0.0,0.0,0.0,0.0,0.0,0.0,0.0,0.0,0.0,0.0,0.0,0.0,0.0,0.0,0.0,0.0,0.0,0.0,0.0,0.0,0.0,0.0,0.0,0.0,0.0,0.0,0.0,0.0,0.0,0.0,0.0,0.0,0.0,0.0,0.0,0.0,0.0,0.0,0.0,0.0,0.0,0.0,0.0,0.0,0.0,0.0,0.0,0.0,0.0,0.0,0.0,0.0,0.0,0.0,0.0,0.0,0.0,0.0,0.0,0.0,0.0,0.0,0.0,0.0,0.0,0.0,0.0,0.0,0.0,0.0,0.0,0.0,0.0,0.0,0.0,0.0,0.0,0.0,0.0,0.0,0.0,0.0,0.0,0.0,0.0,0.0,0.0,0.0,0.0,0.0,0.0,0.0,0.0,0.0,0.0,0.0,0.0,0.0,0.0,0.0,0.0,3.8139,4.3035,4.2931,4.2947,4.4088,4.1233,3.9094,3.838,0.0,0.0,0.0,0.0,0.0,0.0,0.0,0.0,0.0,0.0,0.0,0.0,0.0,0.0,0.0,0.0,0.0,0.0,0.0,0.0,0.0,0.0,0.0,0.0,0.0,0.0,0.0,0.0,0.0,0.0,0.0,0.0,0.0,0.0,0.0,0.0,0.0,0.0,0.0,0.0,0.0,0.0,0.0,0.0,0.0,0.0,0.0,0.0,0.0,0.0,0.0,0.0,0.0,0.0,0.0,0.0,0.0,0.0,0.0,0.0,0.0,0.0,0.0,0.0,0.0,0.0,0.0,0.0,0.0,0.0,0.0,0.0,0.0,0.0,0.0,0.0,0.0,0.0,0.0,0.0,0.0,0.0,0.0,0.0,0.0,0.0,0.0,0.0,0.0,0.0,0.0,0.0,0.0,0.0,0.0,0.0,0.0,0.0,0.0,0.0,0.0,0.0,0.0,0.0,3.6482,4.0589,4.1755,4.2325,4.2527,4.0444,3.8427,3.6825,0.0,0.0,0.0,0.0,0.0,0.0,0.0,0.0,0.0,0.0,0.0,0.0,0.0,0.0]}],[{"header":{"parameterUnit":"kt","parameterCategory":2,"dx":1,"dy":1,"la1":29.285339999999998,"la2":30.599998999999997,"lo1":-89.70041500000002,"lo2":-87.6738589999976,"nx":112,"ny":82,"refTime":"2022-10-28T18:00:00:Z","depth":0,"parameterNumber":2,"parameterNumberName":"V-component_of_WINDS"},"data":[7.3784,7.0563,6.7036,6.6171,6.2685,5.9276,5.8283,5.5808,5.3205,5.1401,5.0317,4.9056,4.7016,4.6645,4.5949,4.3848,4.3424,4.2872,0.0,4.0803,4.1244,4.2903,4.7648,5.1628,5.3788,5.8022,6.2497,6.7136,7.2042,7.6808,8.1367,8.3733,8.5648,8.7232,8.7269,8.7351,8.7524,8.7639,8.776,8.7994,9.1312,9.2903,9.3052,9.6282,9.7779,9.7779,9.7779,9.7779,9.7779,9.7779,9.7779,9.7779,9.7779,9.7779,9.7779,9.7779,9.7779,9.7779,9.7779,9.7779,9.7779,9.7779,9.7779,9.7779,9.7779,9.7779,9.7779,9.7779,9.7779,9.7779,9.7779,9.7779,9.7779,9.7779,9.7779,9.7711,9.7437,9.6035,9.474,9.4321,9.4231,9.4141,9.3937,9.3881,9.3881,9.3881,9.3881,9.3881,9.3881,9.3881,9.3881,9.3881,9.3881,9.3881,9.3881,9.3881,9.3881,9.3881,9.3881,9.3619,9.3025,9.2691,9.199,9.079,9.0146,8.9466,8.8819,8.8416,8.8245,8.8245,8.8245,8.8245,6.8339,6.4953,6.1349,6.0034,5.7239,5.4576,5.365,5.1574,4.9576,4.8587,4.7638,4.6685,4.583,4.569,4.4997,4.2914,4.2993,4.2636,0.0,4.1308,4.3275,4.6491,5.1561,5.5554,5.7637,6.1498,6.5975,7.0979,7.5047,7.9073,8.3072,8.4838,8.6201,8.7232,8.7269,8.7328,8.7456,8.7617,8.7738,8.7893,9.129,9.2903,9.3052,9.6282,9.7779,9.7779,9.7779,9.7779,9.7779,9.7779,9.7779,9.7779,9.7779,9.7779,9.7779,9.7779,9.7779,9.7779,9.7779,9.7779,9.7779,9.7779,9.7779,9.7779,9.7779,9.7779,9.7779,9.7779,9.7779,9.7779,9.7779,9.7779,9.7779,9.7779,9.7779,9.7557,9.6627,9.512,9.3881,9.3881,9.3881,9.3881,9.3881,9.3881,9.3881,9.3881,9.3881,9.3881,9.3881,9.3881,9.3881,9.3881,9.3881,9.3881,9.3881,9.3881,9.3881,9.3881,9.36,9.3143,9.2549,9.1948,9.1037,8.9826,8.9441,8.8935,8.8245,8.8245,8.8245,8.8245,8.8245,8.8245,6.2602,5.9823,5.6893,5.3917,5.1905,4.9913,4.6931,4.6186,4.5915,4.5068,4.487,4.5071,4.5578,4.5714,4.4754,4.1714,4.2567,0.0,0.0,4.1734,4.5883,5.2166,5.5767,5.9107,6.2384,6.4242,6.8215,7.5468,7.755,8.0363,8.4718,8.6422,8.7269,8.7269,8.7269,8.7328,8.7481,8.7569,8.7727,8.7883,9.129,9.293,9.3004,9.6282,9.7779,9.7779,9.7779,9.7779,9.7779,9.7779,9.7779,9.7779,9.7779,9.7779,9.7779,9.7779,9.7779,9.7779,9.7779,9.7779,9.7779,9.7779,9.7779,9.7779,9.7779,9.7779,9.7779,9.7779,9.7779,9.7779,9.7779,9.7779,9.7779,9.7779,9.7733,9.6977,9.4427,9.3881,9.3881,9.3881,9.3881,9.3881,9.3881,9.3881,9.3881,9.3881,9.3881,9.3881,9.3881,9.3881,9.3881,9.3881,9.3881,9.3881,9.3881,9.3881,9.3881,9.3881,9.3025,9.2488,9.2427,9.07,8.9778,8.9754,8.8769,8.8245,8.8245,8.8245,8.8245,8.8245,8.8245,8.8245,5.7305,5.3843,5.05,5.0674,4.8048,4.5562,4.6146,4.5109,4.4064,4.4288,4.464,0.0,0.0,0.0,4.7089,4.6233,0.0,4.8002,4.7169,4.7747,5.0652,5.6989,5.8416,6.0638,6.5127,6.9278,7.2873,7.578,7.9557,8.2662,8.4828,8.6422,8.7269,8.7269,8.7269,8.7281,8.7316,8.7444,8.7561,8.7631,9.1089,9.2772,9.2883,9.6249,9.7779,9.7779,9.7779,9.7779,9.7779,9.7779,9.7779,9.7779,9.7779,9.7779,9.7779,9.7779,9.7779,9.7779,9.7779,9.7779,9.7779,9.7779,9.7779,9.7779,9.7779,9.7779,9.7779,9.7779,9.7779,9.7779,9.7779,9.7779,9.7779,9.7779,9.6337,9.4772,9.403,9.3881,9.3881,9.3881,9.3881,9.3881,9.3881,9.3881,9.3881,9.3881,9.3881,9.3881,9.3881,9.3881,9.3881,9.3881,9.3881,9.3881,9.3881,9.3881,9.3881,9.3881,9.3025,9.1793,9.0184,8.9666,8.9081,8.8399,8.8101,8.8057,8.8245,8.8245,8.8245,8.8245,8.8245,8.8245,5.1863,4.901,4.6377,4.6605,4.4773,4.3217,4.4394,4.3858,4.3359,4.3983,0.0,0.0,0.0,0.0,0.0,0.0,5.0152,5.1123,5.1123,5.17,5.4674,6.1618,6.2347,6.3982,6.824,7.2857,7.6571,7.8764,8.172,8.4164,8.5822,8.679,8.7269,8.7269,8.7269,8.7269,8.7269,8.7398,8.7456,8.7492,9.0976,9.2659,9.277,9.6121,9.7699,9.7711,9.7756,9.7779,9.7779,9.7779,9.7779,9.7779,9.7779,9.7779,9.7779,9.7779,9.7779,9.7779,9.7779,9.7779,9.7779,9.7779,9.7779,9.7779,9.7779,9.7779,9.7779,9.7779,9.7779,9.7779,9.7779,9.7779,9.7496,9.6371,9.4988,9.3881,9.3881,9.3881,9.3881,9.3881,9.3881,9.3881,9.3881,9.3881,9.3881,9.3881,9.3881,9.3881,9.3881,9.3881,9.3881,9.3881,9.3881,9.3881,9.3881,9.3881,9.3881,9.3881,9.3025,9.1708,8.9939,8.9062,8.8416,8.7902,8.7979,8.8083,8.8245,8.8245,8.8245,8.8245,8.8142,8.8168,4.6956,4.5365,4.3963,4.2675,4.2385,4.2432,4.268,0.0,4.367,4.4465,0.0,4.7893,4.8333,0.0,0.0,5.1145,5.2511,5.3599,5.3772,5.541,5.928,6.6472,6.7434,6.8726,7.1819,7.5459,7.9102,8.264,8.3656,8.5034,8.7051,8.7233,8.7269,8.7269,8.7269,8.7269,8.7269,8.7386,8.7543,8.7776,9.0958,9.2606,9.2902,9.6139,9.7569,9.7569,9.7722,9.7779,9.7779,9.7779,9.7779,9.7779,9.7779,9.7779,9.7779,9.7779,9.7779,9.7779,9.7779,9.7779,9.7779,9.7779,9.7779,9.7779,9.7779,9.7779,9.7779,9.7779,9.7779,9.7779,9.7779,9.7569,9.6757,9.4444,9.3881,9.3881,9.3881,9.3881,9.3881,9.3881,9.3881,9.3881,9.3881,9.3881,9.3881,9.3881,9.3881,9.3881,9.3881,9.3806,9.3787,9.3881,9.3881,9.3881,9.3881,9.3787,9.3695,9.3714,9.2711,9.1644,9.0654,8.8759,8.7764,8.7824,8.8057,8.8219,8.8245,8.8245,8.8219,8.8168,8.7953,8.7979,4.5025,4.3867,4.2707,4.2464,4.2385,4.2834,0.0,0.0,0.0,4.738,4.9382,5.0876,5.0982,5.3633,5.6173,5.7352,5.8858,6.0294,6.1558,6.5186,6.9193,7.3164,7.3685,7.4541,7.6622,7.7552,7.9198,8.2002,8.4001,8.5488,8.6457,8.6965,8.7269,8.7269,8.7269,8.7269,8.7269,8.7293,8.8005,8.938,9.1382,9.3103,9.4482,9.661,9.7569,9.7569,9.7722,9.7779,9.7779,9.7779,9.7779,9.7779,9.7779,9.7779,9.7779,9.7779,9.7779,9.7779,9.7779,9.7779,9.7779,9.7779,9.7779,9.7779,9.7779,9.7779,9.7779,9.7779,9.7779,9.7779,9.7779,9.6238,9.4515,9.3993,9.3881,9.3881,9.3881,9.3881,9.3881,9.3881,9.3881,9.3881,9.3881,9.3881,9.3881,9.3881,9.3881,9.3881,9.3881,9.3343,9.3187,9.3825,9.3881,9.3881,9.3881,9.301,9.2555,9.2786,9.0719,8.9526,8.9512,8.8067,8.7357,8.7536,8.7824,8.8031,8.8245,8.8245,8.8039,8.7614,8.7764,8.7868,4.2385,4.1838,4.1498,4.2206,4.2933,0.0,0.0,4.6318,4.792,4.9368,5.2515,5.5118,5.546,5.8284,6.1057,6.2554,6.3436,6.5551,7.013,7.2731,7.4724,7.6319,7.6493,7.7232,7.9136,7.9313,8.0416,8.2988,8.4828,8.5971,8.6274,8.6916,8.7269,8.7269,8.7269,8.7269,8.7269,8.7269,8.8116,8.9823,9.1469,9.3116,9.4838,9.6576,9.7438,9.7474,9.7641,9.7722,9.7779,9.7779,9.7699,9.7582,9.7582,9.7582,9.7582,9.7582,9.7629,9.7687,9.7687,9.7733,9.7779,9.7779,9.7779,9.7779,9.7779,9.7779,9.7779,9.7779,9.6836,9.5821,9.5821,9.4854,9.3881,9.3881,9.3881,9.3881,9.3881,9.3881,9.3881,9.3881,9.3881,9.3881,9.3881,9.3881,9.3881,9.3881,9.3881,9.3881,9.3881,9.3206,9.2862,9.3265,9.3636,9.3881,9.3881,9.2371,9.1507,9.1636,8.9892,8.8831,8.8831,8.7705,8.7224,8.7456,8.785,8.8057,8.8057,8.7902,8.7719,8.7456,8.7456,8.7614,4.0149,4.0241,4.0628,4.2353,4.3674,0.0,4.5925,4.854,5.1061,5.256,5.6592,6.0011,6.0558,6.295,6.5429,6.732,6.7598,7.0043,7.7048,7.8019,7.8123,7.8435,7.8469,7.9127,8.0777,8.092,8.182,8.4031,8.5139,8.5778,8.5929,8.6664,8.7088,8.7088,8.7221,8.7269,8.7269,8.7269,8.83,9.0265,9.1555,9.3176,9.5178,9.656,9.7265,9.7365,9.7499,9.7618,9.7699,9.7699,9.7582,9.7389,9.7389,9.7389,9.7389,9.7389,9.7462,9.7521,9.7521,9.7521,9.7521,9.7521,9.7413,9.7217,9.6979,9.7315,9.7699,9.7142,9.5499,9.3881,9.3881,9.3881,9.3881,9.3881,9.3881,9.3881,9.3881,9.3881,9.3881,9.3881,9.3881,9.3881,9.3881,9.3881,9.3881,9.3881,9.3881,9.3881,9.3881,9.3206,9.2734,9.2734,9.3441,9.3768,9.3373,9.1572,9.0437,9.046,8.9184,8.8349,8.8197,8.7476,8.7224,8.7456,8.7909,8.8013,8.7764,8.7509,8.7351,8.7331,8.7171,8.7331,3.9778,4.0241,4.0885,4.3609,4.4414,0.0,5.0954,5.3397,5.5686,5.9583,6.3089,6.5421,6.5485,6.6819,6.8881,7.1847,7.235,7.4032,7.8939,7.9633,8.0153,8.156,8.1699,8.1926,8.2489,8.2581,8.2825,8.3431,8.363,8.3983,8.4537,8.5735,8.6418,8.6418,8.6953,8.7269,8.7269,8.7269,8.8816,9.1886,9.207,9.3765,9.6763,9.7077,9.7177,9.719,9.7365,9.7414,9.7426,9.7426,9.7414,9.7389,9.7389,9.7389,9.7389,9.7389,9.7401,9.7414,9.7414,9.7038,9.655,9.655,9.6108,9.5316,9.4159,9.5642,9.729,9.4971,9.4086,9.3881,9.3881,9.3881,9.3881,9.3881,9.3881,9.3881,9.3881,9.3881,9.3881,9.3881,9.3881,9.3881,9.3881,9.3881,9.3881,9.3881,9.3881,9.3881,9.3881,9.3206,9.2734,9.2734,9.3441,9.3218,9.162,9.0091,8.9286,8.9402,8.7827,8.7037,8.7218,8.7144,8.7224,8.7456,8.7509,8.7536,8.7509,8.7278,8.6983,8.6773,8.6989,8.7117,3.8105,3.8744,3.9892,4.3594,0.0,0.0,5.2718,5.6152,5.9399,6.3034,6.6856,6.9714,7.0182,7.2176,7.417,7.5471,7.6442,7.8056,8.0866,8.1248,8.1491,8.215,8.2354,8.2531,8.2787,8.294,8.3129,8.3356,8.3375,8.3683,8.434,8.5215,8.5914,8.6274,8.6586,8.6891,8.7257,8.8264,8.9884,9.2144,9.3139,9.4797,9.7007,9.7073,9.7137,9.7201,9.7265,9.7327,9.729,9.6303,9.6182,9.654,9.6072,9.5887,9.5887,9.5887,9.5962,9.6013,9.6013,9.5895,9.5745,9.5745,9.4832,9.3719,9.3389,9.432,9.5298,9.4177,9.3881,9.3881,9.3881,9.3881,9.3881,9.3881,9.3881,9.3881,9.3881,9.3881,9.3881,9.3881,9.3881,9.3881,9.3881,9.3881,9.3881,9.3881,9.3881,9.3881,9.3881,9.3206,9.2734,9.2734,9.1481,9.0768,9.1138,8.916,8.8171,8.8834,8.7502,8.6779,8.6854,8.6854,8.6989,8.7251,8.7251,8.7331,8.7456,8.707,8.68,8.6724,8.68,8.6962,3.6839,0.0,0.0,0.0,0.0,0.0,5.4974,5.8908,6.2529,6.5787,6.9873,7.3068,7.363,7.5852,7.7845,7.8712,7.9806,8.0936,8.2081,8.2219,8.2219,8.2219,8.2408,8.2605,8.2787,8.2959,8.3167,8.3356,8.3375,8.3629,8.4087,8.4521,8.5113,8.5735,8.5957,8.6283,8.6752,8.8401,9.0014,9.1603,9.3289,9.5036,9.6729,9.6526,9.6559,9.6864,9.6628,9.6614,9.6591,9.5362,9.5172,9.5644,9.5074,9.4874,9.4874,9.4874,9.4921,9.5018,9.5018,9.4916,9.4866,9.4866,9.3869,9.2761,9.3068,9.3363,9.354,9.354,9.354,9.3597,9.3825,9.3881,9.3825,9.3597,9.354,9.354,9.354,9.354,9.3652,9.3843,9.3881,9.3881,9.3881,9.3881,9.3881,9.3881,9.3693,9.354,9.354,9.3048,9.2801,9.3008,9.1116,8.9937,9.0322,8.8775,8.7905,8.8195,8.7278,8.6724,8.6724,8.6746,8.6881,8.7064,8.7064,8.7171,8.7351,8.6935,8.6724,8.6724,8.6724,8.68,0.0,0.0,0.0,4.7424,4.9791,5.2515,5.8831,6.2211,6.5056,6.854,7.2517,7.533,7.5349,7.6562,7.8539,8.1595,8.2115,8.215,8.2219,8.2219,8.2219,8.2219,8.2239,8.2378,8.2787,8.2826,8.2962,8.3391,8.3375,8.3393,8.3411,8.343,8.3755,8.4407,8.5035,8.5373,8.5388,8.6947,8.8572,9.028,9.1834,9.3815,9.6003,9.529,9.5338,9.604,9.5237,9.4941,9.4941,9.489,9.4874,9.489,9.4874,9.4874,9.4874,9.4874,9.4874,9.4874,9.4874,9.4444,9.3937,9.3937,9.3402,9.2734,9.2755,9.274,9.2775,9.2775,9.2775,9.2923,9.3674,9.3881,9.3693,9.2943,9.2775,9.2775,9.2775,9.2775,9.2983,9.373,9.3881,9.3881,9.3881,9.3881,9.3881,9.3881,9.3246,9.2775,9.2775,9.2755,9.3023,9.3768,9.3787,9.2248,8.8635,8.9081,8.884,8.7264,8.6848,8.6724,8.6724,8.6902,8.7097,8.7064,8.7064,8.7064,8.7091,8.6827,8.6724,8.6724,8.6724,8.6724,3.8418,4.1128,4.4006,4.8964,5.2656,5.6282,6.0941,6.4607,6.8016,7.1729,7.4827,7.7152,7.8211,7.9633,8.0986,8.2046,8.2219,8.2219,8.2219,8.2219,8.2219,8.2219,8.2373,8.2585,8.2787,8.294,8.3148,8.3356,8.3375,8.3375,8.3375,8.3375,8.3484,8.3719,8.4357,8.4893,8.5328,8.7999,8.9623,9.0217,9.2852,9.4485,9.5257,9.4974,9.4991,9.5241,9.4974,9.4583,9.4159,9.3657,9.377,9.4159,9.3621,9.3447,9.3447,9.3447,9.3447,9.3447,9.3447,9.3308,9.3107,9.3107,9.2943,9.2734,9.2734,9.2734,9.2734,9.2734,9.2734,9.2761,9.3063,9.3518,9.3674,9.2903,9.2734,9.2734,9.2734,9.2734,9.2781,9.3083,9.3556,9.3881,9.3881,9.3479,9.3107,9.3107,9.2903,9.2734,9.2734,9.2734,9.3008,9.3806,9.3881,9.3175,9.1384,8.9031,8.7809,8.8111,8.7218,8.6724,8.6724,8.6773,8.6827,8.6827,8.6827,8.6827,8.6827,8.6718,8.6724,8.6724,8.6724,8.6724,3.9358,4.2494,4.5854,5.1143,5.5198,5.8963,6.2931,6.6596,7.004,7.2972,7.6147,7.8731,7.9702,8.1179,8.2219,8.2219,8.2219,8.2219,8.2219,8.2219,8.2219,8.2219,8.2354,8.2546,8.2726,8.2937,8.3146,8.3334,8.3373,8.3375,8.3375,8.3375,8.3375,8.3375,8.3808,8.4205,8.4619,8.7822,8.9433,8.9469,9.2601,9.4249,9.4497,9.4231,9.4249,9.4497,9.4231,9.3847,9.3441,9.2923,9.3023,9.3441,9.2923,9.2734,9.2734,9.2734,9.2734,9.2734,9.2734,9.2734,9.2734,9.2734,9.2734,9.2734,9.2734,9.2734,9.2734,9.2734,9.2734,9.2734,9.2734,9.3068,9.3343,9.2822,9.2734,9.2734,9.2734,9.2734,9.2801,9.3103,9.3521,9.3881,9.3881,9.3226,9.2734,9.2734,9.2734,9.2734,9.2734,9.2734,9.3008,9.3806,9.2336,9.1088,9.062,8.8195,8.7064,8.7887,8.7171,8.6724,8.6724,8.6724,8.6724,8.6724,8.6724,8.6724,8.6724,8.6724,8.6724,8.6724,8.6724,8.6724,3.9692,4.3636,4.823,5.3986,5.7535,6.0702,6.4748,6.8297,7.1075,7.2524,7.6598,7.991,7.998,8.1248,8.2219,8.2219,8.2219,8.2219,8.2219,8.2219,8.2219,8.2219,8.2219,8.2334,8.2581,8.2726,8.2902,8.3164,8.3299,8.3375,8.3375,8.3375,8.3375,8.3375,8.3375,8.3375,8.3375,8.6313,8.7897,8.8108,9.1221,9.3107,9.3787,9.3048,9.3107,9.3787,9.3063,9.2734,9.2734,9.2734,9.2734,9.2734,9.2734,9.2734,9.2734,9.2734,9.2734,9.2734,9.2734,9.2734,9.2734,9.2734,9.2734,9.2734,9.2734,9.2734,9.2734,9.2734,9.2734,9.2734,9.2734,9.2734,9.2734,9.2734,9.2734,9.2734,9.2734,9.2734,9.2943,9.3674,9.3825,9.3825,9.3825,9.3206,9.2734,9.2734,9.2734,9.2734,9.2734,9.2734,9.2908,9.3485,8.943,8.6724,8.6724,8.6724,8.6724,8.6724,8.6724,8.6724,8.6724,8.6724,8.6724,8.6724,8.6724,8.6724,8.6724,8.6724,8.6724,8.6724,8.6724,8.6724,4.3001,4.8409,5.3103,5.7223,6.1206,6.4361,6.5446,6.9033,7.2579,7.4132,7.7337,8.0257,8.1422,8.1942,8.2219,8.2219,8.2219,8.2219,8.2219,8.2219,8.2219,8.2219,8.2219,8.2334,8.2581,8.2726,8.2902,8.3164,8.3299,8.3375,8.3375,8.3375,8.3375,8.3375,8.3375,8.3375,8.3375,8.4184,8.575,8.8108,9.1221,9.2822,9.3023,9.2801,9.2822,9.3023,9.2801,9.2734,9.2734,9.2734,9.2734,9.2734,9.2734,9.2734,9.2734,9.2734,9.2734,9.2734,9.2734,9.2734,9.2734,9.2734,9.2734,9.2734,9.2734,9.2734,9.2734,9.2734,9.2734,9.2734,9.2734,9.2734,9.2734,9.2734,9.2734,9.2734,9.2734,9.2734,9.2761,9.2983,9.3023,9.3023,9.3023,9.2842,9.2734,9.2734,9.2734,9.2734,9.2734,9.2734,9.1668,8.884,8.745,8.6724,8.6724,8.6724,8.6724,8.6724,8.6724,8.6724,8.6724,8.6724,8.6724,8.6724,8.6724,8.6724,8.6724,8.6724,8.6724,8.6724,8.6724,8.6724,4.2285,4.8806,5.4976,5.9167,6.2987,6.6026,6.7291,7.0424,7.3604,7.5568,7.7929,8.002,8.1307,8.1562,8.1685,8.216,8.2219,8.2219,8.2219,8.2219,8.2219,8.2219,8.2219,8.2294,8.2413,8.2687,8.2864,8.3032,8.3244,8.3375,8.3375,8.3375,8.3375,8.3375,8.3375,8.3375,8.3375,8.3375,8.4607,8.7052,9.022,9.2066,9.2734,9.2734,9.2734,9.2734,9.2734,9.2734,9.2734,9.2734,9.2734,9.2734,9.2734,9.2734,9.2734,9.2734,9.2734,9.2734,9.2734,9.2734,9.2734,9.2734,9.2734,9.2734,9.2734,9.2734,9.2734,9.2734,9.2734,9.274,9.2862,9.2801,9.2761,9.2943,9.2842,9.2734,9.2734,9.2734,9.2734,9.2734,9.2734,9.2734,9.2734,9.2734,9.2734,9.2734,9.2734,9.2067,9.0298,9.0089,8.9203,8.6929,8.6724,8.6724,8.6724,8.6724,8.6724,8.6724,8.6724,8.6724,8.6724,8.6724,8.6724,8.6724,8.7322,8.7651,8.7651,8.6993,8.6724,8.6724,8.6724,8.6724,4.0362,4.711,5.4576,6.0228,6.3835,6.6615,6.9126,7.1655,7.4061,7.6229,7.7813,7.9136,8.0277,8.052,8.0821,8.1863,8.2004,8.2045,8.2199,8.2219,8.2219,8.2219,8.2219,8.2219,8.2219,8.2555,8.2787,8.2806,8.315,8.3391,8.3375,8.3375,8.3375,8.3375,8.3375,8.3375,8.3375,8.3375,8.4184,8.5769,8.846,9.0693,9.2418,9.2418,9.2523,9.2734,9.2734,9.2734,9.2734,9.2734,9.2734,9.2734,9.2734,9.2734,9.2734,9.2734,9.2734,9.2734,9.2734,9.2734,9.2734,9.2734,9.2734,9.2734,9.2734,9.2734,9.2734,9.2734,9.2734,9.2761,9.2988,9.2903,9.2801,9.3167,9.2983,9.2734,9.2734,9.2734,9.2734,9.2734,9.2734,9.2734,9.2734,9.2734,9.2734,9.2734,9.2271,9.0643,8.7144,8.6724,8.6724,8.6724,8.6724,8.6724,8.6724,8.6724,8.6724,8.6724,8.6724,8.6796,8.7059,8.7218,8.7256,8.7256,8.8478,8.9135,8.9135,8.7684,8.696,8.696,8.679,8.6724,4.2885,4.7085,5.2046,6.0721,6.5193,6.7581,6.8096,7.0939,7.3591,7.4038,7.5227,7.693,7.9146,7.9541,7.9857,8.08,8.0949,8.1258,8.2119,8.2219,8.2219,8.2219,8.2219,8.2219,8.2219,8.2487,8.2702,8.2806,8.3054,8.3279,8.341,8.3375,8.3375,8.3375,8.3375,8.3375,8.3375,8.3375,8.4184,8.5734,8.6278,8.8003,9.0799,9.0799,9.1503,9.2734,9.2734,9.2734,9.2734,9.2734,9.2734,9.2734,9.2734,9.2734,9.2734,9.2734,9.2734,9.2734,9.2734,9.2734,9.2734,9.2734,9.2734,9.2734,9.2734,9.2734,9.2734,9.2734,9.2734,9.2755,9.2761,9.2775,9.272,9.2801,9.2761,9.2734,9.2734,9.2734,9.2734,9.2734,9.2734,9.2734,9.2734,9.2734,9.2734,9.2734,8.9876,8.7509,8.68,8.6724,8.6724,8.6724,8.6724,8.6724,8.6724,8.6724,8.6724,8.6724,8.6724,8.7388,8.8877,8.976,9.0249,9.0249,9.0484,9.0582,9.0582,8.9168,8.8478,8.8445,8.7256,8.6724,4.2572,4.6391,5.0769,5.7473,6.2847,6.696,6.8588,7.0333,7.1831,7.246,7.3808,7.5631,7.8051,7.8483,7.8978,8.0442,8.0659,8.1034,8.2065,8.2219,8.2219,8.2219,8.2219,8.2219,8.2219,8.2467,8.264,8.2722,8.2994,8.3221,8.3279,8.3355,8.3375,8.3375,8.3375,8.3375,8.3375,8.3375,8.3762,8.4501,8.5346,8.6489,8.7968,8.7968,8.927,9.1538,9.2347,9.2734,9.2734,9.2734,9.2734,9.2734,9.2734,9.2734,9.2734,9.2734,9.2734,9.2734,9.2734,9.2734,9.2734,9.2734,9.2734,9.2734,9.2734,9.2734,9.2734,9.2734,9.2734,9.2755,9.2912,9.2816,9.2775,9.2877,9.2816,9.2734,9.2734,9.2734,9.2514,9.1762,9.2215,9.2375,9.1271,9.1116,9.078,8.9734,8.7938,8.6724,8.6724,8.6724,8.6724,8.6724,8.6724,8.6724,8.6724,8.9427,9.0545,8.9032,8.9361,8.9821,9.0221,9.2128,9.3213,9.3213,9.2489,9.2095,9.2095,9.0648,8.9925,8.9925,8.8478,8.7815,4.1804,4.5425,4.9509,5.4154,5.9691,6.4951,6.8537,6.9346,6.9684,7.1005,7.2522,7.4307,7.6587,7.7201,7.7994,8.0047,8.0377,8.08,8.2045,8.2219,8.2219,8.2219,8.2219,8.2219,8.2219,8.2428,8.2561,8.2601,8.2896,8.3089,8.3218,8.3297,8.3373,8.3375,8.3375,8.3375,8.3375,8.3375,8.3375,8.341,8.4642,8.5381,8.5734,8.5734,8.7228,9.0009,9.189,9.2734,9.2734,9.2734,9.2734,9.2734,9.2734,9.2734,9.2734,9.2734,9.2734,9.2734,9.2734,9.2734,9.2734,9.2734,9.2734,9.2734,9.2734,9.2734,9.2734,9.2734,9.2734,9.2775,9.2973,9.2857,9.2775,9.2973,9.2679,9.2396,9.2396,9.2229,9.1698,9.0585,9.1148,9.1328,8.9689,8.916,8.8484,8.6902,8.6724,8.6724,8.6724,8.6724,8.6724,8.6724,8.6724,8.7218,8.844,9.2654,9.4298,9.2058,9.2555,9.2621,9.1897,9.4035,9.5251,9.5251,9.4136,9.3578,9.3578,9.2128,9.1437,9.1404,8.9957,8.9135,4.2319,4.4634,4.7314,5.3472,5.7441,6.1152,6.6206,6.7319,6.7805,6.9459,7.0776,7.2207,7.4206,7.5334,7.675,7.9048,7.9427,8.0103,8.1964,8.2219,8.2219,8.2219,8.2219,8.2219,8.2219,8.2239,8.2354,8.2601,8.264,8.2854,8.3164,8.3202,8.326,8.341,8.3375,8.3375,8.3375,8.3375,8.3375,8.3375,8.3515,8.436,8.5734,8.5734,8.6665,8.8425,9.1397,9.2734,9.2734,9.2734,9.2734,9.2734,9.2734,9.2734,9.2734,9.2734,9.2734,9.2734,9.2734,9.2734,9.2734,9.2734,9.2734,9.2734,9.2734,9.2734,9.2734,9.2734,9.2734,9.2699,9.2755,9.2755,9.2699,9.2755,9.2024,9.1293,9.1293,9.0586,8.9879,8.9727,8.9305,8.8924,8.8759,8.7731,8.6935,8.6718,8.6724,8.6724,8.6724,8.6724,8.6724,8.6724,8.6724,8.8802,9.4035,9.4955,9.5152,9.4889,9.4955,9.4955,9.4856,9.512,9.5251,9.5251,9.512,9.5054,9.5054,9.361,9.292,9.2887,9.1437,9.0089,4.088,4.3308,4.5925,5.0675,5.507,5.9157,6.2623,6.3961,6.5358,6.8492,6.9734,7.0737,7.2225,7.3787,7.5323,7.6603,7.7696,7.9071,8.1013,8.1299,8.1299,8.1299,8.1828,8.1964,8.1341,8.1863,8.2259,8.2354,8.2507,8.2679,8.2819,8.3067,8.3221,8.326,8.3355,8.3375,8.3375,8.3375,8.3375,8.3375,8.3375,8.3727,8.4325,8.4325,8.517,8.679,8.8953,9.0467,9.1362,9.2347,9.2734,9.2734,9.2734,9.2734,9.2734,9.2734,9.2734,9.2734,9.2734,9.2734,9.2734,9.2734,9.2734,9.2734,9.2734,9.2734,9.2734,9.2734,9.2734,9.2734,9.2734,9.2734,9.2396,9.116,9.0506,9.023,9.023,8.9903,8.9416,8.8782,8.8467,8.8128,8.7581,8.7037,8.6724,8.6724,8.6724,8.6724,8.6724,8.6724,8.6724,8.6724,8.9788,9.2785,9.5054,9.5251,9.5251,9.5251,9.5251,9.5251,9.5251,9.5251,9.5251,9.5251,9.5251,9.5251,9.5251,9.4692,9.4399,9.4366,9.2949,9.1967,3.9443,4.1745,4.4134,4.7762,5.2303,5.665,5.9697,6.1024,6.2658,6.6287,6.8218,6.9582,7.062,7.2244,7.3798,7.5035,7.6291,7.7858,7.9957,8.0245,8.0245,8.0245,8.0941,8.1068,8.0345,8.0907,8.1479,8.1726,8.1958,8.2194,8.2581,8.2857,8.3067,8.3089,8.326,8.3318,8.3318,8.3391,8.3375,8.3375,8.3375,8.3375,8.3375,8.3375,8.4255,8.5785,8.7369,8.8953,9.0482,9.2066,9.2734,9.2734,9.2734,9.2734,9.2734,9.2734,9.2734,9.2734,9.2734,9.2734,9.2734,9.2734,9.2514,9.2236,9.2236,9.2046,9.1797,9.1797,9.1797,9.1797,9.1797,9.1797,9.1437,8.9973,8.9368,8.915,8.915,8.8939,8.8525,8.7794,8.7638,8.7469,8.6827,8.6724,8.6724,8.6724,8.6724,8.6724,8.6724,8.7059,8.7651,8.8506,9.2226,9.4761,9.5218,9.5251,9.5251,9.5251,9.5251,9.5251,9.5251,9.5251,9.5251,9.5251,9.5251,9.5251,9.5251,9.5251,9.5251,9.5218,9.4202,9.3512,3.8269,3.9942,4.1681,4.5221,4.9047,5.3167,5.7851,5.8919,5.9678,6.2308,6.5826,6.8671,6.9434,7.0567,7.2209,7.4823,7.5461,7.6486,7.8996,7.9312,7.9312,7.9312,7.9335,7.9335,7.9312,7.9335,7.9722,8.0594,8.068,8.1237,8.2542,8.2601,8.2663,8.2806,8.307,8.3183,8.3183,8.3318,8.3375,8.3375,8.3375,8.3375,8.3375,8.3375,8.4255,8.5785,8.7369,8.8953,9.0482,9.2066,9.2734,9.2734,9.2734,9.2734,9.2734,9.2734,9.2734,9.2734,9.2734,9.2734,9.2734,9.2734,9.2024,9.1182,9.1182,9.0472,8.9666,8.9666,8.9666,8.9666,8.9666,8.9666,8.9632,8.9608,8.8807,8.8061,8.8061,8.7364,8.6718,8.6691,8.6691,8.6724,8.6724,8.6724,8.6724,8.6724,8.6724,8.6724,8.6724,8.7919,8.9896,9.2756,9.3117,9.3709,9.5152,9.5251,9.5251,9.5251,9.5251,9.5251,9.5251,9.5251,9.5251,9.5251,9.5251,9.5251,9.5251,9.5251,9.5251,9.5251,9.5251,9.4465,3.8241,3.9923,4.1499,4.4294,4.7874,5.1301,5.3586,5.527,5.712,5.9716,6.1768,6.3526,6.4948,6.8033,7.0623,7.1276,7.3239,7.5175,7.6595,7.764,7.8244,7.8244,7.8894,7.9035,7.8316,7.8861,7.9427,7.9722,8.0311,8.0864,8.1258,8.2134,8.2294,8.1651,8.2481,8.2387,8.1196,8.2582,8.3,8.2454,8.2454,8.2454,8.2454,8.2454,8.2753,8.3306,8.5209,8.6333,8.7032,9.0316,9.1655,9.1754,9.2473,9.2734,9.2734,9.2734,9.2292,9.1655,9.1655,9.1182,9.0609,9.0609,9.0368,9.0113,9.0113,8.9845,8.9608,8.9608,8.9608,8.9305,8.7957,8.76,8.76,8.76,8.737,8.7105,8.7105,8.6902,8.6724,8.6724,8.6724,8.6724,8.6724,8.6724,8.6724,8.6724,8.6724,8.7059,8.8018,8.8577,8.9957,9.2822,9.3972,9.4758,9.5218,9.5251,9.5251,9.5251,9.5251,9.5251,9.5251,9.5251,9.5251,9.5251,9.5251,9.5251,9.5251,9.5251,9.5251,9.5251,9.5251,9.5021,3.7312,3.9005,4.0608,4.2618,4.5577,4.835,4.9574,5.1547,5.3875,5.6488,5.7958,5.9468,6.1903,6.551,6.8227,6.8714,7.1326,7.3727,7.4914,7.6317,7.723,7.723,7.7825,7.7972,7.7305,7.785,7.8349,7.8673,7.9245,7.9723,8.0113,8.092,8.1047,8.0399,8.1168,8.1071,7.9989,8.1397,8.1664,8.0881,8.1183,8.1424,8.1507,8.1507,8.1507,8.1638,8.4097,8.5149,8.5433,8.9062,9.0813,9.1205,9.1424,9.1546,9.1546,9.1546,9.1138,9.0586,9.0586,9.016,8.9608,8.9608,8.9344,8.9037,8.9037,8.8766,8.85,8.85,8.85,8.823,8.701,8.6724,8.6724,8.6724,8.6724,8.6724,8.6724,8.6724,8.6724,8.6724,8.6724,8.6724,8.6724,8.6724,8.6724,8.6724,8.7157,8.782,8.8741,8.9765,9.1112,9.292,9.4399,9.5251,9.5251,9.5251,9.5251,9.5251,9.5251,9.5251,9.5251,9.5251,9.5251,9.5251,9.5251,9.5251,9.5251,9.5251,9.5251,9.5251,9.5251,9.5251,3.5696,3.7476,3.9358,4.0515,4.2554,4.4647,4.613,4.8113,5.0348,5.2776,5.4273,5.6275,5.9858,6.2592,6.4925,6.697,6.9625,7.2045,7.3848,7.5308,7.6268,7.639,7.639,7.639,7.639,7.639,7.6738,7.7595,7.771,7.8172,7.9151,7.9266,7.9266,7.9197,7.9395,7.9418,7.9282,7.9901,7.9734,7.8791,7.9711,8.0309,8.0547,8.0569,8.0569,8.0718,8.3639,8.4921,8.5148,8.8214,9.0067,9.0858,8.9973,8.9608,8.9608,8.9608,8.9594,8.9488,8.9488,8.9474,8.9402,8.9402,8.8766,8.7967,8.7967,8.7364,8.6724,8.6724,8.6724,8.6724,8.6724,8.6724,8.6724,8.6724,8.6724,8.6724,8.6724,8.6724,8.6724,8.6724,8.6724,8.6724,8.6724,8.6763,8.6828,8.6828,8.8083,8.9009,8.9107,9.1474,9.315,9.3249,9.4432,9.5251,9.5251,9.5251,9.5251,9.5251,9.5251,9.5251,9.5251,9.5251,9.5251,9.5251,9.5251,9.5251,9.5251,9.5251,9.5251,9.5251,9.5251,9.5251,3.5696,3.7476,3.9358,4.0515,4.1249,4.2518,4.5707,4.7469,4.8619,4.9329,5.0367,5.2053,5.5099,5.6998,5.9836,6.5241,6.7431,6.9448,7.2237,7.3682,7.4941,7.6235,7.639,7.639,7.639,7.639,7.6494,7.6719,7.738,7.7857,7.81,7.8894,7.8931,7.8148,7.8931,7.872,7.7413,7.8934,7.8888,7.7328,7.8602,7.9291,7.9326,7.9553,7.9621,7.9744,8.1947,8.2897,8.3205,8.6905,8.8567,8.8831,8.9392,8.9608,8.9608,8.9608,8.9101,8.8416,8.8416,8.7975,8.737,8.737,8.7218,8.7004,8.7004,8.6848,8.6724,8.6724,8.6724,8.6724,8.6724,8.6724,8.6724,8.6724,8.6724,8.6724,8.6724,8.6724,8.6724,8.6724,8.6724,8.6724,8.6724,8.7618,8.8346,8.8346,8.953,9.0878,9.1967,9.269,9.3545,9.4629,9.5054,9.5251,9.5251,9.5251,9.5251,9.5251,9.5251,9.5251,9.5251,9.5251,9.5251,9.5251,9.5251,9.5251,9.5251,9.5251,9.5251,9.5251,9.5251,9.5251,3.5198,3.6729,3.8738,4.1108,4.1721,4.2377,4.4979,4.601,4.6596,4.7266,4.7384,4.8385,5.1665,5.2838,5.5185,6.0924,6.4996,6.8078,6.9914,7.2417,7.4415,7.5308,7.5978,7.639,7.639,7.639,7.639,7.639,7.6866,7.7105,7.7105,7.7653,7.7702,7.7162,7.7678,7.7512,7.6597,7.7571,7.762,7.681,7.7686,7.819,7.8311,7.855,7.8669,7.8811,8.1169,8.2224,8.2506,8.6011,8.769,8.8061,8.8197,8.8525,8.8865,8.8425,8.7931,8.7443,8.7443,8.7078,8.6724,8.6724,8.6724,8.6724,8.6724,8.6724,8.6724,8.6724,8.6724,8.6724,8.6724,8.6724,8.6724,8.6724,8.6724,8.6724,8.6724,8.6724,8.6724,8.6724,8.7223,8.7684,8.7684,8.8872,8.9826,8.9826,9.1042,9.2259,9.3019,9.3676,9.4399,9.5185,9.5251,9.5251,9.5251,9.5251,9.5251,9.5251,9.5251,9.5251,9.5251,9.5251,9.5251,9.5251,9.5251,9.5251,9.5251,9.5251,9.5251,9.5251,9.5251,9.4917,3.4865,3.6142,3.8341,4.1905,4.2744,4.3026,4.4027,4.4231,4.4506,4.5396,4.4866,4.5224,4.8439,4.947,5.1258,5.5526,6.1717,6.6398,6.7671,7.133,7.3944,7.422,7.5527,7.639,7.639,7.639,7.639,7.639,7.639,7.639,7.639,7.639,7.639,7.639,7.639,7.639,7.639,7.639,7.6494,7.6733,7.7007,7.7228,7.7511,7.7776,7.8022,7.8409,8.1073,8.2355,8.2757,8.5546,8.7131,8.7768,8.701,8.7158,8.7768,8.6983,8.6724,8.6724,8.6724,8.6724,8.6724,8.6724,8.6724,8.6724,8.6724,8.6724,8.6724,8.6724,8.6724,8.6724,8.6724,8.6724,8.6724,8.6724,8.6724,8.673,8.696,8.7026,8.7092,8.7322,8.8314,8.9168,8.9168,9.0352,9.1306,9.1306,9.2526,9.3446,9.3446,9.4465,9.5251,9.5251,9.5251,9.5251,9.5251,9.5251,9.5251,9.5251,9.5251,9.5251,9.5251,9.5251,9.5251,9.5251,9.5251,9.5251,9.5251,9.5251,9.5161,9.4917,9.4917,9.4148,3.6009,3.7653,3.9691,4.2161,4.2744,4.2801,4.2998,4.3054,4.2772,4.187,4.2406,4.3203,4.3783,4.64,4.9083,5.093,5.5716,6.1221,6.7038,7.0295,7.2644,7.4066,7.5527,7.639,7.639,7.639,7.639,7.639,7.639,7.639,7.639,7.639,7.639,7.639,7.639,7.639,7.639,7.639,7.6416,7.6442,7.6733,7.6982,7.7228,7.7511,7.8415,7.9864,8.15,8.2921,8.4177,8.5973,8.6773,8.6875,8.6746,8.6773,8.6875,8.6746,8.6724,8.6724,8.6724,8.6724,8.6724,8.6724,8.6724,8.6724,8.6724,8.6724,8.6724,8.6724,8.6724,8.6724,8.6724,8.6724,8.6724,8.6724,8.6724,8.7026,8.8248,8.8511,8.8872,9.0056,9.0512,9.0615,9.0615,9.1832,9.2789,9.2789,9.4005,9.4892,9.4892,9.512,9.5251,9.5251,9.5251,9.5251,9.5251,9.5251,9.5251,9.5251,9.5251,9.5251,9.5251,9.5251,9.5251,9.5251,9.5251,9.5251,9.5251,9.5251,9.4611,9.3429,9.3429,9.2666,3.697,3.8984,4.1283,4.4058,4.4239,4.3717,4.3717,4.3203,4.2575,4.1982,4.1277,4.1164,4.2518,4.4137,4.6361,4.9609,5.3226,5.745,6.2678,6.7662,7.1349,7.2897,7.5044,7.639,7.639,7.639,7.639,7.639,7.639,7.639,7.639,7.639,7.639,7.639,7.639,7.639,7.639,7.639,7.639,7.639,7.6681,7.6829,7.6982,7.7386,7.8421,7.9957,8.1522,8.3053,8.4473,8.6072,8.6724,8.6724,8.6724,8.6724,8.6724,8.6724,8.6724,8.6724,8.6724,8.6724,8.6724,8.6724,8.6724,8.6724,8.6724,8.6724,8.6724,8.6724,8.6724,8.6724,8.6724,8.6724,8.6861,8.7684,8.7853,8.8248,8.9694,8.999,9.0188,9.0841,9.1601,9.216,9.216,9.3315,9.4268,9.4268,9.4824,9.5251,9.5251,9.5251,9.5251,9.5251,9.5251,9.5251,9.5251,9.5251,9.5251,9.5251,9.5251,9.5251,9.5251,9.5251,9.5251,9.5251,9.5251,9.4856,9.4085,9.4085,9.3334,9.1922,9.1922,9.1163,3.8962,0.0,4.3498,4.6195,4.591,4.4879,0.0,4.3604,4.2624,4.2011,4.0854,4.0318,4.1644,4.2582,4.4522,4.8608,5.1606,5.4811,5.8795,6.4393,6.8882,7.1063,7.4023,7.5908,7.5908,7.6202,7.639,7.639,7.639,7.639,7.639,7.639,7.639,7.639,7.639,7.639,7.639,7.639,7.639,7.639,7.6572,7.6733,7.681,7.7619,7.8786,8.0295,8.1996,8.3579,8.5026,8.6203,8.6724,8.6724,8.6724,8.6724,8.6724,8.6724,8.6724,8.6724,8.6724,8.6724,8.6724,8.6724,8.6724,8.6724,8.6724,8.6724,8.6724,8.6724,8.6724,8.6724,8.6724,8.6927,8.7486,8.8577,8.9103,8.9727,9.1174,9.147,9.1569,9.1897,9.2854,9.361,9.361,9.4531,9.5251,9.5251,9.5251,9.5251,9.5251,9.5251,9.5251,9.5251,9.5251,9.5251,9.5251,9.5251,9.5251,9.5251,9.5251,9.5251,9.5251,9.5251,9.5251,9.5251,9.5251,9.4702,9.3617,9.327,9.2214,9.0455,9.0455,8.9703,0.0,4.5528,4.6747,4.782,4.7207,4.6017,4.4794,4.3604,0.0,3.981,4.1023,4.1841,3.9725,4.211,4.4901,4.644,4.9822,5.3686,5.7841,6.084,6.4159,6.8387,7.2281,7.4602,7.4602,7.5665,7.639,7.639,7.639,7.639,7.639,7.639,7.639,7.639,7.639,7.639,7.639,7.639,7.639,7.639,7.639,7.6546,7.6816,7.8455,8.0108,8.1774,8.348,8.5091,8.6532,8.6631,8.6724,8.6724,8.6724,8.6724,8.6724,8.6724,8.6724,8.6724,8.6724,8.6724,8.6724,8.6724,8.6724,8.6724,8.6724,8.6724,8.6724,8.6724,8.6724,8.6724,8.6724,8.7684,8.8708,8.884,8.9859,9.1207,9.2657,9.2953,9.3347,9.4692,9.5021,9.512,9.512,9.5185,9.5251,9.5251,9.5251,9.5251,9.5251,9.5251,9.5251,9.5251,9.5251,9.5251,9.5251,9.5251,9.5251,9.5251,9.5251,9.5251,9.5251,9.5251,9.5251,9.5251,9.5251,9.5191,9.5101,9.3742,9.1692,8.8968,8.8968,8.822,4.712,4.7667,4.745,4.9998,4.9068,4.7235,4.5994,4.4754,4.34,4.17,4.1446,4.1523,4.139,4.2498,4.4359,4.7174,5.0161,5.3238,5.6531,5.9884,6.3623,6.798,7.2716,7.5638,7.5638,7.6097,7.639,7.639,7.639,7.639,7.639,7.639,7.639,7.639,7.639,7.639,7.639,7.639,7.639,7.639,7.639,7.6442,7.661,7.8299,7.9983,8.1668,8.3378,8.5127,0.0,8.6724,8.6724,8.6724,8.6724,8.6724,8.6724,8.6724,8.6724,8.6724,8.6724,8.6724,8.6724,8.6724,8.6724,8.6724,8.6724,8.6724,8.6724,8.6724,8.6724,8.6724,8.6724,8.7782,8.907,8.9957,9.1273,9.2719,9.4136,9.4432,9.4597,9.5152,9.5251,9.5251,9.5251,9.5251,9.5251,9.5251,9.5251,9.5251,9.5251,9.5251,9.5251,9.5251,9.5251,9.5251,9.5251,9.5251,9.5251,9.5251,9.5251,9.4856,9.3961,9.393,9.3492,9.2601,9.2601,9.2601,9.2601,9.113,8.9426,8.7525,8.7525,8.7234,5.0366,5.0354,4.9576,5.2051,5.1014,4.8988,4.7399,4.6023,4.4697,4.3083,4.2349,4.2131,4.266,4.3414,4.4939,4.7931,5.0785,5.351,5.598,5.9635,6.3518,6.7491,7.1196,7.4052,7.5633,7.615,7.639,7.639,7.639,7.639,7.639,7.639,7.6176,7.5802,7.5744,7.5992,7.639,7.639,7.639,7.639,7.639,7.6648,7.7131,7.8815,8.0479,8.209,8.3875,8.5358,8.6527,8.6637,8.6724,8.6724,8.6724,8.6724,8.6724,8.6724,8.6724,8.6724,8.6724,8.6724,8.6724,8.6724,8.6724,8.6724,8.6724,8.6724,8.6724,8.6724,8.6724,8.6724,8.6724,8.8111,8.976,9.0742,9.2423,9.4071,9.5054,9.5251,9.5251,9.5251,9.5251,9.5251,9.5251,9.5251,9.5251,9.5251,9.5251,9.5251,9.5251,9.5251,9.5251,9.5251,9.5251,9.5071,9.4611,9.501,9.4856,9.3962,9.4302,9.393,9.2505,9.2441,9.1954,9.0994,9.0961,9.0961,9.0961,8.9561,8.8327,8.738,8.6898,8.6468,5.2776,5.3884,5.3697,5.3852,5.2988,5.1431,4.8847,4.732,4.5786,4.333,4.3717,4.4146,4.2998,4.4826,4.6886,4.8213,5.1465,5.4472,5.6337,5.9828,6.3372,6.6514,6.6975,6.9052,7.3979,7.5612,7.6364,7.639,7.639,7.639,7.6364,7.6364,7.5776,7.4493,7.4434,7.5067,7.6364,7.639,7.639,7.639,7.639,7.7164,7.8581,8.0297,8.1829,8.3314,8.5262,8.6131,8.6126,8.6527,8.6664,8.6664,8.6697,8.6724,8.6724,8.6724,8.6724,8.6724,8.6724,8.6724,8.6724,8.6724,8.6724,8.6724,8.6724,8.6724,8.6724,8.6724,8.6724,8.6724,8.6724,8.8802,9.0972,9.0972,9.318,9.5251,9.5251,9.5251,9.5251,9.5251,9.5251,9.5251,9.5251,9.5251,9.5251,9.5251,9.5251,9.5251,9.5251,9.5251,9.5251,9.5251,9.5221,9.4641,9.3207,9.4394,9.3993,9.1161,9.2279,9.2441,9.0994,9.0927,9.0927,9.0927,9.0927,9.0927,9.0958,8.9495,8.8792,8.8757,8.7344,8.5989,5.5422,5.5842,5.5367,5.6233,5.4877,5.2903,5.1321,4.9266,4.7263,4.5678,4.4901,4.4428,4.4062,4.5346,4.7169,4.9286,5.223,5.5131,5.7593,6.0629,6.3663,6.6542,6.7711,6.9903,7.403,7.4792,7.5394,7.6312,7.639,7.596,7.5067,7.4218,7.3607,7.3209,7.4021,7.4629,7.5013,7.5908,7.639,7.639,7.639,7.7164,7.8581,8.0021,8.1577,8.3286,8.488,8.5662,8.5858,8.5942,8.603,8.6025,8.6219,8.627,8.633,8.6582,8.6724,8.6724,8.6724,8.6724,8.6724,8.6724,8.6724,8.6724,8.6724,8.6724,8.6724,8.6724,8.6724,8.6724,8.6724,8.8802,9.0972,9.0972,9.318,9.5251,9.5251,9.5251,9.5251,9.5251,9.5251,9.5251,9.5251,9.5251,9.5251,9.5251,9.5251,9.5251,9.5251,9.5251,9.5251,9.5251,9.3461,9.2051,9.1658,9.2018,9.1855,9.1027,9.1361,9.0961,8.9561,8.9491,8.9003,8.797,8.7934,8.7934,8.7934,8.7531,8.7344,8.7344,8.6898,8.5989,5.7717,5.7748,5.6764,5.8006,5.6456,5.4171,5.2475,5.0475,4.8645,4.7456,4.6587,4.6005,4.6005,4.7461,4.9221,5.0814,5.3775,5.6717,5.9107,6.1809,6.4567,6.7319,6.8397,7.0154,7.3457,7.3266,7.3491,7.4828,7.491,7.436,7.3039,7.2323,7.1914,7.1914,7.261,7.3209,7.3743,7.4524,7.5153,7.5644,7.6186,7.7451,7.936,8.0717,8.225,8.3898,8.4885,8.5444,8.5581,8.5662,8.5718,8.5746,8.5881,8.6021,8.6126,8.6385,8.6582,8.6724,8.6724,8.6724,8.6724,8.6724,8.6724,8.6724,8.6724,8.6724,8.6724,8.6724,8.6724,8.6724,8.6724,8.798,8.9558,9.0709,9.2719,9.4531,9.5152,9.5251,9.5251,9.5251,9.5251,9.5251,9.5251,9.5251,9.5251,9.5251,9.5251,9.5038,9.4488,9.4394,9.4179,9.3587,9.2018,9.0725,9.0183,9.0624,9.0489,8.9352,8.9806,8.946,8.8041,8.797,8.7567,8.6714,8.6677,8.6677,8.6677,8.6677,8.6677,8.6677,8.6169,8.5517,5.9444,5.9432,5.8003,5.9185,5.7698,5.5327,5.2955,5.1346,4.9991,4.8806,4.8363,4.8231,4.8368,5.0418,5.2239,5.2743,5.5812,5.88,6.0742,6.3167,6.5733,6.8337,6.8885,6.9926,7.2294,7.1473,7.1294,7.2612,7.2698,7.209,7.0693,7.0602,7.0602,7.0602,7.0693,7.1324,7.2525,7.2641,7.3238,7.4301,7.5743,7.7723,8.0165,8.1575,8.3018,8.4396,8.4748,8.4925,8.4921,8.5147,8.5318,8.5432,8.5492,8.5714,8.6048,8.6076,8.6302,8.6582,8.6582,8.6609,8.6637,8.6637,8.6609,8.6582,8.6582,8.6609,8.6637,8.6637,8.6697,8.6724,8.6724,8.6724,8.7355,9.0089,9.1963,9.3512,9.4955,9.5251,9.5251,9.5251,9.5251,9.5251,9.5251,9.5251,9.5251,9.5251,9.5161,9.458,9.327,9.2985,9.2311,9.0759,9.059,9.0046,8.8757,8.984,8.9491,8.6862,8.7928,8.8041,8.6751,8.6677,8.6677,8.6677,8.6677,8.6648,8.6528,8.6528,8.6438,8.6318,8.5121,8.4529,5.8936,5.9469,5.9126,5.9389,5.829,5.6767,5.5327,5.3266,5.1318,5.002,4.8927,4.8537,4.9544,5.1036,5.2805,5.5019,5.7114,5.9367,6.1982,6.3922,6.5643,6.726,6.8358,6.9584,7.1025,7.0905,7.1294,7.2612,7.2698,7.1739,6.949,6.9365,6.9365,6.9365,7.0267,7.0905,7.1175,7.2177,7.2842,7.3098,7.4433,7.591,7.7448,7.8782,8.0208,8.1542,8.1636,8.1667,8.1667,8.173,8.2411,8.3443,8.3679,8.4478,8.5525,8.5718,8.5858,8.5947,8.5947,8.6081,8.6242,8.6242,8.6109,8.5947,8.5947,8.6081,8.6242,8.6242,8.644,8.6724,8.6724,8.6724,8.7124,8.8872,9.1244,9.3512,9.4955,9.5251,9.5251,9.5251,9.5251,9.5251,9.5251,9.5251,9.5251,9.5251,9.4302,9.346,9.3144,9.2117,9.0455,8.7892,8.7604,8.7489,8.7161,8.7453,8.7344,8.6714,8.7008,8.6978,8.6714,8.6677,8.6677,8.6677,8.6677,8.6169,8.5187,8.5187,8.4642,8.3649,8.335,8.2662,5.894,5.9477,5.9589,6.0182,5.891,5.7387,5.6766,5.4735,5.276,5.2057,5.1355,5.113,5.1804,5.3465,5.5292,5.7004,5.8969,6.1147,6.3574,6.5144,6.6544,6.7853,6.8608,6.9238,6.9865,6.9926,7.0205,7.0875,7.0935,7.0388,6.9078,6.9015,6.9015,6.9015,6.9615,6.9926,6.9926,7.0602,7.1205,7.1798,7.3801,7.5382,7.6634,7.8628,7.9979,8.0687,8.0687,8.0687,8.0687,8.0687,8.1101,8.1854,8.2686,8.3531,8.439,8.5237,8.5577,8.5718,8.5718,8.583,8.5881,8.5774,8.5718,8.5718,8.5718,8.583,8.5909,8.5909,8.6164,8.6412,8.6412,8.6555,8.6861,8.7651,8.9464,9.1441,9.2884,9.4265,9.5251,9.5251,9.5251,9.5251,9.5251,9.4672,9.421,9.421,9.2985,9.1823,9.1163,8.9806,8.8362,8.6862,8.6677,8.6677,8.6677,8.6677,8.6677,8.6677,8.6677,8.6677,8.6677,8.6079,8.575,8.575,8.5151,8.4523,8.3834,8.3834,8.3469,8.2811,8.2183,8.1525,5.8996,5.9336,5.942,6.0602,5.9389,5.781,5.7613,5.595,5.4428,5.4257,5.4174,5.4257,5.4456,5.6202,5.7867,5.8628,6.0687,6.2872,6.4794,6.6133,6.7472,6.8869,6.9015,6.9015,6.9015,6.9015,6.9015,6.9015,6.9015,6.9015,6.9015,6.9015,6.9015,6.9015,6.9015,6.9015,6.9015,6.9015,6.949,7.048,7.3193,7.4988,7.602,7.8727,7.9977,7.9977,7.9977,7.9977,7.9977,7.9977,8.0107,8.0462,8.1636,8.2349,8.2927,8.4364,8.5036,8.5261,8.5464,8.5577,8.5577,8.5359,8.5383,8.5549,8.5549,8.5577,8.5666,8.5666,8.5858,8.6048,8.6071,8.6357,8.6609,8.6664,8.7787,8.9168,9.0352,9.2654,9.4564,9.4734,9.4997,9.5071,9.4732,9.368,9.2826,9.2666,9.1428,9.008,8.8968,8.7531,8.6604,8.6677,8.6677,8.6677,8.6677,8.6677,8.6588,8.6348,8.6348,8.6229,8.6019,8.4971,8.4403,8.4403,8.335,8.2691,8.2482,8.2482,8.2362,8.2058,8.1016,8.0508,5.8544,5.8657,5.8092,5.9391,5.9448,5.894,5.781,5.7274,5.6767,5.575,5.5524,5.5863,5.688,5.7612,5.8405,5.9514,6.1084,6.2811,6.4524,6.5798,6.7164,6.8838,6.9015,6.9015,6.9015,6.9015,6.9015,6.9015,6.9015,6.9015,6.9015,6.9015,6.9015,6.9015,6.9015,6.9015,6.9015,6.9015,6.9078,6.9267,7.1777,7.3073,7.3297,7.5933,7.7134,7.7134,7.7134,7.7134,7.7134,7.7134,7.7896,7.8987,7.9186,7.9977,8.1196,8.2595,8.3143,8.3353,8.4484,8.5126,8.5298,8.4921,8.4864,8.4893,8.4893,8.5126,8.5387,8.5387,8.5581,8.583,8.6048,8.6159,8.627,8.6609,8.7787,8.8905,8.907,9.0385,9.181,9.273,9.3977,9.4368,9.2666,9.2215,9.1793,9.0896,8.9533,8.8656,8.8827,8.7277,8.6337,8.6641,8.6677,8.6677,8.6677,8.6677,8.6199,8.5061,8.5001,8.4493,8.338,8.317,8.308,8.308,8.2901,8.2243,8.1136,8.1136,8.0473,7.9277,7.9098,7.9038,5.7133,5.8008,5.8572,5.8431,5.894,5.9307,5.877,5.8064,5.7387,5.6879,5.6795,5.6936,5.7444,5.8263,5.9172,6.0057,6.1917,6.3675,6.4791,6.6679,6.8189,6.8896,6.9015,6.9015,6.9015,6.9015,6.9015,6.9015,6.9015,6.9015,6.9015,6.9015,6.9015,6.9015,6.9015,6.9015,6.9015,6.9015,6.9015,6.9044,7.0847,7.2069,7.2733,7.4657,7.5873,7.66,7.66,7.66,7.66,7.66,7.6955,7.7588,7.841,7.9083,7.9746,8.1101,8.2134,8.2901,8.3475,8.3265,8.2687,8.2503,8.2992,8.3654,8.3654,8.4279,8.5011,8.5011,8.5241,8.5525,8.5666,8.5774,8.5942,8.6114,8.6632,8.7318,8.8131,8.8785,8.9607,9.0869,9.2307,9.2795,9.1034,9.0729,9.0293,8.9046,8.7646,8.6225,8.4971,8.4102,8.3688,8.3841,8.3841,8.3841,8.3841,8.3841,8.3604,8.3039,8.301,8.2772,8.2172,8.143,8.1044,8.1044,8.0541,8.0024,7.9457,7.9598,7.9337,7.8705,7.8705,7.8705,5.6147,5.7359,5.8375,5.7697,5.829,5.9081,5.942,5.8967,5.8571,5.8881,5.8995,5.8995,5.8995,5.962,6.0308,6.0743,6.2752,6.443,6.4938,6.7234,6.8888,6.8983,6.9015,6.9015,6.9015,6.9015,6.9015,6.9015,6.9015,6.9015,6.9015,6.9015,6.9015,6.9015,6.9015,6.9015,6.9015,6.9015,6.9015,6.9044,7.0356,7.1432,7.233,7.3901,7.518,7.6105,7.6454,7.66,7.66,7.66,7.66,7.6676,7.776,7.8173,7.8342,7.968,8.0846,8.1761,8.1761,8.129,8.0687,8.0687,8.1385,8.2319,8.2688,8.3233,8.3864,8.4542,8.4455,8.425,8.4658,8.4655,8.4562,8.4681,8.4648,8.5054,8.6466,8.678,8.7291,8.9106,9.0247,9.0669,8.988,8.9068,8.8033,8.6692,8.5301,8.3683,8.1738,8.1466,8.1502,8.164,8.164,8.164,8.164,8.164,8.1492,8.1168,8.1138,8.0991,8.0666,7.9722,7.922,7.922,7.8523,7.819,7.819,7.8364,7.8465,7.8465,7.8465,7.8465,5.6262,5.6738,5.623,5.7274,5.7613,5.7951,5.9194,6.0293,6.1392,6.2632,6.2886,6.2886,6.2886,6.2441,6.2,6.1792,6.3297,6.4579,6.4727,6.6892,6.8605,6.8983,6.9015,6.9015,6.9015,6.9015,6.9015,6.9015,6.9015,6.9015,6.9015,6.9015,6.9015,6.9015,6.9015,6.9015,6.9015,6.9015,6.9015,6.9044,7.0356,7.0996,7.1141,7.3556,7.4691,7.4802,7.6018,7.66,7.66,7.66,7.66,7.657,7.6641,7.6676,7.6885,7.8308,7.8883,7.895,7.895,7.9713,8.0687,8.0687,8.0719,8.1037,8.2381,8.1917,8.1416,8.4012,8.2901,8.126,8.2897,8.2317,8.1387,8.1761,8.1854,8.2194,8.3529,8.3796,8.4658,8.7433,8.7703,8.7987,8.9379,8.706,8.4585,8.3417,8.213,8.1257,8.111,8.111,8.1219,8.1604,8.164,8.164,8.164,8.164,8.1109,7.987,7.9781,7.925,7.8011,7.7893,7.7863,7.7863,7.7804,7.7809,7.7809,7.778,7.7814,7.7814,7.7814,7.7814,5.1536,5.3158,5.4652,5.5075,5.578,5.6738,5.7951,5.8543,5.922,6.0519,6.1422,6.1927,6.1927,6.1742,6.1445,6.1028,6.281,6.446,6.4909,6.7172,6.8857,6.8983,6.9015,6.9015,6.9015,6.9015,6.9015,6.9015,6.9015,6.9015,6.9015,6.9015,6.9015,6.9015,6.9015,6.9015,6.9015,6.9015,6.9015,6.9015,6.948,7.012,7.0996,7.1869,7.2679,7.3465,7.4773,7.5326,7.5413,7.6222,7.66,7.66,7.66,7.66,7.667,7.7169,7.7935,7.8582,7.7691,7.7657,7.8071,7.8071,7.8683,7.9516,8.004,8.0398,8.0878,8.1854,8.1416,8.0814,8.1417,8.1196,8.0817,8.0975,8.1038,8.1134,8.1605,8.173,8.201,8.3037,8.3132,8.3509,8.4982,8.3424,8.1866,8.1446,7.953,7.8186,7.8186,7.8186,7.8222,7.8393,7.8393,7.8393,7.8393,7.8393,7.8188,7.775,7.7691,7.7487,7.7019,7.7019,7.7019,7.7019,7.7233,7.7371,7.7371,7.7642,7.7775,7.7775,7.7775,7.7775,4.7451,4.9512,5.1646,5.1987,5.3004,5.4423,5.6484,5.7246,5.8036,5.9701,6.1055,6.1899,6.1899,6.2053,6.21,6.1746,6.3245,6.4641,6.5088,6.6979,6.852,6.8925,6.9015,6.9015,6.9015,6.9015,6.9015,6.9015,6.9015,6.9015,6.9015,6.9015,6.9015,6.9015,6.9015,6.9015,6.9015,6.9015,6.9015,6.9015,6.9015,6.9451,7.0294,7.0763,7.1403,7.2185,7.3435,7.3988,7.4046,7.4913,7.5291,7.532,7.5757,7.5902,7.596,7.6425,7.6646,7.6598,7.5606,7.5553,7.5902,7.5902,7.6857,7.8105,7.8582,7.8987,7.9486,8.043,8.0009,7.9417,7.9879,7.965,7.9285,7.9285,7.9285,7.942,7.9911,8.0009,8.0139,8.059,8.0687,8.0995,8.192,8.1222,8.0413,7.9964,7.8429,7.7134,7.667,7.66,7.66,7.66,7.66,7.66,7.66,7.66,7.66,7.66,7.66,7.66,7.66,7.66,7.66,7.66,7.685,7.699,7.699,7.7228,7.7366,7.7366,7.7366,7.7366,4.4399,4.6034,4.7129,4.8161,4.9193,5.0926,5.465,5.6428,5.7922,6.0431,6.2068,6.2999,6.2971,6.3582,6.4066,6.404,6.4612,6.5059,6.5118,6.6253,6.7533,6.8782,6.8986,6.9015,6.9015,6.9015,6.9015,6.9015,6.9015,6.9015,6.9015,6.9015,6.9015,6.9015,6.9015,6.9015,6.9015,6.9015,6.9015,6.9015,6.9015,6.9015,6.9073,7.0294,7.0909,7.0967,7.2127,7.2617,7.2617,7.2708,7.2675,7.2825,7.4075,7.457,7.4715,7.5989,7.4855,7.2675,7.2675,7.3523,7.457,7.457,7.5442,7.6734,7.8122,7.7602,7.7076,7.972,7.8619,7.692,7.8308,7.7622,7.66,7.66,7.66,7.699,7.8376,7.8649,7.905,8.0301,8.0558,8.0558,8.0558,8.0558,8.0107,7.885,7.8649,7.8173,7.6781,7.66,7.66,7.66,7.66,7.66,7.66,7.66,7.66,7.66,7.66,7.66,7.66,7.66,7.657,7.6541,7.6541,7.6512,7.6483,7.6483,7.6483,7.6483,7.6483,7.6483,3.9733,4.1522,4.3244,4.4507,4.5018,4.5975,4.8819,4.9707,5.083,5.398,5.6992,5.8825,5.798,6.0363,6.2255,6.1575,6.2587,6.3806,6.4972,6.6253,6.7184,6.7562,6.8404,6.9015,6.9015,6.9015,6.9015,6.9015,6.9015,6.9015,6.9015,6.9015,6.9015,6.9015,6.9015,6.9015,6.9015,6.9015,6.9015,6.9015,6.9015,6.9015,6.9044,6.9364,6.9538,6.9596,7.0876,7.1429,7.1487,7.2359,7.2675,7.2737,7.3086,7.3261,7.329,7.3634,7.3315,7.2675,7.2675,7.2941,7.3261,7.3261,7.3494,7.3852,7.4226,7.4764,7.5352,7.608,7.6441,7.6705,7.7065,7.6885,7.66,7.66,7.66,7.6676,7.7065,7.7169,7.7307,7.7657,7.7725,7.7725,7.7725,7.7725,7.7588,7.7238,7.7169,7.7059,7.667,7.66,7.66,7.66,7.66,7.66,7.66,7.66,7.66,7.66,7.66,7.66,7.66,7.66,7.6134,7.521,7.518,7.4715,7.3751,7.3751,7.3751,7.3751,7.3751,7.3751,3.5461,3.7157,3.9114,4.0342,4.0953,4.1999,4.4863,4.5507,4.6461,4.9848,5.2619,5.4735,5.5609,5.781,5.9828,6.1002,6.2068,6.3139,6.4157,6.5408,6.6457,6.7011,6.7737,6.8171,6.8171,6.8695,6.9015,6.9015,6.9015,6.9015,6.9015,6.9015,6.9015,6.9015,6.9015,6.9015,6.9015,6.9015,6.9015,6.9015,6.9015,6.9015,6.9015,6.9015,6.9015,6.9073,6.98,7.012,7.0178,7.0876,7.1167,7.1225,7.1749,7.1981,7.1894,7.1371,7.1167,7.1167,7.1167,7.1516,7.1981,7.1981,7.2301,7.2675,7.2675,7.3232,7.3814,7.3814,7.4395,7.4943,7.4943,7.535,7.5791,7.5791,7.6193,7.66,7.66,7.66,7.66,7.66,7.66,7.66,7.66,7.66,7.66,7.66,7.66,7.66,7.66,7.66,7.66,7.66,7.66,7.6367,7.5849,7.5791,7.5524,7.4972,7.4943,7.4943,7.4943,7.4943,7.4628,7.3843,7.3814,7.3465,7.2675,7.2675,7.2675,7.2675,7.2675,7.1767,3.1729,3.3135,3.4865,3.5891,3.6792,3.8223,0.0,4.2259,4.3217,4.6559,4.8317,5.0304,5.3783,5.4953,5.6726,6.0686,6.178,6.2358,6.285,6.407,6.5321,6.6486,6.6631,6.672,6.6836,6.7997,6.8782,6.8782,6.8928,6.9015,6.9015,6.9015,6.9015,6.9015,6.9015,6.9015,6.9015,6.9015,6.9015,6.9015,6.9015,6.9015,6.9015,6.9015,6.9015,6.9015,6.9015,6.9015,6.9015,6.9015,6.9015,6.9131,7.0298,7.0734,7.0618,6.9451,6.9015,6.9015,6.9015,6.9771,7.0734,7.0734,7.1429,7.2301,7.2301,7.2388,7.2505,7.2505,7.2621,7.2675,7.2675,7.3552,7.4458,7.4458,7.5326,7.6164,7.6164,7.628,7.6367,7.6367,7.6483,7.66,7.66,7.66,7.6483,7.6193,7.6164,7.6164,7.6164,7.6164,7.6164,7.6164,7.6164,7.5704,7.4512,7.4458,7.393,7.2796,7.2675,7.2675,7.2675,7.2675,7.265,7.2505,7.2505,7.2447,7.2301,7.2301,7.2301,7.2301,7.2301,7.0182,0.0,0.0,0.0,0.0,0.0,0.0,0.0,3.5514,3.6436,3.9591,4.2035,4.4016,4.5463,4.8443,5.1826,5.536,5.721,5.8974,6.1028,6.2589,6.3634,6.3896,6.3954,6.4332,6.5409,6.666,6.7417,6.7417,6.8404,6.9015,6.9015,6.9015,6.9015,6.9015,6.9015,6.9015,6.9015,6.9015,6.9015,6.9015,6.9015,6.9015,6.9015,6.9015,6.9015,6.9015,6.9015,6.9015,6.9015,6.9015,6.9015,6.9044,6.9277,6.9393,6.9364,6.9102,6.9015,6.9015,6.9015,6.9189,6.9393,6.9393,6.9538,6.9742,6.9742,7.0469,7.1283,7.1283,7.1981,7.2675,7.2675,7.2912,7.3053,7.3053,7.329,7.3431,7.3431,7.4279,7.5006,7.5006,7.5844,7.66,7.66,7.66,7.5873,7.3751,7.3431,7.3431,7.3431,7.3431,7.3431,7.3431,7.3431,7.3377,7.3116,7.3053,7.297,7.2704,7.2675,7.2675,7.2675,7.2675,7.2272,7.1316,7.1283,7.076,6.9742,6.9742,6.9742,6.9742,6.9742,6.811,0.0,0.0,0.0,0.0,0.0,0.0,0.0,0.0,0.0,0.0,0.0,3.9344,4.213,0.0,4.764,5.1493,5.4182,5.66,5.8882,6.0821,6.1806,6.128,6.1832,6.2704,6.4042,6.5321,6.6369,6.6981,6.7679,6.8317,6.8986,6.9015,6.9015,6.9015,6.9015,6.9015,6.9015,6.9015,6.9015,6.9015,6.9015,6.9015,6.9015,6.9015,6.9015,6.9015,6.9015,6.9015,6.9015,6.9015,6.9015,6.9015,6.9015,6.9015,6.9015,6.9015,6.9015,6.9015,6.9015,6.9015,6.9015,6.9015,6.9015,6.9015,6.9015,6.9451,6.9975,6.9975,7.0411,7.0876,7.0876,7.1341,7.1807,7.1807,7.2272,7.2675,7.2675,7.3203,7.3668,7.3668,7.4221,7.4623,7.4623,7.4623,7.4187,7.2879,7.2675,7.2675,7.2675,7.2675,7.2675,7.2675,7.2675,7.2675,7.2675,7.2156,7.1807,7.1807,7.1225,7.0876,7.0876,7.0876,7.0585,7.0004,6.9337,6.8697,6.8057,6.7357,6.7066,6.7006,6.5184,6.3514,0.0,0.0,0.0,0.0,0.0,0.0,0.0,0.0,0.0,0.0,0.0,0.0,0.0,0.0,0.0,4.7788,5.1029,5.382,5.6302,5.7962,5.8804,5.8525,5.9712,6.1018,6.2297,6.3605,6.4885,6.6195,6.6544,6.7242,6.8549,6.8637,6.8753,6.9015,6.9015,6.9015,6.9015,6.9015,6.9015,6.9015,6.9015,0.0,6.9015,6.9015,6.9015,6.9015,6.9015,6.9015,6.9015,6.9015,6.9015,6.9015,6.9015,6.9015,6.9015,6.9015,6.9015,6.9015,6.9015,6.9015,6.9015,6.9015,6.9015,6.9015,6.9015,6.9015,0.0,6.9015,6.9015,6.9015,6.9015,6.9771,7.0589,7.0589,7.1312,7.1977,7.1977,7.2185,7.2388,7.2388,7.2563,7.2675,7.2675,7.233,7.1977,7.1977,7.1977,7.1977,7.1977,7.1977,7.1977,7.1977,7.1977,7.1977,7.1977,7.1109,7.0589,7.0589,6.9596,6.9015,6.9015,6.9015,6.8898,6.8637,6.7592,6.6953,6.672,6.535,6.474,6.4623,6.0056,5.7786,0.0,0.0,0.0,0.0,0.0,0.0,0.0,0.0,0.0,0.0,0.0,0.0,0.0,0.0,0.0,0.0,4.6122,4.9034,5.285,5.2617,5.2946,5.5391,5.7015,5.8426,5.9621,6.0902,6.2181,6.3518,6.4681,6.5933,6.7213,6.7271,0.0,0.0,0.0,6.9015,6.9015,6.9015,6.9015,6.9015,6.9015,6.9015,6.9015,6.9015,6.9015,6.9015,6.9015,6.9015,6.9015,6.9015,6.9015,6.9015,6.9015,6.9015,6.9015,6.9015,6.9015,6.9015,6.9015,0.0,0.0,6.9015,6.9015,6.9015,6.9015,6.9015,6.9015,6.9015,6.9015,6.9015,6.9015,6.9131,6.9218,6.9218,6.9303,6.9422,6.9422,7.0324,7.117,7.117,7.1981,7.2675,7.2675,7.0876,6.9422,6.9422,6.9422,6.9422,6.9422,6.9422,6.9422,6.9422,6.9422,0.0,6.9422,6.9306,6.9218,6.9218,6.9102,6.9015,6.9015,6.9015,6.8462,6.7301,6.7157,6.6486,6.5321,6.4042,6.3373,6.3227,5.5387,5.1644,0.0,0.0,0.0,0.0,0.0,0.0,0.0,0.0,0.0,0.0,0.0,0.0,0.0,0.0,0.0,0.0,4.1456,4.4596,4.7194,4.7497,4.9036,5.3352,5.4581,5.586,5.7864,5.8668,5.9592,6.0815,6.2123,6.3431,6.474,6.5555,6.6195,6.6717,6.7504,6.7883,6.7883,6.8637,6.9015,6.9015,6.9015,6.9015,6.9015,6.9015,6.9015,6.9015,6.9015,6.9015,6.9015,6.9015,6.9015,6.9015,0.0,0.0,0.0,0.0,6.9015,6.9015,6.9015,6.9015,6.9015,6.9015,6.9015,6.9015,6.9015,6.9015,6.9015,6.9015,6.9015,6.9015,6.9015,6.9015,6.9015,6.9015,6.9015,6.9015,6.9015,6.9451,6.9829,6.9829,7.0236,0.0,7.0585,6.9681,6.9015,6.9015,6.9015,6.9015,6.9015,6.9015,6.9015,6.9015,6.9015,6.9015,6.9015,6.9015,0.0,0.0,0.0,6.9015,6.9015,6.9015,0.0,0.0,0.0,6.2387,5.9798,5.8507,0.0,0.0,4.7236,4.5181,0.0,0.0,0.0,0.0,0.0,0.0,0.0,0.0,0.0,0.0,0.0,0.0,0.0,0.0,0.0,0.0,3.7504,4.0274,4.1196,4.265,4.5152,4.9427,5.1002,5.2604,5.4862,5.5616,5.6422,5.7538,5.89,6.0262,6.1569,6.282,6.3838,6.4565,6.5526,6.6166,6.6515,6.7444,6.7939,6.7939,6.7939,6.8142,6.8462,6.8462,6.8666,6.9015,6.9015,6.9015,6.9015,6.9015,6.9015,6.8957,6.823,6.7939,6.7939,6.7939,6.7939,6.7939,6.7939,6.7939,6.7939,6.7939,6.7939,6.7939,6.7939,6.7939,6.7939,6.7939,6.82,6.8462,6.8462,6.8753,6.9015,6.9015,6.9015,6.9015,6.9015,6.9015,6.9015,6.9015,6.8724,6.8375,6.7997,6.823,6.8462,6.8462,6.8782,6.9015,6.9015,6.9015,6.9015,6.9015,6.9015,6.9015,6.9015,6.9015,6.9015,6.9015,6.9015,6.8869,6.8491,6.8462,6.7241,6.4623,6.1367,5.7971,0.0,0.0,0.0,0.0,0.0,0.0,0.0,0.0,0.0,0.0,0.0,0.0,0.0,0.0,0.0,0.0,0.0,0.0,0.0,0.0,0.0,0.0,0.0,0.0,3.5354,3.8125,4.075,4.2343,4.5628,4.8303,4.9678,5.106,5.2312,5.34,5.4903,5.6334,5.764,5.8807,6.0639,6.314,6.3256,6.3896,6.5147,6.5205,6.5234,6.5234,6.5234,6.5874,6.7097,6.7097,6.7824,6.9015,6.9015,6.9015,6.9015,6.9015,6.9015,6.8753,6.6223,6.5234,6.5234,6.5234,6.5234,6.5234,6.5234,6.5234,6.5234,6.5234,6.5234,6.5234,6.5234,6.5234,6.5234,6.5234,6.6166,6.7097,6.7097,6.8057,6.9015,6.9015,6.9015,6.9015,6.9015,6.9015,6.9015,6.9015,6.7999,6.6719,6.5438,6.6282,6.7097,6.7097,6.8171,0.0,6.9015,6.9015,6.9015,6.9015,6.9015,6.9015,6.9015,6.9015,6.9015,6.9015,6.9015,6.8433,6.7186,6.7097,6.5904,6.3285,5.8314,5.4097,5.0699,0.0,0.0,0.0,0.0,0.0,0.0,0.0,0.0,0.0,0.0,0.0,0.0,0.0,0.0,0.0,0.0,0.0,0.0,0.0,0.0,0.0,0.0,0.0,0.0,3.6052,3.8302,4.0618,4.257,4.4065,4.4856,4.6155,4.7036,4.7212,5.0,5.1871,5.224,5.4336,5.636,5.8109,5.8817,5.9861,6.125,6.2792,6.3662,6.3838,6.471,6.5351,6.5788,6.5788,6.602,6.6426,6.6426,6.6426,6.6426,6.6426,6.5318,6.3516,6.2821,6.253,6.253,6.253,6.253,6.253,6.253,6.2444,6.2271,6.2271,6.2271,6.23,6.2501,6.253,6.253,6.253,6.3489,6.4478,6.4478,6.6077,6.7708,6.7708,6.8375,6.9015,6.9015,6.9015,6.8753,6.7883,6.5143,6.2792,6.2358,6.3518,6.4419,6.4271,6.5493,6.6746,6.7621,6.7708,6.8057,6.8928,6.9015,6.9015,6.9015,6.9015,6.9015,6.9015,6.8171,6.7533,6.7068,6.5438,6.3256,6.064,5.6448,5.262,4.922,0.0,0.0,0.0,0.0,0.0,0.0,0.0,0.0,0.0,0.0,0.0,0.0,0.0,0.0,0.0,0.0,0.0,0.0,0.0,0.0,0.0,0.0,0.0,0.0,0.0,0.0,3.7095,3.8778,0.0,4.0513,4.1757,4.2455,4.2216,4.4947,4.6717,4.6937,4.913,5.1348,5.3362,5.4049,5.5269,5.7134,5.9006,6.0075,6.0355,6.1602,6.2444,6.2879,6.2879,6.3111,6.3458,6.3458,6.3458,6.3314,6.1518,5.9642,5.8033,5.8168,5.8251,5.8251,5.8251,5.8305,5.8386,5.8386,5.8276,5.8141,5.8141,5.8087,5.8033,5.8195,5.8251,5.8278,5.8359,5.966,6.105,6.1134,6.3402,6.57,6.57,6.6659,6.7619,6.7619,6.7177,6.619,6.4071,6.1137,5.8799,5.8228,5.9723,6.0937,6.0796,6.2792,6.4622,6.5554,6.6486,6.7388,6.823,6.8724,6.9015,6.9015,6.9015,6.8811,6.8346,6.7533,6.6428,6.503,6.2908,6.0146,5.6654,5.2933,4.9124,0.0,0.0,0.0,0.0,0.0,0.0,0.0,0.0,0.0,0.0,0.0,0.0,0.0,0.0,0.0,0.0,0.0,0.0,0.0,0.0,0.0,0.0,0.0,0.0,0.0,0.0,0.0,3.1767,3.4209,0.0,0.0,0.0,0.0,3.8269,3.9786,4.1051,4.1804,4.3376,4.5764,4.9084,4.9067,5.0278,5.2922,5.3989,5.4675,5.5018,5.6151,5.745,5.8693,5.8693,5.9274,6.0257,6.0199,6.017,5.9769,5.4607,5.246,5.246,5.2485,5.2513,5.2513,5.2513,5.2662,5.2889,5.286,5.286,5.2835,5.2835,5.2687,5.2485,5.2489,5.2485,0.0,0.0,5.4758,5.6802,5.7067,5.9971,6.2878,6.2878,6.3954,6.4914,6.4914,6.3691,6.1518,5.7823,5.5989,5.458,5.3115,0.0,5.661,5.6721,5.9987,6.2532,6.2937,6.5234,6.6953,6.7069,6.823,6.8986,6.8928,6.8898,6.8346,6.7039,6.6835,6.5059,6.1281,5.971,5.6567,5.1594,4.7823,0.0,0.0,0.0,0.0,0.0,0.0,0.0,0.0,0.0,0.0,0.0,0.0,0.0,0.0,0.0,0.0,0.0,0.0,0.0,0.0,0.0,0.0,0.0,0.0,0.0,0.0,2.6545,2.8207,2.8541,3.0438,3.1507,0.0,0.0,0.0,0.0,0.0,0.0,3.698,3.9197,4.1569,4.3999,4.3853,4.5344,4.8751,4.9809,5.0925,5.2034,5.3302,5.4595,5.5857,5.5857,5.6494,5.7505,5.6639,5.6238,5.5778,4.9514,4.6939,4.6961,4.7243,4.7361,4.7361,4.7361,4.7434,4.7472,4.7577,4.7481,4.7326,4.7326,4.7303,4.7214,4.7006,0.0,0.0,0.0,0.0,5.1296,5.1512,5.5117,5.8734,5.8925,6.0668,6.221,6.221,6.1136,5.8442,5.2464,4.9314,4.7519,4.7108,4.933,0.0,5.0954,5.4468,5.7875,5.9867,6.2501,6.4914,6.6835,6.823,6.8608,6.765,6.7562,6.701,6.57,6.378,6.1832,5.9855,5.584,5.207,4.8732,0.0,0.0,0.0,0.0,0.0,0.0,0.0,0.0,0.0,0.0,0.0,0.0,0.0,0.0,0.0,0.0,0.0,0.0,0.0,0.0,0.0,0.0,0.0,0.0,0.0,0.0,0.0,2.3712,2.5606,2.5921,2.7119,2.7807,0.0,0.0,0.0,0.0,0.0,0.0,0.0,0.0,0.0,3.9032,3.8972,4.0373,4.3461,4.4881,4.6016,4.6945,4.8574,5.0076,5.1306,5.1306,5.1918,5.2825,5.1676,5.0309,4.8637,4.4731,4.2934,4.266,0.0,0.0,0.0,0.0,4.3285,4.3138,4.3569,4.3423,4.2962,4.2726,0.0,0.0,0.0,0.0,0.0,0.0,0.0,4.6678,4.689,4.9938,5.3127,5.3735,5.5384,5.6949,5.7472,5.4269,5.0159,4.6331,4.384,4.2305,4.222,4.4274,0.0,0.0,0.0,5.3406,5.6174,5.9373,6.2414,6.5089,6.6514,6.7212,6.7068,6.602,6.4798,6.3489,6.1018,5.8516,5.6073,5.2146,4.8101,0.0,0.0,0.0,0.0,0.0,0.0,0.0,0.0,0.0,0.0,0.0,0.0,0.0,0.0,0.0,0.0,0.0,0.0,0.0,0.0,0.0,0.0,0.0,0.0,0.0,0.0,0.0,0.0,0.0,2.2767,2.3391,0.0,0.0,0.0,0.0,0.0,0.0,0.0,0.0,0.0,0.0,0.0,0.0,0.0,3.541,3.7722,3.9614,4.0738,4.1165,4.3093,4.4713,4.5955,4.5955,4.6564,4.747,4.5683,0.0,4.0631,3.9903,0.0,0.0,0.0,0.0,0.0,0.0,0.0,0.0,0.0,0.0,0.0,0.0,0.0,0.0,0.0,0.0,0.0,0.0,0.0,0.0,0.0,0.0,4.6903,4.8,4.926,5.0329,5.0854,4.5272,4.0207,4.0207,3.906,3.8051,0.0,0.0,0.0,0.0,0.0,0.0,5.2153,5.6235,5.9895,6.2617,6.4245,6.5526,6.6457,6.4332,6.2297,6.0845,5.8225,5.508,5.1361,4.8373,0.0,0.0,0.0,0.0,0.0,0.0,0.0,0.0,0.0,0.0,0.0,0.0,0.0,0.0,0.0,0.0,0.0,0.0,0.0,0.0,0.0,0.0,0.0,0.0,0.0,0.0,0.0,0.0,0.0,0.0,0.0,0.0,0.0,0.0,0.0,0.0,0.0,0.0,0.0,0.0,0.0,0.0,0.0,0.0,0.0,0.0,0.0,0.0,0.0,0.0,3.884,4.0109,4.1378,4.1378,4.2415,4.3915,3.9085,3.7007,3.6843,3.421,0.0,0.0,0.0,0.0,0.0,0.0,0.0,0.0,0.0,0.0,0.0,0.0,0.0,0.0,0.0,0.0,0.0,0.0,0.0,0.0,0.0,0.0,4.1839,4.3102,4.4402,4.4501,4.1482,0.0,0.0,0.0,0.0,0.0,0.0,0.0,0.0,0.0,0.0,0.0,4.8404,5.3871,5.8535,6.1253,6.3692,6.4769,6.3954,6.2472,6.0611,5.8339,5.4731,5.1448,0.0,0.0,0.0,0.0,0.0,0.0,0.0,0.0,0.0,0.0,0.0,0.0,0.0,0.0,0.0,0.0,0.0,0.0,0.0,0.0,0.0,0.0,0.0,0.0,0.0,0.0,0.0,0.0,0.0,0.0,0.0,0.0,0.0,0.0,0.0,0.0,0.0,0.0,0.0,0.0,0.0,0.0,0.0,0.0,0.0,0.0,0.0,0.0,0.0,0.0,0.0,0.0,0.0,0.0,0.0,0.0,0.0,0.0,3.5563,3.2363,0.0,0.0,0.0,0.0,0.0,0.0,0.0,0.0,0.0,0.0,0.0,0.0,0.0,0.0,0.0,0.0,0.0,0.0,0.0,0.0,0.0,0.0,0.0,0.0,0.0,0.0,0.0,0.0,0.0,0.0,0.0,0.0,0.0,0.0,0.0,0.0,0.0,0.0,0.0,0.0,4.6256,5.1392,5.6082,5.9638,6.1749,6.2676,6.221,5.9797,5.7236,5.4673,5.0832,0.0,0.0,0.0,0.0,0.0,0.0,0.0,0.0,0.0,0.0,0.0,0.0,0.0,0.0,0.0,0.0,0.0,0.0,0.0,0.0,0.0,0.0,0.0,0.0,0.0,0.0,0.0,0.0,0.0,0.0,0.0,0.0,0.0,0.0,0.0,0.0,0.0,0.0,0.0,0.0,0.0,0.0,0.0,0.0,0.0,0.0,0.0,0.0,0.0,0.0,0.0,0.0,0.0,0.0,0.0,0.0,0.0,0.0,0.0,3.2108,2.8495,0.0,0.0,0.0,0.0,0.0,0.0,0.0,0.0,0.0,0.0,0.0,0.0,0.0,0.0,0.0,0.0,0.0,0.0,0.0,0.0,0.0,0.0,0.0,0.0,0.0,0.0,0.0,0.0,0.0,0.0,0.0,0.0,0.0,0.0,0.0,0.0,0.0,0.0,0.0,0.0,4.4104,4.8746,5.3314,5.7575,5.924,6.0247,6.0675,5.7329,5.4066,5.1401,4.7573,0.0,0.0,0.0,0.0,0.0,0.0,0.0,0.0,0.0,0.0,0.0,0.0,0.0,0.0,0.0,0.0,0.0,0.0,0.0,0.0,0.0,0.0,0.0,0.0,0.0,0.0,0.0,0.0,0.0,0.0,0.0,0.0,0.0,0.0,0.0,0.0,0.0,0.0,0.0,0.0,0.0,0.0,0.0,0.0,0.0,0.0,0.0,0.0,0.0,0.0,0.0,0.0,0.0,0.0,0.0,0.0,0.0,0.0,0.0,0.0,0.0,0.0,0.0,0.0,0.0,0.0,0.0,0.0,0.0,0.0,0.0,0.0,0.0,0.0,0.0,0.0,0.0,0.0,0.0,0.0,0.0,0.0,0.0,0.0,0.0,0.0,0.0,0.0,0.0,0.0,0.0,0.0,0.0,0.0,0.0,0.0,0.0,0.0,0.0,0.0,0.0,4.0601,4.5791,5.069,5.4745,5.656,5.7935,5.9036,5.5857,5.2651,4.9944,0.0,0.0,0.0,0.0,0.0,0.0,0.0,0.0,0.0,0.0,0.0,0.0,0.0,0.0,0.0,0.0,0.0,0.0,0.0,0.0,0.0,0.0,0.0,0.0,0.0,0.0,0.0,0.0,0.0,0.0,0.0,0.0,0.0,0.0,0.0,0.0,0.0,0.0,0.0,0.0,0.0,0.0,0.0,0.0,0.0,0.0,0.0,0.0,0.0,0.0,0.0,0.0,0.0,0.0,0.0,0.0,0.0,0.0,0.0,0.0,0.0,0.0,0.0,0.0,0.0,0.0,0.0,0.0,0.0,0.0,0.0,0.0,0.0,0.0,0.0,0.0,0.0,0.0,0.0,0.0,0.0,0.0,0.0,0.0,0.0,0.0,0.0,0.0,0.0,0.0,0.0,0.0,0.0,0.0,0.0,0.0,0.0,0.0,0.0,0.0,0.0,0.0,3.9927,4.5185,5.011,5.4148,5.5765,5.6582,5.656,5.3189,4.9436,4.5627,0.0,0.0,0.0,0.0,0.0,0.0,0.0,0.0,0.0,0.0,0.0,0.0,0.0,0.0,0.0,0.0,0.0,0.0,0.0,0.0,0.0,0.0,0.0,0.0,0.0,0.0,0.0,0.0,0.0,0.0,0.0,0.0,0.0,0.0,0.0,0.0,0.0,0.0,0.0,0.0,0.0,0.0,0.0,0.0,0.0,0.0,0.0,0.0,0.0,0.0,0.0,0.0,0.0,0.0,0.0,0.0,0.0,0.0,0.0,0.0,0.0,0.0,0.0,0.0,0.0,0.0,0.0,0.0,0.0,0.0,0.0,0.0,0.0,0.0,0.0,0.0,0.0,0.0,0.0,0.0,0.0,0.0,0.0,0.0,0.0,0.0,0.0,0.0,0.0,0.0,0.0,0.0,0.0,0.0,0.0,0.0,0.0,0.0,0.0,0.0,0.0,0.0,3.9171,4.4099,4.8765,5.2755,5.431,5.4864,5.4311,5.0893,4.694,4.2625,0.0,0.0,0.0,0.0,0.0,0.0,0.0,0.0,0.0,0.0,0.0,0.0,0.0,0.0,0.0,0.0,0.0,0.0,0.0,0.0,0.0,0.0,0.0,0.0,0.0,0.0,0.0,0.0,0.0,0.0,0.0,0.0,0.0,0.0,0.0,0.0,0.0,0.0,0.0,0.0,0.0,0.0,0.0,0.0,0.0,0.0,0.0,0.0,0.0,0.0,0.0,0.0,0.0,0.0,0.0,0.0,0.0,0.0,0.0,0.0,0.0,0.0,0.0,0.0,0.0,0.0,0.0,0.0,0.0,0.0,0.0,0.0,0.0,0.0,0.0,0.0,0.0,0.0,0.0,0.0,0.0,0.0,0.0,0.0,0.0,0.0,0.0,0.0,0.0,0.0,0.0,0.0,0.0,0.0,0.0,0.0,0.0,0.0,0.0,0.0,0.0,0.0,3.774,4.1976,4.6,4.9794,5.1601,5.2519,5.2519,4.9393,4.582,0.0,0.0,0.0,0.0,0.0,0.0,0.0,0.0,0.0,0.0,0.0,0.0,0.0,0.0,0.0,0.0,0.0,0.0,0.0,0.0,0.0,0.0,0.0,0.0,0.0,0.0,0.0,0.0,0.0,0.0,0.0,0.0,0.0,0.0,0.0,0.0,0.0,0.0,0.0,0.0,0.0,0.0,0.0,0.0,0.0,0.0,0.0,0.0,0.0,0.0,0.0,0.0,0.0,0.0,0.0,0.0,0.0,0.0,0.0,0.0,0.0,0.0,0.0,0.0,0.0,0.0,0.0,0.0,0.0,0.0,0.0,0.0,0.0,0.0,0.0,0.0,0.0,0.0,0.0,0.0,0.0,0.0,0.0,0.0,0.0,0.0,0.0,0.0,0.0,0.0,0.0,0.0,0.0,0.0,0.0,0.0,0.0,0.0,0.0,0.0,0.0,0.0,0.0,3.6759,4.0336,4.4102,4.8611,5.0176,5.0956,5.1129,4.7777,4.3962,3.9919,0.0,0.0,0.0,0.0,0.0,0.0,0.0,0.0,0.0,0.0,0.0,0.0,0.0,0.0,0.0,0.0,0.0,0.0,0.0,0.0,0.0,0.0,0.0,0.0,0.0,0.0,0.0,0.0,0.0,0.0,0.0,0.0,0.0,0.0,0.0,0.0,0.0,0.0,0.0,0.0,0.0,0.0,0.0,0.0,0.0,0.0,0.0,0.0,0.0,0.0,0.0,0.0,0.0,0.0,0.0,0.0,0.0,0.0,0.0,0.0,0.0,0.0,0.0,0.0,0.0,0.0,0.0,0.0,0.0,0.0,0.0,0.0,0.0,0.0,0.0,0.0,0.0,0.0,0.0,0.0,0.0,0.0,0.0,0.0,0.0,0.0,0.0,0.0,0.0,0.0,0.0,0.0,0.0,0.0,0.0,0.0,0.0,0.0,0.0,0.0,0.0,0.0,0.0,3.8979,4.236,4.6201,4.7993,4.8939,4.9009,4.6034,4.2545,3.8772,0.0,0.0,0.0,0.0,0.0,0.0,0.0,0.0,0.0,0.0,0.0,0.0,0.0,0.0,0.0,0.0,0.0,0.0,0.0,0.0,0.0,0.0,0.0,0.0,0.0,0.0,0.0,0.0,0.0,0.0,0.0,0.0,0.0,0.0,0.0,0.0,0.0,0.0,0.0,0.0,0.0,0.0,0.0,0.0,0.0,0.0,0.0,0.0,0.0,0.0,0.0,0.0,0.0,0.0,0.0,0.0,0.0,0.0,0.0,0.0,0.0,0.0,0.0,0.0,0.0,0.0,0.0,0.0,0.0,0.0,0.0,0.0,0.0,0.0,0.0,0.0,0.0,0.0,0.0,0.0,0.0,0.0,0.0,0.0,0.0,0.0,0.0,0.0,0.0,0.0,0.0,0.0,0.0,0.0,0.0,0.0,0.0,0.0,0.0,0.0,0.0,0.0,0.0,3.7815,4.0664,4.2909,4.5216,4.6482,4.6174,4.411,4.1484,3.8271,3.4057,0.0,0.0,0.0,0.0,0.0,0.0,0.0,0.0,0.0,0.0,0.0,0.0,0.0,0.0,0.0,0.0,0.0,0.0,0.0,0.0,0.0,0.0,0.0,0.0,0.0,0.0,0.0,0.0,0.0,0.0,0.0,0.0,0.0,0.0,0.0,0.0,0.0,0.0,0.0,0.0,0.0,0.0,0.0,0.0,0.0,0.0,0.0,0.0,0.0,0.0,0.0,0.0,0.0,0.0,0.0,0.0,0.0,0.0,0.0,0.0,0.0,0.0,0.0,0.0,0.0,0.0,0.0,0.0,0.0,0.0,0.0,0.0,0.0,0.0,0.0,0.0,0.0,0.0,0.0,0.0,0.0,0.0,0.0,0.0,0.0,0.0,0.0,0.0,0.0,0.0,0.0,0.0,0.0,0.0,0.0,0.0,0.0,0.0,0.0,0.0,0.0,0.0,3.5657,3.8505,4.0746,4.2891,4.3842,4.2982,4.2115,3.999,3.6155,3.3162,0.0,0.0,0.0,0.0,0.0,0.0,0.0,0.0,0.0,0.0,0.0,0.0,0.0,0.0,0.0,0.0,0.0,0.0,0.0,0.0,0.0,0.0,0.0,0.0,0.0,0.0,0.0,0.0,0.0,0.0,0.0,0.0,0.0,0.0,0.0,0.0,0.0,0.0,0.0,0.0,0.0,0.0,0.0,0.0,0.0,0.0,0.0,0.0,0.0,0.0,0.0,0.0,0.0,0.0,0.0,0.0,0.0,0.0,0.0,0.0,0.0,0.0,0.0,0.0,0.0,0.0,0.0,0.0,0.0,0.0,0.0,0.0,0.0,0.0,0.0,0.0,0.0,0.0,0.0,0.0,0.0,0.0,0.0,0.0,0.0,0.0,0.0,0.0,0.0,0.0,0.0,0.0,0.0,0.0,0.0,0.0,0.0,0.0,0.0,0.0,0.0,0.0,3.2083,3.5152,3.8352,4.017,4.1101,4.0997,4.0256,3.8456,3.5358,3.2476,0.0,0.0,0.0,0.0,0.0,0.0,0.0,0.0,0.0,0.0,0.0,0.0,0.0,0.0,0.0,0.0,0.0,0.0,0.0,0.0,0.0,0.0,0.0,0.0,0.0,0.0,0.0,0.0,0.0,0.0,0.0,0.0,0.0,0.0,0.0,0.0,0.0,0.0,0.0,0.0,0.0,0.0,0.0,0.0,0.0,0.0,0.0,0.0,0.0,0.0,0.0,0.0,0.0,0.0,0.0,0.0,0.0,0.0,0.0,0.0,0.0,0.0,0.0,0.0,0.0,0.0,0.0,0.0,0.0,0.0,0.0,0.0,0.0,0.0,0.0,0.0,0.0,0.0,0.0,0.0,0.0,0.0,0.0,0.0,0.0,0.0,0.0,0.0,0.0,0.0,0.0,0.0,0.0,0.0,0.0,0.0,0.0,0.0,0.0,0.0,0.0,0.0,0.0,3.1685,3.5951,3.736,3.8374,3.9263,3.8283,3.6736,3.4596,0.0,0.0,0.0,0.0,0.0,0.0,0.0,0.0,0.0,0.0,0.0,0.0,0.0,0.0,0.0,0.0,0.0,0.0,0.0,0.0,0.0,0.0,0.0,0.0,0.0,0.0,0.0,0.0,0.0,0.0,0.0,0.0,0.0,0.0,0.0,0.0,0.0,0.0,0.0,0.0,0.0,0.0,0.0,0.0,0.0,0.0,0.0,0.0,0.0,0.0,0.0,0.0,0.0,0.0,0.0,0.0,0.0,0.0,0.0,0.0,0.0,0.0,0.0,0.0,0.0,0.0,0.0,0.0,0.0,0.0,0.0,0.0,0.0,0.0,0.0,0.0,0.0,0.0,0.0,0.0,0.0,0.0,0.0,0.0,0.0,0.0,0.0,0.0,0.0,0.0,0.0,0.0,0.0,0.0,0.0,0.0,0.0,0.0,0.0,0.0,0.0,0.0,0.0,0.0,3.0174,3.3608,3.5114,3.591,3.6082,3.5704,3.426,3.1417,0.0,0.0,0.0,0.0,0.0,0.0,0.0,0.0,0.0,0.0,0.0,0.0,0.0,0.0]}]]]